GFSWCAN_850_thetae_009.txt.gz
Theta_e
310 312 313 313 312 312 311 310 310 310 309 309 309 310 311 314 315 315 315 315 315 314 314 315 314 314 313 313 310 311 312 311 306 308 309 309 308 308 309 308 307 309 310 308 307 310 311 307 309 312 312 311 309 309
307 309 310 311 312 312 311 311 310 310 311 310 310 311 312 313 314 315 315 315 315 315 315 316 316 315 315 314 314 313 311 311 312 306 304 304 306 301 306 314 305 311 310 311 310 311 307 308 309 310 310 309 308 307
306 307 308 311 312 312 312 311 311 311 312 312 312 312 313 314 314 314 314 315 315 315 315 315 315 316 316 315 315 314 313 313 313 312 306 304 309 304 309 308 308 308 308 311 310 311 310 311 311 310 309 307 306 305
304 306 307 308 312 312 312 311 311 311 312 312 313 313 314 314 315 315 316 315 315 315 314 313 314 315 315 315 315 315 315 314 314 312 308 303 306 307 308 311 311 311 310 310 309 311 310 310 311 311 308 306 303 298
303 304 306 307 309 313 312 311 311 312 312 312 313 313 314 314 315 315 316 316 316 316 312 314 313 313 313 313 313 313 314 314 314 312 308 307 308 307 306 305 308 310 311 311 312 311 310 310 307 307 305 299 298 298
303 303 305 307 307 309 312 312 310 312 312 313 313 313 313 314 314 314 315 315 316 316 315 306 311 312 312 312 312 312 312 313 314 314 311 312 313 311 307 309 310 311 310 310 311 309 306 307 307 300 298 298 296 295
300 301 304 304 306 308 310 313 312 311 312 312 313 313 313 313 314 314 313 312 314 315 314 310 307 310 310 310 311 311 312 313 313 313 311 312 311 311 304 309 310 310 309 308 307 307 306 304 301 298 296 295 296 296
300 299 299 302 305 306 309 312 312 313 313 312 312 313 313 313 312 312 313 312 312 313 312 304 305 307 307 308 308 308 309 309 310 310 308 308 308 308 308 308 305 305 305 305 305 306 305 299 297 296 297 297 296 295
300 299 299 300 302 303 305 309 311 312 312 313 312 313 313 312 312 313 313 312 311 311 310 307 306 308 307 306 307 306 307 305 306 305 305 306 305 308 303 301 303 304 303 302 300 300 298 297 298 296 295 295 294 295
299 299 299 300 300 300 303 305 308 312 311 312 312 311 310 310 311 312 312 311 311 310 307 306 306 306 308 304 304 305 304 303 305 303 302 302 304 299 300 302 301 301 301 300 298 297 295 295 294 293 293 294 295 295
299 299 299 299 300 301 300 303 305 307 308 308 306 304 305 306 308 307 305 305 303 303 303 303 304 304 306 305 304 304 302 301 303 300 303 303 303 299 297 297 297 297 296 295 293 292 292 292 292 292 292 292 292 292
299 299 299 299 299 301 302 300 301 304 304 302 302 301 302 302 301 301 301 300 302 303 301 301 302 304 303 304 303 299 301 299 299 296 301 302 298 298 297 295 295 295 293 292 291 291 291 292 292 292 291 291 292 292
299 299 299 300 301 303 303 302 301 302 303 302 303 301 300 301 303 304 304 302 302 299 300 301 300 302 301 302 299 298 299 299 294 298 299 297 295 293 294 294 294 293 292 291 291 291 292 292 291 291 291 291 292 292
298 299 298 298 301 303 303 304 304 303 303 302 302 302 300 301 300 296 296 296 298 300 300 301 299 299 298 297 295 297 293 293 298 296 297 294 294 294 294 294 293 292 291 291 292 292 292 292 291 291 291 292 291 292
298 299 298 298 300 301 302 303 303 303 299 299 299 299 298 296 297 298 299 299 299 300 300 299 297 297 293 294 293 293 296 296 295 296 293 294 294 294 294 294 292 291 291 292 292 292 292 292 292 292 291 291 291 291
298 299 298 298 299 301 301 302 302 302 299 297 295 293 295 296 296 298 299 299 299 300 299 298 292 296 294 292 293 293 294 293 294 291 295 294 294 294 292 291 290 291 291 292 292 292 292 292 292 291 291 291 291 290
297 299 298 298 300 300 301 300 300 300 298 295 293 293 295 295 297 297 298 299 299 299 296 292 294 295 289 291 292 290 291 291 294 292 292 293 292 292 291 290 291 292 292 293 292 292 292 291 291 291 291 291 290 290
297 298 298 298 299 299 298 298 298 297 294 293 293 293 295 296 296 297 297 298 299 298 296 294 291 288 289 290 291 289 293 295 294 292 293 293 292 291 291 291 291 292 292 292 293 292 292 291 291 290 291 290 289 290
298 298 298 298 298 297 296 296 296 293 292 292 293 294 295 295 295 295 296 297 298 297 296 294 287 290 290 290 292 294 294 293 293 293 293 292 291 291 292 292 292 292 293 293 292 291 291 291 291 290 290 290 289 289
297 298 297 297 297 296 295 294 294 292 292 292 293 294 294 294 294 295 296 296 296 296 296 294 291 294 294 294 294 294 294 294 293 291 291 291 291 291 292 292 292 292 292 291 291 291 291 291 290 289 289 289 289 290
296 295 297 297 295 293 292 292 292 292 292 293 293 294 293 293 293 293 293 293 294 295 292 295 295 295 295 295 294 293 292 291 291 291 291 291 291 291 291 291 292 292 292 291 291 291 291 290 289 287 288 289 289 289
295 296 295 295 293 292 291 290 291 291 291 291 292 292 292 292 290 289 291 291 291 292 293 293 293 292 291 291 291 291 291 291 291 291 291 291 291 291 291 292 292 292 291 291 291 291 290 290 288 288 288 288 288 288
294 294 294 293 292 291 290 291 291 290 288 289 290 289 289 290 289 289 288 289 290 291 291 291 291 291 291 291 291 291 291 291 291 291 291 291 291 291 292 292 292 291 291 291 291 291 290 289 288 287 288 288 288 288
294 293 292 291 290 288 290 290 291 291 290 286 281 284 282 287 287 286 287 288 291 291 291 291 291 290 290 290 290 291 292 291 291 291 290 290 291 291 291 291 291 291 291 291 291 291 289 288 287 287 286 286 287 287
293 290 290 288 288 287 281 284 285 289 287 285 284 282 284 286 281 282 285 290 291 291 290 290 290 290 291 291 291 292 291 291 290 290 290 290 290 291 291 291 291 291 291 291 291 289 287 286 286 285 285 285 286 286
285 288 287 287 287 283 280 285 285 286 281 280 284 284 284 280 281 284 285 291 291 290 290 290 291 291 291 291 292 291 291 290 290 290 290 291 291 291 291 291 291 291 291 290 288 287 286 285 285 285 285 285 286 286
285 287 288 288 288 287 283 282 283 281 281 282 278 277 276 282 281 286 291 291 291 290 290 290 290 290 290 290 291 290 290 290 290 290 290 291 291 291 291 290 290 289 288 287 286 286 285 284 284 284 285 286 286 286
289 288 284 287 288 288 282 279 274 280 280 287 284 281 283 283 285 291 291 290 290 290 290 290 290 290 290 290 290 290 290 290 290 290 290 289 290 289 289 288 288 287 286 286 285 283 284 284 284 284 285 285 285 285
290 290 289 286 285 287 288 286 286 290 290 289 283 279 287 290 290 289 290 290 290 290 289 289 289 289 289 289 289 288 289 289 289 289 289 288 288 287 287 286 286 286 285 285 285 284 284 284 284 284 284 284 283 283
288 289 289 286 283 282 291 291 291 291 291 290 290 290 290 290 288 287 287 287 287 286 285 284 284 284 284 284 285 285 285 286 286 286 286 286 285 285 285 285 284 284 284 284 284 284 284 284 283 283 283 283 283 283
289 287 289 288 288 291 291 291 291 291 290 290 289 289 288 287 285 283 283 281 280 280 281 281 281 281 281 281 282 282 282 282 282 282 283 283 283 283 283 283 283 283 283 283 282 282 282 281 281 281 281 281 281 281
288 287 288 281 288 289 289 289 289 289 288 287 286 286 286 286 283 279 277 277 278 279 278 278 278 278 278 278 278 279 279 279 280 280 280 280 280 281 281 281 281 281 281 281 281 280 280 280 280 280 279 279 279 279
284 284 284 285 287 288 287 286 286 285 285 285 284 284 283 280 275 274 274 274 275 275 275 275 276 276 276 277 277 277 277 277 278 278 278 279 279 279 280 280 280 280 279 279 279 279 279 279 278 278 278 278 277 277

GFSWCAN_850_thetae_012.txt.gz
Theta_e
310 313 311 311 312 311 311 310 309 309 308 308 308 309 310 313 315 316 315 315 314 314 314 314 314 315 314 317 321 315 317 315 315 313 315 316 316 316 314 313 314 316 317 314 313 313 315 311 311 315 313 312 309 308
307 310 312 311 311 311 311 311 310 310 309 309 309 310 311 312 314 315 315 315 315 314 315 315 314 314 314 314 315 314 317 316 317 317 312 310 311 308 317 317 312 315 314 314 314 316 313 312 313 311 311 311 307 307
305 308 310 311 313 312 311 311 311 310 310 310 309 311 312 313 314 314 315 315 315 314 315 316 316 315 315 315 314 317 313 314 314 314 313 312 312 314 314 315 316 314 311 314 314 313 313 313 312 312 310 308 306 305
304 305 308 310 310 311 311 311 311 311 311 311 311 311 312 313 314 314 315 315 315 315 315 315 315 316 316 315 315 315 315 314 313 311 309 308 312 313 313 316 315 314 313 313 313 313 312 312 311 310 308 306 304 301
303 303 305 307 309 311 311 311 311 311 311 312 312 312 313 314 315 315 315 315 315 315 315 314 313 314 315 315 315 315 315 315 313 311 307 311 313 312 309 310 314 313 313 313 314 313 311 311 308 306 306 303 301 300
302 303 305 306 307 309 312 312 311 310 311 312 312 313 313 314 314 315 315 316 316 316 315 317 312 312 312 313 312 314 315 314 314 314 312 312 313 314 308 312 311 312 312 312 311 310 309 307 307 304 302 300 298 297
301 300 301 305 306 308 309 312 311 310 311 311 312 313 313 313 314 314 314 313 315 316 315 313 311 310 310 310 311 311 312 313 313 313 311 312 313 311 309 311 311 310 308 307 308 307 306 305 304 300 298 298 298 297
300 299 299 302 304 306 307 309 312 311 310 311 311 312 312 313 313 313 313 311 313 315 314 309 307 308 308 308 308 308 309 310 311 311 309 309 308 309 310 310 306 305 304 305 305 305 304 301 299 299 299 297 296 295
300 300 299 301 301 303 306 308 310 312 311 311 312 312 313 313 312 312 313 312 312 312 310 306 308 309 307 305 305 306 307 309 306 306 306 307 307 310 308 304 304 304 305 302 301 301 299 298 297 296 295 294 294 294
300 299 299 300 300 300 303 307 308 311 313 312 311 312 312 311 311 313 312 311 312 311 309 308 308 310 308 305 304 306 304 308 309 306 303 303 306 300 301 302 302 303 301 300 299 298 296 294 294 293 294 294 293 293
300 299 299 299 299 301 300 305 308 310 309 308 308 309 307 307 311 310 307 307 304 304 304 304 305 305 305 308 307 304 304 303 307 306 306 307 307 302 300 298 298 297 296 295 294 293 293 293 293 293 293 293 291 291
299 299 299 299 300 301 301 303 303 305 303 304 303 303 304 304 303 302 302 300 301 306 301 302 303 304 304 305 304 300 305 303 307 301 303 305 305 300 298 297 296 295 294 293 292 292 292 293 293 292 291 291 291 291
299 299 299 299 301 302 301 301 301 301 300 301 302 300 300 299 304 306 307 305 305 300 300 301 301 302 302 303 300 302 305 305 299 300 304 304 301 299 298 296 295 294 292 291 291 292 292 292 292 292 291 292 291 291
298 299 299 299 300 303 301 301 301 301 301 300 300 302 303 303 303 303 304 304 299 300 300 302 298 301 299 299 299 304 299 299 302 302 303 302 298 296 295 295 294 293 291 291 291 291 292 292 292 292 292 291 291 291
298 298 298 298 300 301 302 302 301 301 300 300 300 302 301 296 298 298 298 299 300 300 301 300 298 300 298 298 298 298 299 301 302 303 301 298 295 295 295 294 294 291 290 291 291 292 292 292 292 292 291 291 291 291
297 298 298 298 299 300 300 300 300 301 300 296 295 297 295 298 297 298 299 299 300 300 300 299 299 301 300 299 299 301 301 301 301 299 298 295 294 294 293 292 291 290 291 291 292 292 292 292 292 291 291 290 290 291
297 298 298 298 299 301 300 300 301 299 297 295 295 295 296 297 299 298 299 299 300 300 300 298 301 300 294 298 299 297 299 299 297 296 294 292 292 292 292 291 290 290 291 291 292 292 292 292 291 291 291 290 290 290
297 298 298 298 299 298 299 298 298 297 294 293 295 294 295 295 296 297 298 299 299 299 296 299 294 296 298 299 299 297 295 294 294 292 292 293 293 293 292 291 291 291 291 291 292 292 292 291 291 291 291 290 290 290
297 298 298 298 299 298 297 297 296 294 292 292 293 293 295 295 296 296 297 298 298 297 295 295 297 297 297 294 296 295 295 294 295 294 293 293 292 291 291 291 291 291 291 291 292 292 292 291 291 291 291 290 289 288
296 298 298 299 298 296 295 294 294 293 294 292 293 293 293 293 294 295 295 296 297 296 297 297 297 296 296 294 294 294 294 294 294 293 293 292 291 291 291 291 291 291 291 291 292 292 291 291 291 291 290 289 288 288
296 296 298 297 297 294 293 293 292 292 292 293 292 293 292 292 292 293 294 294 296 296 296 296 295 295 295 295 295 295 294 292 292 291 292 292 292 291 291 291 291 291 291 292 292 291 291 291 291 291 290 289 288 288
295 296 296 296 293 292 291 291 291 291 292 292 292 292 292 292 291 290 291 292 293 294 294 294 294 294 293 293 291 291 291 291 291 291 291 291 291 291 291 291 291 292 292 292 291 291 291 291 291 291 290 288 287 287
296 296 294 293 292 291 290 291 291 290 292 291 291 292 292 292 288 288 290 290 291 292 292 292 291 291 291 291 291 291 291 291 291 291 291 291 290 290 290 290 291 291 291 291 291 291 291 291 291 290 288 287 287 286
294 294 292 291 291 289 290 290 290 290 290 290 291 291 290 289 287 288 290 290 291 291 291 291 291 290 290 290 290 290 290 291 291 291 290 290 290 290 290 290 290 291 291 291 291 291 291 291 290 288 287 286 286 285
293 290 290 288 288 288 290 290 289 291 291 289 289 290 289 285 291 290 290 292 291 291 291 290 290 290 290 291 290 290 291 291 291 291 291 290 290 290 290 290 290 291 291 291 291 290 290 289 287 286 285 286 285 285
289 288 289 288 288 289 289 289 289 289 289 288 288 286 284 289 291 292 292 291 290 290 290 290 290 290 291 291 290 290 290 291 291 290 290 290 290 290 290 291 290 290 290 289 289 288 287 286 286 285 285 285 285 285
289 289 288 288 288 286 286 284 284 287 287 288 290 287 289 291 292 292 290 289 289 289 289 289 290 290 290 290 290 290 290 290 290 290 290 290 290 290 289 289 289 288 288 288 287 286 286 285 284 284 284 284 284 284
288 288 288 287 287 287 288 288 288 288 290 288 288 289 291 292 292 288 288 288 289 289 290 290 289 289 288 288 288 288 288 288 288 289 289 289 289 289 288 288 287 287 286 286 285 285 284 284 284 284 284 284 284 283
290 288 288 287 286 286 288 290 290 290 289 288 291 292 290 287 287 287 288 288 288 287 287 287 287 286 285 285 284 283 284 284 285 285 284 286 287 286 286 285 285 285 285 284 284 284 284 284 284 284 283 283 283 282
288 288 288 286 287 290 291 290 290 290 290 289 289 289 289 288 286 284 284 283 284 283 282 281 281 281 280 280 280 280 280 280 280 281 281 281 282 282 283 283 283 283 283 283 283 283 283 282 282 282 281 281 281 281
288 286 288 288 289 290 290 290 290 290 290 290 290 289 289 285 281 280 279 279 278 278 279 279 279 278 278 277 277 278 278 278 278 278 279 279 279 280 280 280 281 281 281 281 281 281 281 280 280 280 280 280 279 279
286 287 288 288 289 288 288 288 288 288 288 288 287 285 283 280 276 273 275 276 276 277 276 276 276 276 276 275 276 276 276 276 277 277 277 278 278 278 279 279 279 280 280 279 279 279 279 279 279 279 278 278 278 277
283 283 283 283 285 287 286 286 284 284 284 283 281 281 280 277 274 273 274 274 274 274 275 275 275 275 275 275 275 275 275 275 275 275 276 276 277 277 278 278 278 278 278 278 278 278 278 278 277 277 277 277 276 276

GFSWCAN_850_thetae_018.txt.gz
Theta_e
314 312 312 311 312 311 310 309 308 308 308 308 307 308 309 312 315 316 316 314 321 322 321 321 321 323 322 322 326 321 322 321 324 316 320 324 320 322 320 318 316 315 317 314 317 317 317 314 314 315 316 314 315 313
313 312 312 312 312 312 311 309 308 308 308 308 307 308 309 311 314 316 320 314 315 322 321 320 320 321 320 320 322 320 320 322 322 322 322 322 314 314 318 323 316 319 320 321 318 318 315 315 314 314 314 314 312 310
313 312 312 312 312 312 311 310 309 308 308 308 308 308 309 310 313 316 321 314 317 317 320 318 320 316 318 320 321 321 321 319 319 322 317 314 311 318 315 320 318 316 315 321 319 316 314 315 314 313 312 311 309 308
308 312 312 312 312 311 311 311 310 309 309 308 308 308 309 310 312 314 320 315 320 317 318 321 319 317 314 315 317 320 320 319 321 319 311 309 312 317 319 319 320 318 316 317 317 316 315 315 314 312 310 309 307 307
305 307 310 312 312 311 311 311 311 310 310 310 310 309 310 311 311 313 314 315 317 321 316 321 317 317 315 315 318 316 318 318 319 314 307 311 318 320 318 316 319 315 315 317 318 315 315 315 312 310 309 308 307 304
303 305 306 308 311 312 311 311 310 310 311 311 311 311 311 312 312 313 319 314 315 318 316 315 318 316 315 316 319 319 319 319 319 318 313 317 317 318 314 315 314 313 312 313 314 314 313 311 310 309 307 306 303 302
301 302 305 307 308 309 311 312 311 311 310 311 311 312 312 312 314 318 317 319 315 315 315 314 318 313 314 317 317 318 318 318 318 317 317 316 317 316 310 314 313 312 312 313 312 311 310 309 308 306 304 303 301 299
299 300 301 303 306 307 308 310 311 311 311 310 311 312 312 313 313 315 315 313 315 318 316 314 314 312 311 314 314 313 313 314 314 315 313 313 315 313 313 314 312 312 312 310 309 309 309 308 307 304 302 300 297 297
300 299 300 300 302 304 305 307 309 311 311 310 310 311 311 312 312 314 314 312 314 317 317 309 311 312 311 309 309 309 310 312 311 311 310 312 311 312 312 312 313 312 310 309 308 307 308 305 302 300 298 297 297 296
300 299 300 300 300 300 302 304 307 309 312 311 311 313 313 313 311 311 312 312 313 313 313 308 312 313 311 307 307 307 307 311 310 309 307 306 308 310 311 310 311 310 309 308 306 304 301 299 298 297 297 296 295 294
300 299 299 299 300 300 301 304 305 308 311 311 311 310 310 312 312 312 312 312 310 309 309 310 310 310 310 308 308 307 307 306 311 310 310 310 309 308 309 308 307 308 307 305 304 301 297 297 296 296 296 295 293 293
299 299 299 299 301 301 302 304 306 307 308 308 308 307 307 307 306 308 305 304 306 311 305 304 307 309 307 309 307 304 307 305 309 306 307 309 309 309 307 306 305 304 301 298 297 296 296 296 296 295 294 292 292 291
299 299 299 300 301 301 302 303 304 305 305 305 305 304 303 300 304 306 307 305 305 301 301 302 302 303 304 305 302 302 305 307 304 306 306 308 307 306 305 304 301 299 297 295 295 295 295 294 292 291 291 291 291 291
298 299 299 299 301 301 301 302 302 303 303 302 300 303 302 304 303 303 303 302 300 301 301 302 300 302 301 301 300 306 303 304 306 307 306 309 305 304 303 301 299 297 296 294 292 292 291 291 291 291 291 291 291 291
294 296 299 299 300 301 301 302 302 302 301 300 301 303 302 298 298 298 299 299 300 301 301 301 300 301 300 302 301 303 304 306 306 307 305 303 303 303 300 299 298 296 295 294 293 292 291 290 291 291 291 291 291 291
295 296 299 298 299 300 301 301 301 301 299 300 299 301 299 300 299 299 299 299 300 300 300 301 300 303 303 303 303 305 306 306 307 305 301 300 299 298 298 297 296 295 293 292 291 291 291 291 291 291 291 292 291 291
296 298 298 298 299 300 299 300 300 299 298 299 298 299 299 299 299 299 299 300 300 300 301 301 304 302 300 303 304 303 305 303 302 301 299 298 297 296 295 293 294 294 293 292 291 291 291 292 291 291 291 292 292 293
298 298 298 298 298 299 300 299 298 299 298 299 300 298 298 298 298 298 299 299 300 300 300 301 299 301 302 303 304 303 300 299 300 298 297 296 295 295 295 295 294 293 292 292 291 291 291 292 293 293 293 293 293 293
296 296 297 299 298 298 299 298 298 299 298 297 295 296 296 296 296 297 297 298 299 298 299 298 300 301 302 299 300 300 299 298 297 296 296 295 295 295 295 294 291 291 292 292 292 293 293 293 293 293 293 293 292 292
296 296 297 298 297 298 297 297 297 298 299 297 296 296 295 295 295 296 296 298 298 297 298 299 300 300 300 298 298 298 297 297 296 296 296 296 295 294 294 294 293 293 292 292 292 292 293 293 293 292 292 292 293 292
296 296 297 297 297 296 296 297 297 297 296 297 296 297 293 293 294 294 295 296 297 298 299 299 298 299 298 297 296 295 294 294 295 295 294 294 294 294 293 292 292 293 293 293 292 291 291 291 291 290 291 292 292 293
296 297 296 296 296 293 295 295 296 296 296 295 295 296 294 294 294 293 293 295 296 297 298 298 298 297 297 297 296 295 294 292 291 291 292 293 293 294 294 294 294 293 292 291 291 291 291 291 292 291 292 291 291 290
295 295 295 294 294 294 293 294 295 296 295 295 295 295 294 294 293 291 293 294 296 296 296 296 296 295 294 294 293 291 291 292 293 293 293 293 293 294 293 293 293 293 292 292 291 291 291 291 291 290 290 290 290 289
294 294 293 293 294 293 292 293 294 295 295 296 296 296 295 294 291 293 295 296 296 295 294 294 294 294 294 292 293 293 293 292 292 292 292 292 292 292 292 292 292 292 292 292 291 291 291 290 289 288 289 288 288 287
294 292 292 292 292 293 294 294 294 295 295 295 295 295 293 292 295 295 295 296 294 293 293 293 293 293 293 293 293 292 292 291 291 290 289 289 290 290 290 290 290 290 290 290 289 290 290 289 288 288 288 287 287 286
294 291 294 294 293 295 295 294 294 295 295 294 294 293 292 294 294 295 295 292 290 288 289 289 290 291 292 290 289 288 288 288 287 286 285 285 285 285 285 286 286 287 287 288 289 288 287 287 287 287 287 286 286 286
293 293 291 291 292 293 293 293 293 294 294 294 294 292 293 293 294 294 289 288 287 286 286 286 287 285 285 285 285 284 284 284 284 283 283 283 284 284 284 283 283 282 283 284 284 284 285 285 286 285 285 285 285 285
292 292 292 292 293 293 293 293 293 293 294 294 294 293 293 294 293 287 285 283 284 284 284 283 284 285 283 283 282 281 281 282 282 281 282 283 282 281 282 281 281 281 282 282 282 282 282 283 283 283 283 283 283 282
291 291 291 290 292 292 293 293 294 293 293 293 294 294 293 285 284 283 282 283 283 283 282 282 281 281 280 279 279 279 279 279 279 279 278 277 278 278 279 278 279 279 279 280 280 280 281 280 281 281 281 281 280 280
290 291 292 291 291 294 294 293 293 292 292 293 293 290 286 281 281 281 280 281 281 281 279 278 277 277 277 276 276 276 277 276 276 275 274 275 275 276 276 276 277 277 277 278 278 279 279 279 279 279 279 279 279 278
289 290 291 292 293 292 291 291 290 290 290 291 291 290 286 281 280 280 280 277 276 277 277 276 275 275 275 274 274 274 274 274 274 273 274 274 274 274 274 274 275 275 275 276 276 276 276 277 277 277 277 277 277 276
290 290 291 292 292 290 289 289 290 290 291 289 290 287 284 283 281 276 276 276 274 275 276 276 276 275 276 274 273 272 272 272 271 272 272 272 272 273 273 273 274 274 274 274 274 274 274 274 274 275 275 275 276 275
288 288 288 289 289 290 289 288 289 289 289 288 288 285 281 282 280 276 275 276 275 276 276 275 275 274 273 273 272 272 272 272 272 270 269 270 270 271 271 272 272 272 273 273 273 272 272 273 273 273 274 274 274 273

GFSWCAN_850_thetae_021.txt.gz
Theta_e
312 311 311 310 310 310 309 309 309 308 308 308 308 308 310 314 315 316 314 319 321 322 321 321 322 323 322 322 313 320 314 317 311 312 309 309 308 309 313 314 310 307 307 305 309 311 309 313 313 310 310 314 314 312
311 310 311 311 311 310 310 309 309 308 308 308 308 308 309 312 315 317 315 316 317 319 319 321 321 321 322 322 321 319 316 320 319 311 306 308 310 311 310 310 313 313 310 310 309 308 310 314 314 314 314 314 311 310
312 311 311 311 311 311 310 309 309 308 308 308 308 308 308 310 314 317 317 315 316 315 317 317 318 319 319 322 321 319 321 320 320 320 314 312 307 309 307 309 314 314 314 309 312 314 315 314 314 314 314 313 310 308
313 312 312 311 311 311 311 310 309 308 308 308 308 308 308 309 312 314 315 317 318 316 316 320 319 316 316 320 321 320 319 320 320 319 309 308 305 314 307 309 308 312 315 314 310 313 314 314 314 312 310 310 309 306
312 313 312 312 312 311 311 311 310 309 308 308 308 308 308 309 310 312 314 316 319 318 314 320 318 318 316 314 316 318 319 319 320 315 306 306 311 311 313 307 308 316 312 309 308 314 314 312 312 311 310 310 306 306
307 309 312 312 312 311 310 310 311 310 310 310 309 309 309 310 311 312 314 314 315 320 316 309 317 316 315 316 319 317 318 318 318 316 312 314 318 314 308 308 313 314 314 314 314 314 314 313 311 309 308 306 304 302
303 306 307 310 312 311 311 310 310 311 311 310 310 310 310 310 312 317 316 318 314 315 315 311 314 314 315 317 319 319 319 319 319 318 316 316 316 316 305 308 312 313 312 312 312 312 310 309 308 306 306 303 302 298
301 302 305 307 308 310 312 311 310 310 310 311 311 311 311 312 313 315 316 314 315 315 316 309 309 312 314 315 314 314 315 316 315 315 314 313 314 312 308 312 313 313 313 312 311 311 310 308 307 304 303 299 297 297
299 300 301 302 305 307 308 310 311 311 310 310 310 311 311 312 313 313 314 313 315 316 314 310 305 306 312 310 310 311 312 306 311 310 310 312 305 310 310 312 312 312 311 310 309 308 306 305 306 299 298 297 297 296
299 299 299 300 300 302 304 307 309 311 311 310 310 311 313 311 312 313 313 313 312 314 313 309 310 308 309 308 307 307 307 305 308 305 308 304 307 309 310 311 311 311 310 309 308 308 306 299 298 297 297 297 296 295
299 299 299 300 300 302 304 304 307 309 311 311 311 312 312 312 311 311 312 310 309 307 311 310 311 308 308 304 304 307 304 303 308 303 306 306 306 306 308 309 309 309 309 307 305 302 299 298 297 296 296 296 294 291
299 299 299 300 301 303 304 304 306 308 310 310 310 309 309 309 308 308 305 305 305 307 305 307 308 309 309 308 305 304 305 303 308 306 306 307 303 308 308 307 305 305 302 300 298 297 296 296 296 295 293 291 291 291
299 299 299 301 301 302 303 305 306 306 306 307 307 306 304 301 304 306 307 304 304 302 303 304 303 305 306 307 303 302 305 306 305 305 303 301 306 306 306 304 300 298 297 296 296 295 295 293 292 291 290 290 291 290
299 299 299 301 301 302 303 304 305 305 305 303 301 302 302 302 301 300 301 301 300 300 301 301 300 302 302 302 300 305 302 302 305 304 299 303 305 304 303 301 299 297 297 295 294 294 293 291 290 290 291 291 290 291
295 298 299 299 301 301 301 302 301 301 300 301 301 302 300 298 298 298 299 299 300 300 300 300 300 300 300 301 300 300 302 304 304 304 301 302 303 302 301 299 298 297 296 296 294 292 291 291 291 291 291 291 290 291
295 297 298 299 299 300 301 300 301 300 299 299 298 299 298 299 299 299 299 299 300 300 300 300 300 302 301 301 302 304 304 304 303 300 300 300 300 299 299 298 297 296 294 293 293 292 291 291 291 291 291 291 291 292
298 298 298 298 299 299 299 301 301 299 298 299 297 299 299 299 299 299 299 299 300 300 300 301 302 300 299 301 302 301 302 300 301 300 299 299 298 297 296 294 294 294 294 292 292 291 291 291 291 291 292 292 292 293
297 297 297 298 298 299 299 299 298 298 299 298 299 297 298 298 297 297 298 298 299 300 300 299 299 299 301 301 301 300 300 299 300 299 298 297 296 295 294 294 295 293 291 291 291 291 291 291 292 292 292 292 292 292
296 296 297 297 297 298 299 298 299 298 297 297 296 296 295 295 295 297 297 298 299 300 299 299 298 298 297 299 300 299 299 298 297 296 296 295 296 296 296 295 294 293 292 291 291 291 292 292 292 292 291 291 292 292
295 296 296 298 297 298 297 297 297 298 298 297 296 296 295 294 294 294 296 297 298 298 298 295 297 300 299 298 298 297 297 297 297 296 296 296 295 294 294 294 293 293 293 292 292 292 291 291 291 291 291 291 291 291
295 295 296 296 297 297 296 297 297 297 296 296 296 295 293 293 294 294 295 296 297 297 298 299 299 298 298 298 297 296 295 294 294 294 294 293 292 292 292 292 293 294 294 294 293 292 291 291 291 291 291 291 290 290
294 295 296 296 296 295 295 296 296 296 296 295 295 295 293 293 293 293 293 294 295 296 297 298 298 297 298 297 296 295 294 292 291 292 293 293 293 293 293 293 293 293 292 292 292 292 292 292 292 291 291 291 290 289
295 295 295 295 295 294 293 295 295 295 294 295 295 294 294 293 293 292 293 294 295 296 296 296 296 296 294 295 293 292 293 293 293 293 292 292 290 290 290 292 292 293 293 292 292 292 291 291 291 290 290 289 288 288
294 295 294 294 294 293 294 294 295 295 295 295 294 294 294 293 291 292 288 296 295 294 294 293 293 294 293 293 293 292 292 292 292 292 291 290 288 287 287 288 288 288 287 287 287 287 287 288 289 289 288 288 288 288
294 293 292 293 293 293 291 293 294 294 288 290 289 289 292 291 286 287 288 294 290 292 292 293 293 293 292 291 290 291 291 291 290 288 287 285 284 285 285 285 284 285 285 285 284 284 285 286 286 286 287 287 287 287
292 292 292 294 293 292 292 291 294 292 288 290 290 292 292 290 287 287 291 289 289 289 288 290 290 290 290 289 289 289 289 288 286 284 284 283 282 282 282 282 282 282 282 282 281 282 282 283 283 284 285 285 286 285
292 292 291 292 293 293 293 293 294 293 291 290 289 289 286 286 285 290 287 287 287 286 285 285 286 287 286 286 285 284 283 283 282 282 282 281 281 281 280 279 278 278 278 279 279 280 280 280 281 281 282 283 283 283
292 292 291 292 293 293 292 292 290 289 289 294 292 285 284 284 288 286 285 285 283 283 283 282 283 283 283 282 280 280 281 281 280 280 281 280 280 279 278 278 278 277 277 277 278 278 278 279 279 279 280 280 281 281
291 291 291 290 292 293 293 293 293 293 293 293 289 287 288 284 283 283 281 281 280 281 281 282 282 281 280 279 279 279 279 280 279 279 278 278 278 278 277 276 276 275 276 276 277 277 277 277 277 278 279 280 279 279
290 291 291 291 289 290 292 292 293 292 292 293 292 289 285 281 280 280 279 279 280 280 279 278 277 278 278 278 278 277 275 276 275 275 274 274 274 274 274 274 274 274 274 274 275 275 275 276 276 276 277 278 277 277
289 290 291 292 292 291 290 290 290 290 290 291 291 289 284 281 279 279 279 278 277 278 277 277 277 277 277 276 276 275 275 274 273 273 272 271 272 272 272 272 272 272 272 273 273 273 273 273 273 274 274 275 275 275
289 290 290 290 291 289 289 288 289 289 290 289 288 287 284 282 278 277 276 276 276 277 277 277 276 276 275 274 274 273 272 273 272 271 271 271 271 271 271 271 271 271 271 271 271 271 271 271 271 272 272 272 272 272
288 288 288 289 289 290 289 287 289 289 289 289 286 284 283 282 277 276 275 276 276 276 275 275 274 274 274 274 273 273 272 272 272 272 271 270 270 270 271 271 271 270 270 270 270 269 269 269 270 270 270 270 271 271

GFSWCAN_850_thetae_024.txt.gz
Theta_e
313 310 309 309 309 309 309 309 309 308 308 307 308 310 312 314 315 315 316 319 321 321 321 321 322 322 321 319 312 318 314 315 308 306 303 310 303 307 310 311 309 308 307 304 302 300 307 309 312 310 309 314 314 313
313 310 309 309 309 309 309 309 309 308 308 308 308 309 311 314 316 315 316 319 319 318 320 320 321 321 321 320 319 318 313 316 315 307 306 309 304 309 306 310 310 310 307 308 309 309 308 312 313 313 313 314 314 313
312 310 310 309 309 309 309 309 309 308 308 308 308 308 309 312 314 316 314 315 315 316 318 318 319 320 322 322 320 318 320 318 317 315 310 304 303 305 309 309 312 310 310 308 310 311 311 313 313 313 313 313 312 311
311 311 311 311 310 310 309 309 309 308 308 308 308 308 308 310 313 316 315 315 315 314 314 318 318 316 320 322 321 320 319 319 319 317 309 305 303 309 303 306 305 308 313 312 308 311 313 313 313 313 313 312 310 308
312 311 310 310 311 310 310 309 309 308 308 308 308 308 308 309 311 312 314 315 316 315 314 318 318 318 315 317 321 320 319 320 319 315 306 305 307 307 305 303 305 313 311 309 308 312 312 312 312 312 311 310 309 306
312 311 311 310 310 311 310 310 309 309 308 308 308 308 308 309 311 311 312 314 316 318 316 306 316 315 315 317 316 319 318 318 318 317 311 312 316 312 307 311 312 315 315 315 314 314 314 313 311 311 310 307 306 302
310 312 312 312 311 311 310 310 310 309 309 309 309 308 309 310 311 312 312 315 316 317 314 311 312 314 316 318 319 318 318 318 318 318 315 314 315 315 304 308 312 313 312 313 312 313 311 311 310 308 306 305 301 299
305 308 310 311 311 310 310 310 310 310 310 310 310 310 310 310 314 315 315 315 315 314 315 304 303 312 315 316 316 316 317 317 316 315 315 312 312 307 309 310 314 314 314 312 312 312 312 310 307 306 306 300 298 297
302 303 305 307 310 311 311 310 310 310 310 311 311 311 311 311 312 314 315 314 316 315 313 307 304 306 313 310 311 312 313 305 310 307 309 310 304 308 309 311 312 312 312 312 310 310 309 307 304 301 298 297 297 297
300 300 300 302 306 308 310 311 311 310 309 310 310 310 311 311 312 312 313 312 312 314 314 308 308 305 309 307 306 307 307 303 307 306 308 304 307 309 309 310 310 311 312 311 309 307 306 305 298 298 297 297 298 296
299 300 300 300 302 303 306 308 310 311 310 310 310 310 312 311 311 311 310 308 309 307 310 310 310 307 307 305 305 307 303 303 307 302 303 302 304 304 308 307 309 310 309 309 308 306 300 298 297 297 299 297 294 292
300 300 301 303 304 303 304 306 309 311 311 310 311 311 311 311 310 307 305 305 304 307 305 307 308 308 308 307 305 304 303 302 306 304 306 307 303 305 305 304 304 305 304 302 299 298 298 299 299 296 294 292 291 290
299 300 302 302 303 304 305 305 307 309 309 309 308 308 306 302 305 308 309 305 305 302 303 304 304 307 307 307 304 302 305 306 304 306 306 303 305 301 298 298 298 299 300 298 298 299 297 294 293 291 291 290 290 290
299 301 301 302 302 303 304 305 306 307 307 306 303 302 302 302 301 300 301 301 300 301 301 302 300 302 302 302 300 305 302 301 305 303 298 303 304 303 301 299 298 297 297 295 294 295 293 292 291 290 290 290 290 290
298 299 300 300 300 301 301 302 303 304 302 300 300 301 298 296 297 297 298 299 299 299 300 300 300 301 300 300 300 300 302 303 303 302 301 300 302 301 297 297 298 297 297 296 294 293 292 291 291 291 291 291 291 291
297 298 299 300 300 300 300 301 301 301 299 299 298 298 297 298 298 298 299 299 299 300 300 300 300 302 300 300 301 302 303 302 301 300 301 300 299 298 299 298 296 295 294 294 292 291 291 291 291 291 291 291 291 292
297 297 298 298 298 299 300 301 300 298 298 298 298 298 299 298 297 298 298 298 299 300 299 299 298 298 298 299 301 300 300 300 300 300 299 299 299 298 297 295 294 295 293 292 291 291 291 291 291 291 291 291 291 291
296 296 297 297 298 299 299 299 298 298 298 297 298 297 298 298 298 298 298 298 299 299 300 297 299 299 299 300 300 300 300 299 299 300 298 297 297 296 294 295 295 294 293 292 291 291 291 291 291 291 291 291 291 291
294 295 296 296 297 298 299 298 299 297 296 296 296 296 296 296 297 296 297 297 299 299 298 299 294 296 296 298 300 299 299 298 297 297 296 295 295 295 295 295 294 294 293 292 292 292 292 291 291 291 291 291 290 290
295 295 296 296 297 298 297 297 297 297 297 296 295 295 294 294 294 295 296 297 298 298 298 291 293 299 299 298 298 297 298 297 297 296 296 295 294 293 293 293 293 293 293 293 293 293 292 292 292 292 292 291 291 290
293 295 295 296 296 297 296 297 297 296 296 296 295 294 292 292 294 294 295 296 296 297 297 298 299 298 298 297 297 296 295 295 294 294 293 292 293 293 293 293 293 293 293 292 292 292 292 292 292 292 291 291 291 291
293 294 295 296 297 296 295 296 296 296 296 295 295 294 293 293 293 293 293 294 294 296 297 297 297 298 298 297 296 294 293 292 292 293 293 292 292 290 289 289 289 290 291 291 291 290 290 289 288 288 288 288 289 289
293 294 295 295 295 294 294 295 295 295 293 295 295 294 293 293 293 292 292 292 294 294 294 295 295 294 295 294 293 292 292 293 293 292 292 291 290 289 288 287 286 286 285 285 285 285 285 285 285 285 287 287 288 287
293 294 294 294 294 292 294 294 294 295 294 294 293 292 292 292 291 291 285 293 292 293 293 293 293 293 292 292 292 291 291 291 291 290 290 289 287 286 285 284 284 284 283 282 282 283 283 283 283 283 284 284 285 286
293 293 293 292 293 292 287 290 293 291 287 289 287 286 291 292 282 281 283 291 291 291 291 292 293 292 291 289 289 290 289 289 288 287 286 285 284 283 283 282 282 281 281 281 281 280 280 280 281 281 281 282 283 284
287 292 291 292 292 289 289 288 287 289 287 288 287 291 292 285 284 284 289 288 288 289 288 289 289 289 289 288 287 287 287 286 284 283 282 282 282 281 281 280 280 279 278 278 278 278 278 278 278 279 279 280 280 281
287 288 291 291 292 293 293 293 293 292 291 291 290 289 284 284 281 288 286 286 286 287 286 284 285 286 286 285 284 284 283 283 282 281 280 281 280 279 278 277 276 276 276 276 276 276 276 276 277 277 277 278 279 279
292 291 288 291 292 293 292 291 290 291 288 292 290 286 286 284 286 284 284 284 285 285 284 282 282 283 283 282 281 281 281 280 279 278 279 279 279 277 276 276 275 275 274 274 274 275 275 275 275 275 276 277 278 278
291 291 291 290 292 292 292 290 291 292 292 292 286 281 285 283 281 282 282 283 282 282 281 281 281 281 280 280 279 279 279 279 279 278 277 276 277 276 275 275 274 274 274 274 274 273 273 274 274 274 275 276 276 276
290 291 291 290 287 289 290 291 291 291 292 292 291 286 282 279 279 280 280 280 280 280 280 279 279 278 278 278 278 277 277 276 276 275 274 274 274 274 273 273 273 273 273 272 272 273 273 273 273 273 273 273 274 274
290 290 290 291 291 290 289 289 289 289 290 289 289 289 282 279 278 277 278 278 278 277 277 277 277 277 277 276 276 275 275 274 273 273 272 272 272 272 272 272 272 272 272 271 271 271 270 270 270 270 270 271 271 271
289 289 290 287 289 288 288 287 288 288 289 288 287 286 282 280 277 276 275 275 276 276 276 275 275 275 275 275 274 274 273 273 272 272 272 272 272 271 271 272 271 271 271 271 270 270 270 269 269 269 269 269 269 269
287 287 287 288 288 289 288 287 288 288 289 287 284 283 281 280 276 276 275 276 276 275 275 274 274 274 274 274 273 273 273 272 271 271 271 271 271 271 271 271 271 270 270 270 269 269 269 269 268 268 268 268 268 268

GFSWCAN_850_thetae_027.txt.gz
Theta_e
308 309 309 309 309 309 309 308 307 307 308 310 313 315 316 317 319 316 321 320 320 320 320 321 321 320 318 318 311 317 313 315 305 305 302 304 300 307 308 310 309 308 309 308 304 302 309 307 310 310 309 310 314 314
308 309 309 309 309 309 309 309 308 307 308 309 311 313 315 315 315 316 317 319 319 319 320 320 321 321 320 319 318 317 315 314 313 304 301 303 302 308 304 308 308 308 306 307 307 308 307 309 311 313 312 312 314 314
309 309 309 309 309 309 309 309 308 308 308 308 309 311 313 315 315 315 317 318 317 319 319 319 320 321 321 320 318 317 316 316 315 313 309 302 303 302 307 308 310 308 308 306 308 309 309 310 311 312 312 312 313 313
309 309 309 309 309 309 309 309 308 308 308 308 308 309 311 313 314 314 314 315 314 314 314 318 317 319 320 321 319 319 318 317 316 314 307 303 300 307 302 305 306 308 309 309 306 308 312 313 312 313 313 313 312 311
309 309 309 309 311 309 309 309 308 308 308 308 308 308 309 311 313 314 314 314 314 313 312 317 317 316 316 319 321 320 319 319 318 314 304 305 306 304 303 301 305 310 309 307 308 311 312 312 313 313 313 312 310 309
311 311 310 310 310 309 309 309 309 308 308 308 308 308 308 309 311 312 312 315 316 314 314 307 315 315 316 317 318 320 320 319 318 317 312 311 311 310 307 311 311 313 312 312 312 313 312 313 313 312 312 310 309 307
311 311 311 311 310 310 310 309 309 308 308 308 308 308 308 309 310 309 310 314 316 315 313 309 311 314 316 318 317 318 318 318 318 315 312 311 314 313 305 309 311 312 312 312 312 313 312 312 312 311 310 309 306 302
310 310 310 310 311 311 310 310 309 309 309 309 308 308 309 310 311 313 315 314 317 314 313 303 301 311 314 316 316 316 317 317 315 313 313 310 310 306 307 310 313 313 313 313 313 312 312 312 310 310 308 304 298 299
310 311 311 311 310 310 309 310 310 310 310 310 310 310 310 312 313 313 314 315 315 313 312 305 303 305 312 310 310 312 313 305 310 307 308 309 304 309 309 310 311 311 311 312 311 311 311 311 309 307 302 299 299 297
302 308 310 310 310 310 310 309 310 310 311 311 311 310 311 311 312 313 313 312 313 314 313 304 306 304 309 308 306 305 305 303 308 304 308 304 307 308 307 307 308 310 310 311 310 308 307 301 299 299 298 298 296 296
301 301 303 307 310 311 310 310 309 309 309 310 310 310 311 312 311 311 309 307 307 308 310 307 306 306 306 305 303 305 303 302 307 301 306 304 304 303 304 306 308 308 309 308 308 307 302 301 299 297 296 296 297 295
303 302 303 303 304 306 309 310 310 310 310 310 310 310 311 311 310 304 302 305 304 306 305 307 307 308 307 307 304 304 302 302 305 303 305 305 301 297 298 298 298 301 303 302 301 300 299 297 296 297 298 294 291 290
302 302 303 304 304 305 306 309 310 310 309 310 310 310 308 304 307 309 309 305 305 302 303 305 304 306 307 307 304 302 305 305 303 305 306 303 297 297 297 298 300 301 300 300 299 299 298 298 295 291 290 290 290 290
301 301 301 302 304 305 306 307 308 309 308 306 304 302 303 302 300 300 301 301 299 301 302 303 301 303 302 302 300 305 302 301 306 304 298 301 300 300 297 296 297 295 294 293 294 295 294 292 291 291 290 290 290 290
300 301 300 300 301 302 304 306 307 305 303 301 300 300 298 297 297 298 299 300 299 300 300 301 301 301 300 301 300 300 301 302 301 298 299 297 299 298 295 296 296 295 295 294 293 292 291 291 291 290 290 291 291 291
299 299 299 299 300 300 301 302 303 302 300 298 298 298 297 298 298 298 298 299 299 300 300 300 300 300 300 299 297 298 299 298 296 298 299 299 298 299 298 298 294 295 295 293 292 291 291 291 291 291 290 290 291 291
297 297 298 298 299 300 300 301 300 298 298 297 298 298 298 298 298 298 299 299 299 300 299 299 297 299 297 299 300 300 299 299 298 298 298 298 299 299 299 298 295 294 293 293 292 291 291 291 291 291 291 290 290 290
295 295 297 298 299 299 300 299 298 297 297 297 297 297 297 298 298 298 298 299 299 299 299 296 298 294 295 297 299 298 299 298 298 298 299 298 297 296 295 295 295 294 293 293 292 292 292 292 291 291 291 291 291 291
294 295 294 297 298 298 299 298 298 296 296 296 296 296 297 297 297 297 297 297 298 298 298 299 291 293 294 298 299 300 300 299 298 298 296 295 295 295 294 293 293 293 293 293 293 293 293 293 293 293 292 292 292 291
294 294 294 296 297 298 297 297 297 296 296 295 295 295 294 295 295 295 296 297 297 298 298 291 292 299 299 298 298 298 298 297 297 295 295 294 293 292 292 292 292 292 292 291 291 291 291 291 291 291 290 290 289 289
292 294 295 296 296 297 296 296 296 296 295 295 294 294 293 293 294 294 295 295 296 296 297 298 298 297 296 296 296 296 296 295 295 294 293 292 293 292 291 290 290 289 289 288 288 287 287 286 285 285 285 285 285 286
293 294 295 295 296 296 295 295 296 295 295 295 294 294 293 292 293 293 293 293 294 295 295 296 297 298 297 296 295 294 293 292 292 292 292 292 291 290 290 289 289 288 286 285 285 284 283 283 283 283 283 283 283 284
292 292 294 295 296 295 294 295 295 294 293 295 294 293 293 293 293 292 292 292 292 293 294 294 295 295 295 295 294 293 292 292 292 291 290 289 288 287 286 286 285 284 284 283 282 282 281 281 281 281 281 281 281 282
292 294 294 294 293 292 294 294 294 294 294 294 293 292 291 292 291 291 286 292 291 292 293 293 293 293 292 292 291 291 290 289 289 288 288 287 286 285 284 283 282 282 281 280 280 280 279 279 279 279 279 279 279 280
292 292 292 290 292 291 282 284 290 290 286 291 292 291 291 291 285 287 283 290 289 291 291 292 292 291 291 290 288 289 288 287 287 286 285 283 282 282 282 281 280 279 279 279 278 278 277 277 277 277 277 277 277 278
286 291 290 290 290 287 284 284 284 286 286 289 290 290 291 287 289 285 289 288 287 288 288 289 289 288 288 287 286 286 286 285 283 282 282 281 281 280 280 279 278 277 276 276 275 275 275 275 275 276 276 276 276 276
284 284 291 291 292 292 291 292 292 291 290 291 287 288 288 289 288 286 285 285 285 285 287 285 285 286 285 285 283 283 282 282 281 281 280 279 279 278 277 275 275 274 275 274 274 274 274 274 274 274 274 274 275 276
291 291 289 291 292 292 291 291 290 291 290 291 290 290 290 287 285 283 283 283 284 284 284 284 282 282 282 281 281 280 280 279 278 278 277 277 275 275 275 275 274 274 274 274 273 273 273 273 272 273 273 273 273 274
291 291 291 290 291 292 291 290 290 290 290 291 286 285 283 281 280 280 281 281 281 282 282 281 281 280 280 279 279 279 278 278 277 276 276 276 276 275 275 274 274 273 274 274 273 273 272 271 271 271 271 271 271 272
290 290 290 289 288 289 289 290 289 290 290 290 289 284 281 278 279 279 279 280 280 280 280 279 279 278 278 277 277 277 276 276 275 275 275 275 274 274 274 273 273 273 273 273 273 273 272 272 271 271 271 271 270 270
290 290 290 290 289 289 289 288 288 288 289 289 288 286 281 278 277 277 277 277 277 276 276 277 277 277 276 275 275 275 274 274 274 274 274 273 273 273 272 272 272 272 272 272 272 271 271 270 270 270 270 269 269 269
288 288 289 287 289 288 287 286 287 287 287 287 285 284 281 279 277 275 275 274 275 276 276 275 274 274 275 275 275 274 274 273 273 273 272 272 272 271 271 271 271 271 271 271 270 270 270 270 269 269 269 269 268 268
286 287 286 287 288 288 287 286 286 286 286 284 282 281 280 279 276 275 275 275 275 274 274 274 274 274 274 274 273 273 272 271 271 271 270 270 270 270 270 270 270 270 270 270 269 269 269 269 269 268 268 268 268 267

GFSWCAN_850_thetae_030.txt.gz
Theta_e
308 308 308 308 307 307 307 307 309 311 315 316 317 317 314 313 314 319 321 321 319 321 320 320 318 318 316 316 311 315 313 314 305 305 302 302 300 306 308 308 309 309 309 309 302 299 308 306 310 310 310 309 312 313
308 308 308 308 308 307 307 308 309 310 314 316 318 318 317 316 320 320 321 320 319 320 319 320 320 319 318 318 318 316 316 314 312 303 297 300 304 306 304 308 307 309 306 305 306 307 307 308 310 312 311 310 312 312
308 308 308 308 308 308 307 307 308 309 312 315 317 317 316 316 316 318 319 318 318 320 318 319 319 320 319 318 318 317 313 315 313 311 304 301 302 300 304 306 308 307 306 304 307 308 307 309 310 311 311 312 312 312
309 308 308 309 308 308 308 308 308 308 309 312 315 316 316 315 315 316 316 316 316 316 316 317 318 320 320 320 318 317 318 315 314 312 307 300 300 305 300 303 304 307 307 307 305 307 309 311 312 312 311 311 312 312
308 309 308 309 309 308 308 308 308 308 308 309 311 314 316 315 315 315 315 313 313 312 311 317 316 316 318 321 321 320 319 317 315 313 303 303 303 302 303 300 304 308 307 306 306 309 310 310 312 313 313 313 312 312
309 309 309 309 309 309 309 308 308 308 308 308 310 311 313 314 314 313 313 315 313 312 313 307 314 315 317 319 320 319 318 318 317 316 311 310 308 308 307 309 310 311 311 311 310 310 312 312 312 313 313 312 311 310
309 309 309 309 309 309 309 308 308 308 308 308 308 309 310 310 311 309 310 316 315 313 312 308 309 314 317 317 318 318 318 318 317 314 309 307 310 309 303 306 310 312 312 312 312 311 312 312 312 312 311 310 308 306
310 310 310 310 311 309 309 309 309 308 308 308 308 308 308 309 309 311 314 316 315 312 312 302 301 311 314 316 315 315 317 316 313 310 309 306 307 306 308 308 310 311 311 312 312 311 311 311 311 310 309 308 302 297
311 310 310 310 312 311 309 309 309 309 309 308 308 308 309 309 311 314 314 315 314 312 310 302 303 305 311 310 309 311 311 307 310 306 308 308 304 308 305 303 306 308 308 309 310 310 310 310 308 304 301 296 299 298
310 310 310 310 310 310 310 310 310 310 310 309 309 310 310 311 312 313 313 313 314 313 313 302 304 304 307 308 305 306 305 304 308 304 307 304 306 304 298 299 303 306 307 308 308 304 303 300 298 297 299 298 295 294
309 310 310 310 310 309 310 310 310 311 310 310 310 310 311 312 311 311 309 306 307 306 308 305 306 305 306 305 304 303 303 302 307 300 306 304 304 300 297 299 301 302 304 303 303 300 299 298 298 296 296 297 298 295
303 305 309 310 310 310 309 309 309 310 310 310 311 311 311 310 309 304 302 304 304 305 305 306 306 307 306 306 303 303 301 301 303 301 305 304 298 296 298 300 300 299 300 299 299 299 298 298 297 295 295 294 293 291
303 304 304 305 308 310 310 310 309 309 310 310 310 310 308 305 306 309 309 306 305 302 303 304 303 305 306 306 303 302 305 305 302 304 306 302 298 298 299 298 297 295 295 296 298 295 293 292 291 291 290 290 290 290
302 303 304 304 305 306 308 310 310 309 309 309 306 305 303 303 301 300 302 301 300 301 303 304 302 303 303 302 301 305 302 301 305 304 299 300 298 297 294 295 295 295 295 295 295 293 292 291 291 291 290 290 290 290
300 301 302 302 304 306 307 308 309 309 306 302 301 300 298 296 297 298 299 299 299 300 302 303 301 302 300 301 299 300 301 299 298 296 298 297 297 294 295 297 294 294 294 293 292 292 291 291 290 290 290 290 290 291
299 299 299 300 301 302 304 305 303 303 299 298 298 298 297 298 298 298 299 298 300 300 301 301 300 299 298 299 299 299 298 294 295 297 298 298 298 298 298 298 295 295 295 292 292 291 291 291 291 291 290 291 291 291
297 297 298 299 300 301 301 303 301 298 297 298 297 298 298 298 298 298 299 299 299 299 299 297 297 297 296 296 298 297 294 297 298 298 298 298 298 298 297 295 296 294 293 293 292 292 292 292 291 291 291 291 291 291
295 296 297 299 299 300 300 299 298 297 296 297 297 297 297 298 298 298 298 299 299 298 299 295 297 293 293 294 295 297 298 298 298 298 298 298 298 297 295 294 294 294 293 292 292 292 292 292 292 292 292 292 291 291
293 292 295 297 298 299 298 298 297 295 295 296 296 297 297 297 297 297 297 298 298 297 298 298 289 291 291 297 298 297 298 298 298 298 297 295 295 294 294 293 293 292 292 292 292 291 291 290 289 288 287 286 285 285
293 293 294 296 297 298 297 297 296 296 295 295 295 295 295 295 296 296 296 296 297 297 298 291 292 297 297 298 299 299 299 298 297 295 294 293 293 293 292 292 291 291 290 288 288 287 286 286 285 284 284 283 283 283
292 293 293 296 296 297 296 296 295 295 295 294 294 294 293 294 294 294 295 295 295 296 296 297 296 296 296 296 297 297 296 295 295 295 294 292 292 291 290 289 288 288 288 287 286 285 284 283 282 282 281 281 281 281
292 293 295 295 296 296 295 295 295 295 295 294 294 293 293 292 293 293 293 293 293 293 294 295 295 295 295 296 295 294 293 292 292 292 292 291 289 289 289 288 287 286 285 284 283 282 281 281 280 279 279 278 278 278
291 292 294 295 296 295 294 295 294 294 293 294 294 292 292 292 292 292 292 292 292 292 293 294 295 295 296 294 293 293 292 291 291 290 289 289 288 287 287 286 284 283 283 282 281 280 279 278 277 277 277 277 277 277
291 293 292 291 292 289 293 294 294 294 294 293 291 291 291 291 291 291 287 291 290 291 292 293 293 293 292 291 291 290 289 288 288 287 287 287 286 285 283 282 282 281 280 279 278 277 277 277 276 276 276 275 276 276
292 290 291 288 289 291 279 279 287 288 284 288 292 290 291 290 286 288 285 289 289 290 291 291 291 290 290 289 287 287 286 286 287 286 285 283 282 281 280 280 279 278 277 277 277 277 276 276 275 275 274 274 274 275
285 289 289 289 288 289 281 283 280 282 282 285 286 289 290 286 288 287 287 286 286 286 287 288 288 288 287 286 286 285 285 284 282 282 282 281 280 280 279 277 276 276 275 275 275 275 275 274 274 274 274 273 273 273
284 284 291 291 290 291 290 291 290 289 286 290 287 287 290 291 288 285 284 284 284 284 285 285 285 286 285 285 284 283 282 281 280 280 279 278 278 276 275 275 275 275 274 274 273 273 273 273 273 272 272 272 272 272
291 291 287 291 291 291 291 290 290 289 290 291 290 289 289 285 283 281 281 282 283 283 283 283 283 282 282 282 281 280 279 278 277 277 276 275 275 275 274 274 274 273 273 273 273 273 272 272 272 271 270 270 270 270
290 290 290 290 290 291 290 289 289 289 289 290 287 285 281 280 280 280 280 280 281 281 281 281 281 280 279 279 279 278 276 275 275 275 275 275 275 274 274 274 273 273 272 272 272 272 271 271 271 270 270 269 269 269
289 290 290 289 287 288 289 289 289 289 289 288 287 283 280 278 278 279 279 279 279 279 279 278 278 277 277 276 276 275 275 275 275 275 274 274 273 273 272 272 272 272 271 271 271 271 271 271 271 270 270 270 270 269
289 289 289 289 289 288 288 287 288 288 288 287 286 284 279 277 277 276 276 276 276 277 277 276 276 275 275 275 275 275 274 274 273 273 272 272 271 271 271 271 270 270 270 270 270 270 270 270 270 270 269 269 269 269
288 287 288 286 288 287 287 286 286 286 287 286 284 283 279 278 276 275 274 274 275 275 274 274 274 274 274 274 274 274 273 272 271 271 270 270 270 270 269 269 270 270 270 270 270 269 269 269 269 269 268 268 268 268
285 286 286 286 287 287 286 285 284 284 284 282 280 279 279 277 275 274 273 273 274 274 274 274 274 274 273 273 273 272 271 270 270 269 269 269 269 269 269 270 269 269 269 269 269 269 268 268 268 268 268 268 267 267

GFSWCAN_850_thetae_033.txt.gz
Theta_e
308 310 309 308 307 306 307 309 310 311 314 316 316 314 313 313 315 316 319 321 319 320 318 318 317 316 315 316 315 314 314 314 307 311 312 309 310 310 310 309 311 313 313 311 304 309 314 305 310 314 312 309 310 311
309 309 307 307 306 306 309 310 312 315 315 316 316 315 314 313 314 315 320 320 320 320 318 318 318 317 317 317 317 314 315 313 312 309 304 303 308 306 307 314 307 312 311 312 310 313 307 307 311 311 311 310 310 311
308 307 307 306 307 309 310 311 314 315 316 317 317 316 314 313 313 318 319 319 319 319 317 319 319 319 317 317 317 316 313 315 313 311 304 304 308 306 311 311 309 308 306 310 309 309 307 308 309 310 310 310 311 311
308 307 307 308 309 309 310 311 313 315 318 319 318 315 313 314 318 318 318 318 319 319 315 316 318 319 319 318 317 317 318 316 313 311 306 304 308 304 306 307 309 309 307 308 308 309 309 310 310 311 311 312 311 310
308 308 308 308 309 309 309 310 311 313 317 318 317 317 318 318 319 316 317 316 316 313 311 315 316 318 320 319 318 318 316 315 313 311 305 308 302 305 303 303 307 307 310 311 312 309 308 309 311 312 312 313 312 311
309 309 309 309 309 309 309 309 309 310 314 317 317 316 317 318 317 316 314 313 312 313 318 309 313 316 317 318 318 316 316 316 316 315 307 306 306 307 308 310 308 309 310 309 309 310 310 311 312 312 312 312 311 310
309 309 309 309 309 309 309 308 308 310 310 315 316 316 316 315 314 312 312 314 312 312 312 307 308 314 317 318 318 317 317 317 316 310 304 306 307 307 305 311 307 308 309 311 311 311 311 310 310 310 310 309 307 305
309 309 309 309 309 309 308 308 309 309 310 312 312 312 312 311 310 315 315 314 312 311 311 304 304 311 314 314 312 314 316 314 311 308 307 305 306 306 309 303 302 304 307 310 308 309 309 309 308 306 304 302 300 297
309 309 309 309 309 309 309 308 308 310 310 310 310 309 309 309 311 315 315 314 311 310 308 303 306 308 309 308 308 309 310 308 308 306 307 308 305 306 298 297 299 302 304 306 306 306 305 303 299 297 298 297 297 296
309 310 311 311 310 310 310 309 309 309 310 310 308 309 310 313 313 312 310 311 312 312 312 301 302 305 307 308 305 306 307 305 310 305 307 305 304 296 298 299 299 302 305 306 305 299 299 298 298 298 297 298 298 296
310 310 310 311 311 310 310 310 309 309 310 309 310 311 312 311 310 310 308 306 307 304 306 305 305 304 305 306 304 302 304 303 308 305 307 305 304 296 298 298 299 300 301 300 300 299 298 298 298 297 296 295 294 294
309 310 310 309 309 311 311 310 310 310 310 311 311 311 310 310 309 305 303 303 302 305 304 306 305 305 305 306 303 303 302 302 306 301 305 305 296 298 298 298 298 299 299 298 298 297 296 295 294 294 293 292 291 291
307 310 310 309 309 309 309 309 309 310 310 310 311 310 308 305 305 302 307 305 305 302 304 304 303 305 305 305 302 303 306 306 302 305 306 301 297 298 297 296 295 296 296 294 293 293 292 292 291 291 291 290 291 291
301 303 306 308 309 309 309 309 309 310 310 309 306 301 299 304 302 301 302 302 300 301 303 305 302 303 303 303 301 307 302 303 306 306 301 299 297 296 296 295 295 294 294 292 292 292 291 291 291 291 291 291 291 291
301 302 303 305 307 308 309 310 309 309 308 303 301 300 298 296 297 298 299 300 300 301 303 303 302 303 301 302 300 301 302 301 300 299 299 296 297 295 296 293 294 294 293 292 291 291 291 291 291 291 291 291 291 291
300 301 301 302 304 306 306 307 307 307 301 299 298 298 297 298 298 298 299 299 299 301 302 302 300 301 300 300 299 300 301 299 299 299 296 296 296 295 296 294 295 294 293 292 292 292 292 292 291 291 291 291 291 291
298 298 299 300 301 302 302 302 299 298 298 298 297 298 298 298 298 298 299 299 299 300 299 297 298 299 296 298 299 298 297 297 298 297 297 297 298 298 296 295 295 294 293 293 292 292 292 292 292 291 290 290 289 289
296 297 298 300 300 301 301 299 297 297 296 297 297 296 297 298 298 298 298 299 299 299 298 298 297 297 297 296 297 296 296 298 298 297 297 297 297 296 295 294 293 293 292 292 292 292 291 289 288 287 286 285 284 284
293 295 297 298 300 299 298 297 296 295 295 296 296 297 296 296 297 297 297 297 297 298 298 297 292 295 296 294 294 296 297 298 297 297 297 296 294 294 293 293 292 292 291 291 289 288 286 285 284 283 283 282 282 281
292 292 295 297 297 298 296 296 295 296 295 295 295 295 295 295 296 296 296 296 296 297 296 293 293 295 295 297 298 298 298 297 297 296 293 292 292 292 292 292 291 289 287 287 286 285 284 283 282 282 281 280 279 278
292 292 294 296 297 296 295 295 294 294 295 294 294 294 293 294 294 295 294 294 295 294 293 294 294 295 295 295 296 296 296 295 295 295 294 292 291 290 289 288 287 287 286 285 284 283 282 281 280 279 278 278 277 277
291 292 293 294 296 295 294 294 294 294 294 293 294 293 293 292 293 293 293 293 292 292 293 293 293 294 294 295 294 294 293 293 293 293 292 290 289 288 287 286 285 285 283 283 282 281 279 278 278 277 277 277 277 276
291 291 294 295 295 294 293 294 294 293 294 294 293 291 292 292 292 292 292 291 291 291 292 293 293 293 294 292 291 291 291 290 290 289 288 288 287 286 285 284 283 282 282 281 279 278 277 277 276 276 276 276 275 275
291 291 292 291 291 289 293 291 293 293 294 293 291 289 291 291 291 290 290 290 289 290 291 291 291 291 290 290 290 290 289 288 287 287 286 285 285 284 283 282 281 280 279 278 277 276 276 276 275 275 275 274 274 273
291 289 291 288 288 289 283 283 286 290 284 286 288 286 289 290 286 288 286 287 286 288 288 288 289 289 288 287 286 286 285 285 285 285 285 283 282 281 280 279 278 277 277 276 276 276 275 275 274 274 273 273 272 272
286 287 288 284 287 285 284 282 285 283 281 285 286 288 289 287 288 287 286 284 284 284 285 286 287 287 286 285 284 284 284 284 283 282 281 280 280 279 277 277 276 275 275 275 275 274 274 274 273 273 272 272 272 271
285 287 289 289 289 289 288 288 289 287 283 285 287 286 288 289 286 284 282 282 283 283 284 284 285 285 284 283 283 282 282 281 280 280 279 278 276 276 275 275 274 274 274 273 273 273 272 272 272 271 271 271 270 270
288 289 285 290 290 290 288 287 284 287 287 289 289 286 288 286 284 279 280 280 281 282 282 282 282 282 282 281 281 280 279 278 277 276 276 275 275 274 274 273 273 273 272 272 272 271 271 271 271 271 270 270 270 270
289 289 290 289 289 289 288 288 288 288 288 289 287 284 280 279 278 279 279 279 280 280 280 280 280 279 279 279 278 277 276 276 275 275 274 274 273 273 272 272 272 271 271 271 270 270 270 270 270 270 269 269 269 269
289 289 289 288 284 286 287 288 288 288 288 287 285 281 279 277 277 278 278 278 278 278 278 278 277 277 277 276 275 275 275 274 274 273 273 272 272 271 271 270 270 270 270 270 270 270 270 270 269 269 269 269 269 269
288 289 288 288 288 287 287 287 287 287 287 285 284 282 278 276 275 276 276 276 276 276 276 276 275 274 274 275 274 274 273 273 272 272 271 271 270 270 269 269 269 270 270 269 269 269 269 269 269 269 269 268 268 268
287 286 286 281 287 286 286 286 286 285 286 284 281 280 277 276 275 274 273 274 275 274 274 274 274 274 274 273 273 272 272 271 271 270 270 270 269 269 269 269 269 269 269 269 269 268 268 268 268 268 268 267 267 267
285 285 285 285 285 286 285 284 282 282 282 280 278 278 277 276 273 273 272 273 273 273 273 273 273 273 273 272 272 271 271 270 270 270 270 270 269 269 269 269 269 269 269 268 268 268 268 268 267 267 267 267 266 266

GFSWCAN_850_thetae_036.txt.gz
Theta_e
300 301 303 306 308 309 309 308 307 308 309 311 312 313 313 312 315 319 320 320 320 320 318 318 317 319 318 321 325 317 318 317 318 326 327 322 325 316 316 315 317 319 321 321 315 323 323 310 313 317 316 314 312 314
306 306 309 310 309 307 307 307 308 310 312 312 314 314 313 312 316 318 320 320 319 319 319 318 317 317 318 319 320 316 322 319 320 323 320 317 319 312 318 322 313 318 318 319 317 318 313 311 314 314 313 313 313 313
308 308 307 307 306 307 308 310 311 312 314 315 315 314 312 313 317 318 318 319 319 318 318 320 319 317 316 317 317 319 316 318 316 317 317 317 319 317 319 319 317 314 311 315 314 314 313 312 312 311 311 311 312 312
307 306 306 308 309 311 312 314 315 315 316 316 315 313 313 314 317 318 318 319 319 319 318 318 317 319 318 317 317 317 318 316 314 313 316 313 321 311 317 315 317 314 312 314 314 314 312 312 311 311 312 313 312 312
308 309 310 311 312 313 314 315 317 318 317 317 316 314 313 314 317 318 317 318 318 316 315 318 316 317 319 317 318 316 316 316 314 315 314 321 311 313 309 312 315 311 314 316 316 311 311 312 312 312 312 312 312 312
309 310 310 311 311 312 314 317 317 318 318 317 316 315 314 315 317 316 316 316 313 318 318 318 314 315 315 315 315 314 314 314 316 317 311 310 308 314 315 318 311 310 311 311 313 312 312 312 311 310 310 307 306 305
310 310 310 311 311 311 313 315 317 317 317 318 315 315 316 316 316 315 315 315 314 313 315 313 316 315 316 317 317 317 317 316 316 311 308 310 310 313 311 319 307 306 307 309 309 311 312 308 306 303 302 300 301 299
309 309 309 309 310 311 313 315 316 317 316 316 316 316 316 317 315 314 313 312 311 311 311 314 313 315 314 312 311 313 314 314 310 308 308 309 308 310 313 303 303 304 305 308 304 307 305 302 301 300 298 298 298 297
309 309 309 309 309 310 311 312 312 313 313 313 313 313 313 313 314 313 312 311 310 310 313 307 317 316 309 308 309 310 311 311 309 309 309 312 308 309 300 300 301 301 302 303 302 302 301 299 297 296 297 298 297 296
309 309 309 309 309 309 310 310 309 311 311 310 310 309 310 313 313 311 310 310 310 311 310 305 305 308 309 308 306 309 307 310 312 309 307 310 301 298 298 299 300 300 301 301 302 298 297 297 297 298 297 297 295 295
310 311 310 310 310 309 309 310 309 311 310 309 310 311 312 310 310 310 308 310 310 310 306 305 307 308 306 309 308 304 309 307 312 310 312 309 304 298 298 298 299 299 299 300 300 298 298 298 298 296 295 294 294 294
309 309 310 310 310 310 309 309 309 309 309 311 311 310 310 310 309 308 307 306 309 309 304 306 305 305 304 305 306 305 306 305 308 305 310 308 300 298 298 298 298 298 298 297 297 297 296 296 296 295 293 291 291 290
310 310 309 310 310 310 310 309 310 310 310 310 310 310 309 306 311 315 312 310 309 303 303 304 305 305 304 305 304 306 307 309 305 308 308 303 299 298 297 297 297 296 295 295 294 292 291 291 291 291 291 291 291 291
306 309 308 309 309 309 309 310 310 310 310 310 307 307 307 309 307 305 307 306 300 302 304 305 303 305 304 305 303 310 304 305 308 308 306 300 298 297 297 297 296 294 292 292 292 291 291 291 291 291 291 291 291 291
302 305 307 309 309 309 309 309 309 310 307 302 302 304 302 297 298 298 299 300 300 302 304 304 303 304 303 304 303 305 306 308 307 306 302 298 297 297 295 294 293 293 292 291 291 291 291 291 291 291 291 291 291 291
302 302 304 305 306 307 308 309 309 308 301 299 298 300 298 299 299 299 299 298 300 301 303 303 303 307 304 305 306 307 308 307 303 300 297 297 296 296 294 294 295 293 292 292 292 292 292 292 292 291 291 289 287 286
301 301 301 303 302 302 303 305 304 299 298 298 297 298 298 298 298 298 299 299 300 301 302 302 306 304 301 304 304 303 304 302 299 297 296 296 296 296 295 295 294 293 293 292 292 292 291 290 288 287 287 286 285 284
299 300 301 300 301 301 301 298 297 297 296 296 298 296 296 297 297 298 298 299 299 299 300 301 300 303 304 304 303 299 297 297 297 297 297 296 297 296 295 294 293 293 292 292 291 289 287 286 286 285 284 284 283 282
296 298 300 300 300 299 298 296 296 296 296 295 296 296 296 296 296 296 297 297 298 298 299 299 302 302 302 300 298 297 297 297 296 296 296 295 295 295 294 293 292 292 290 288 287 286 285 285 284 283 282 281 280 279
293 296 297 298 297 297 296 295 296 296 296 295 295 295 295 295 296 295 296 296 296 297 298 299 298 295 296 294 295 297 297 297 295 292 291 291 291 291 291 291 290 288 287 286 286 285 283 282 281 280 279 278 278 278
292 293 295 296 296 295 294 294 294 294 294 294 294 294 294 294 294 294 294 294 296 293 295 293 291 291 293 294 296 296 296 295 294 294 291 289 289 289 288 287 286 286 285 284 283 282 281 279 278 278 278 277 277 276
291 292 293 294 295 294 294 294 294 294 294 294 294 293 294 294 294 293 293 295 293 292 291 292 291 291 292 293 293 294 294 294 293 293 292 290 288 287 286 286 285 284 283 282 280 279 278 278 277 277 277 276 276 275
291 292 293 294 294 293 292 294 294 293 295 294 294 294 293 294 292 292 293 292 291 290 290 291 292 292 292 291 290 290 290 291 291 290 288 288 287 285 285 284 283 281 280 279 278 277 277 276 276 276 275 275 274 274
291 291 292 291 291 291 291 291 292 293 294 294 295 294 293 293 291 292 293 291 288 288 288 288 289 289 288 288 288 288 288 288 288 287 285 285 285 284 282 281 280 279 278 277 276 276 276 276 275 274 274 273 273 273
291 289 290 290 289 290 290 290 291 293 293 292 294 293 292 290 291 290 290 288 286 285 286 287 287 287 287 285 285 285 285 285 285 285 284 283 282 280 280 278 277 277 277 276 276 275 275 274 274 273 272 272 272 272
289 288 290 288 290 291 290 292 291 291 291 292 292 289 290 292 291 289 286 284 283 283 284 284 285 285 284 284 284 284 284 283 283 282 281 280 279 278 277 276 275 275 275 275 274 274 273 272 272 272 272 271 271 271
290 289 288 288 289 290 291 289 289 291 292 292 292 292 292 292 289 285 282 281 281 282 283 284 284 284 283 282 282 282 281 281 280 280 279 278 276 276 276 275 274 274 273 273 272 272 271 271 271 271 271 271 269 269
289 289 289 288 290 289 291 291 291 292 292 290 291 291 291 289 286 280 279 280 281 281 281 282 282 282 281 281 280 280 279 278 277 276 276 276 275 275 274 273 272 272 271 271 271 270 270 270 270 270 270 270 269 269
289 288 288 287 289 289 289 290 290 289 287 289 290 287 282 277 278 277 278 279 279 279 279 279 279 279 279 278 277 276 275 275 275 274 274 273 272 272 272 271 271 270 270 270 270 270 270 270 270 269 269 269 269 269
288 288 289 287 288 289 288 287 288 287 287 286 284 280 277 276 277 277 277 278 278 278 277 277 277 277 276 275 275 274 274 274 273 273 272 272 271 271 270 270 270 270 270 270 270 270 269 269 269 269 268 268 268 268
288 288 288 288 288 287 286 286 286 286 285 283 282 279 276 274 275 275 275 276 276 276 276 275 274 274 274 274 273 273 273 273 272 272 271 271 270 270 270 269 270 270 269 269 269 269 269 269 268 268 268 268 267 267
286 284 286 287 287 285 285 285 285 284 283 281 278 278 276 275 274 273 273 274 274 273 273 273 273 273 273 273 272 272 272 271 271 271 270 270 270 270 270 269 269 269 269 269 268 268 268 268 267 267 267 267 267 266
284 284 283 284 284 285 283 282 281 281 280 279 276 276 275 275 273 272 272 272 273 272 272 272 272 273 272 272 272 271 271 270 270 270 270 270 270 270 269 269 269 268 268 268 268 267 267 267 267 267 266 266 266 265

GFSWCAN_850_thetae_039.txt.gz
Theta_e
297 296 295 296 296 297 298 300 301 303 304 308 310 309 310 311 313 314 323 321 321 322 321 321 319 319 323 322 327 321 322 321 322 326 330 327 328 322 321 319 321 322 325 323 324 324 323 313 315 317 318 314 315 315
296 297 297 297 299 299 301 303 307 309 310 309 309 309 311 312 314 316 323 320 321 322 321 321 320 321 322 322 323 320 323 322 323 326 327 327 323 317 325 323 318 321 321 322 320 320 315 314 314 314 314 314 314 314
299 299 299 300 301 302 305 309 309 308 308 309 310 311 312 313 315 318 323 319 319 323 320 321 321 317 319 322 322 323 324 323 323 324 324 326 323 323 322 324 321 318 316 318 316 316 315 314 314 313 314 314 314 314
302 304 306 307 307 307 307 308 308 309 310 311 312 313 313 313 315 317 321 320 321 322 323 321 318 318 317 317 319 323 322 320 320 322 324 317 322 319 323 321 319 318 316 316 317 315 315 314 314 315 314 314 315 315
306 307 307 308 309 310 310 310 311 312 312 313 313 313 313 313 314 317 319 319 319 322 321 320 318 317 318 318 318 317 319 319 320 321 318 325 318 319 317 318 320 315 317 319 319 315 315 315 315 313 314 313 312 313
311 312 312 313 314 314 315 315 315 315 315 315 314 313 312 313 316 317 317 317 317 320 321 323 318 317 318 318 319 319 321 321 322 320 319 317 314 320 320 321 315 313 313 313 315 314 314 313 309 307 306 306 305 304
311 312 313 315 316 316 316 316 316 316 316 315 314 313 313 316 316 319 317 318 315 317 319 320 319 316 316 318 316 319 320 319 321 319 314 318 316 318 315 322 311 310 310 312 310 312 313 307 306 305 303 300 300 299
310 312 314 316 316 316 317 317 317 317 316 315 314 313 313 316 314 313 316 315 315 313 319 317 316 318 316 317 315 315 319 319 315 313 313 313 313 315 320 309 308 308 310 307 307 307 306 305 303 300 300 299 298 297
311 311 311 313 314 314 315 317 317 316 316 315 314 314 316 316 315 312 313 314 312 314 317 312 316 315 312 311 312 314 317 315 312 313 313 314 312 316 308 307 306 305 306 305 304 303 302 301 300 299 298 298 298 297
310 310 309 310 313 313 313 313 313 314 314 314 315 315 314 314 312 311 311 315 315 311 310 309 311 314 313 312 310 312 309 314 314 312 311 314 308 303 302 302 302 302 304 303 302 301 300 300 299 299 299 298 298 298
309 309 308 308 311 311 311 312 309 310 311 310 311 312 312 312 312 310 311 315 315 313 308 308 311 312 309 312 308 309 311 312 313 313 314 312 309 302 300 301 301 302 303 303 302 301 300 299 298 297 298 297 296 294
310 310 309 309 309 310 309 311 310 309 309 311 312 310 310 311 311 311 310 309 312 311 306 308 307 308 307 310 309 309 309 308 312 309 314 313 303 299 300 300 300 300 300 300 299 299 298 298 297 295 294 293 291 291
310 310 310 310 310 310 310 309 310 309 310 310 311 310 312 308 314 313 310 310 310 305 304 306 307 307 307 308 306 308 312 313 308 310 311 306 300 299 299 300 299 298 298 297 296 295 294 293 291 291 291 291 292 291
309 309 309 310 310 311 311 310 310 310 311 309 309 308 308 312 307 306 308 307 300 302 305 305 304 307 306 308 307 310 305 307 309 310 309 302 299 299 299 299 298 295 294 294 294 293 291 291 291 291 290 290 290 290
308 308 309 308 308 309 310 310 310 310 309 303 304 307 303 298 298 298 299 300 301 302 305 306 306 307 306 307 307 306 307 310 310 310 304 300 299 300 299 298 295 293 292 294 293 291 291 291 291 291 291 291 290 288
305 307 307 307 308 309 309 309 309 307 300 299 299 301 299 301 299 299 299 299 301 303 305 306 308 311 307 307 307 312 312 311 306 303 299 298 298 297 296 296 295 294 294 294 293 292 291 291 291 291 289 287 286 286
302 303 303 303 304 305 308 309 305 300 298 299 298 298 299 298 298 298 299 299 301 302 304 305 311 307 304 307 307 306 307 304 298 297 297 298 297 297 296 295 294 294 294 293 292 291 291 290 288 287 286 285 284 283
301 300 300 300 301 302 301 301 299 298 298 297 299 296 296 297 297 297 298 299 300 300 302 304 303 305 308 307 306 301 299 298 296 297 297 297 296 295 295 295 294 293 292 291 291 289 287 286 286 285 283 282 282 282
299 300 300 300 299 299 297 297 298 298 296 296 296 296 296 296 296 296 297 298 298 299 300 302 305 305 304 300 299 298 297 297 296 295 294 296 296 296 294 293 291 290 289 288 287 286 285 284 283 282 281 280 279 280
296 297 298 298 297 297 295 296 297 298 298 295 295 295 295 295 295 295 296 297 299 300 298 299 297 294 295 294 297 298 298 297 295 295 293 292 292 292 291 291 289 287 286 286 285 284 283 283 281 280 279 278 278 277
294 295 296 296 295 295 295 296 296 296 296 295 294 296 295 295 295 295 296 297 296 295 296 293 292 291 292 293 295 297 297 296 296 295 294 291 290 289 287 286 286 285 285 284 283 282 281 280 278 278 278 277 276 276
292 293 293 293 294 294 295 294 296 296 296 295 295 295 296 296 296 294 295 295 293 292 291 293 292 292 291 291 291 293 294 294 293 292 291 289 287 287 286 285 285 283 283 282 280 279 278 278 278 277 276 276 275 275
291 292 293 294 293 294 293 295 295 295 296 295 295 295 295 295 294 294 294 293 291 289 289 289 289 289 288 287 288 288 289 289 289 287 287 286 285 284 283 284 283 281 280 279 278 278 277 277 276 275 274 274 274 273
291 291 291 292 294 293 292 293 294 294 295 296 296 295 294 294 293 293 294 290 288 288 289 288 288 287 287 286 285 285 285 285 285 284 284 284 282 282 282 282 281 279 278 277 277 276 275 275 274 273 273 273 272 271
292 290 292 293 292 294 294 294 294 295 294 295 295 295 293 293 293 292 292 289 287 286 286 286 286 286 285 284 284 284 284 283 283 284 283 282 281 280 279 279 278 277 277 276 275 275 274 274 273 272 272 271 270 270
292 290 292 292 292 293 294 294 293 293 294 294 293 292 292 294 293 291 288 286 284 283 282 283 285 284 283 282 281 283 282 282 281 282 281 280 279 278 277 277 276 275 275 275 274 274 273 273 272 271 270 269 269 269
292 291 291 289 290 291 293 292 292 293 293 294 293 293 294 294 291 287 283 281 281 280 281 282 281 280 279 280 281 281 281 281 281 280 279 278 277 276 276 275 274 274 273 273 273 272 271 271 270 269 268 269 269 268
290 290 291 290 291 291 292 292 293 292 292 291 292 292 292 290 288 282 280 278 279 280 280 281 281 281 280 280 279 278 278 278 276 276 276 276 275 275 275 274 274 273 272 272 271 271 271 270 269 268 268 267 267 267
290 289 290 289 291 291 290 291 291 289 288 289 292 289 285 279 277 278 276 278 278 278 277 276 277 278 278 278 277 276 275 275 275 274 274 275 274 273 273 272 272 271 271 271 270 270 270 270 270 269 269 269 267 266
289 289 291 290 290 291 288 288 288 286 284 284 283 281 279 275 274 275 276 276 276 277 277 277 276 275 274 275 274 274 274 274 274 273 273 272 272 271 271 271 270 269 270 269 269 269 269 268 268 266 265 265 265 265
289 290 290 290 289 287 285 286 286 285 284 282 281 282 279 275 274 275 275 275 275 274 274 274 273 273 273 273 273 273 273 274 273 272 272 271 271 271 269 269 269 269 269 269 268 267 267 268 266 265 265 265 265 265
287 287 288 289 289 285 285 286 286 286 285 284 281 279 278 279 277 273 273 273 272 272 273 272 272 272 273 273 273 273 272 272 271 271 271 271 271 270 270 269 269 268 268 268 268 266 265 266 266 265 265 265 265 266
286 286 286 286 287 287 285 284 284 284 283 282 279 278 277 278 275 272 272 272 273 272 272 272 273 273 273 272 272 271 271 270 270 270 270 270 270 270 269 269 268 268 268 267 267 266 265 265 266 266 266 266 265 265

GFSWCAN_850_thetae_042.txt.gz
Theta_e
299 298 298 297 297 296 295 295 295 295 295 295 297 299 300 303 304 304 312 315 312 321 321 320 319 320 322 318 322 323 325 324 330 330 334 332 328 327 325 322 323 323 327 324 327 324 323 315 315 318 319 315 315 315
299 298 298 297 296 295 295 295 295 296 296 298 300 300 303 306 308 307 308 317 322 319 324 319 321 322 322 322 324 322 324 324 325 329 329 333 322 318 326 327 320 324 324 327 324 324 317 314 314 314 314 314 315 315
299 298 297 295 295 295 296 297 297 298 299 301 302 302 307 308 309 310 310 317 322 322 321 321 323 320 322 322 324 324 325 323 323 325 328 329 320 328 322 329 326 320 318 322 319 316 316 315 315 316 315 315 315 315
297 297 296 296 296 297 297 298 300 301 301 302 306 308 309 309 310 310 310 317 324 322 321 322 321 319 319 322 323 325 325 324 325 324 328 317 321 323 329 326 326 320 318 317 318 317 316 316 316 315 315 315 314 315
298 297 297 298 298 299 300 300 305 304 305 308 308 309 309 309 311 312 315 316 323 323 320 320 319 319 318 320 320 323 323 323 324 323 314 328 321 324 322 323 327 317 318 323 323 317 317 315 312 311 311 309 309 309
305 305 304 303 303 304 307 307 307 308 308 309 310 310 311 312 312 313 316 316 320 322 321 321 318 320 320 321 321 322 322 322 323 324 322 320 318 323 321 326 318 316 315 315 317 315 315 310 308 306 305 305 304 304
308 308 308 308 307 308 308 308 309 310 311 312 312 312 313 313 314 315 318 316 318 321 319 318 318 318 320 320 320 322 323 323 323 321 319 320 317 321 317 326 315 312 312 313 312 313 310 310 306 303 302 301 302 301
312 313 314 315 315 314 313 313 312 313 313 313 314 313 313 313 314 315 315 315 315 318 320 317 313 318 318 320 317 319 322 320 317 315 315 317 316 319 323 314 312 310 311 309 309 309 307 305 303 302 301 299 298 298
311 311 315 316 316 316 316 315 315 315 315 315 314 313 314 315 317 315 313 314 315 312 318 311 317 317 315 314 314 315 318 315 314 315 315 316 314 317 315 311 309 309 309 307 305 305 304 303 301 300 300 299 298 298
311 313 314 312 315 316 317 317 316 315 315 314 313 315 316 315 312 313 312 312 312 314 312 311 314 316 314 313 312 312 311 315 317 312 312 315 309 306 305 305 305 306 306 305 303 303 302 301 300 300 299 298 298 297
310 309 310 311 311 311 314 314 314 314 314 315 314 313 313 312 313 312 312 315 313 314 309 311 313 314 312 313 311 311 312 314 315 314 314 312 311 305 303 303 303 305 304 304 303 302 301 299 299 298 298 296 294 292
309 309 309 309 311 310 310 313 314 314 314 313 312 311 311 311 311 310 308 310 313 312 306 309 310 309 309 312 310 311 308 310 313 311 315 314 305 302 302 303 303 302 302 301 300 299 299 298 297 296 295 292 291 291
310 310 310 310 309 311 310 309 310 310 311 312 311 310 312 308 313 315 311 311 308 305 305 308 307 307 308 308 307 308 309 312 310 312 312 308 301 301 301 301 301 300 299 299 298 296 295 294 294 292 291 292 293 290
309 310 310 310 310 310 310 310 310 310 311 310 309 308 310 308 306 305 306 305 301 304 307 306 306 307 306 306 308 309 307 307 310 311 311 302 300 300 300 300 299 297 296 295 295 293 291 291 291 290 290 290 290 290
308 308 308 310 310 310 310 309 310 310 309 304 304 305 303 298 298 299 299 300 302 304 306 306 307 307 306 307 308 306 308 310 310 311 305 300 300 300 299 298 296 294 294 294 292 291 291 291 291 290 290 290 288 286
307 308 308 308 309 309 310 310 310 310 301 299 299 301 299 301 300 299 300 299 301 303 306 307 309 308 307 307 308 311 311 312 307 302 300 299 300 299 298 295 293 294 295 294 292 291 291 291 291 290 288 287 286 286
306 304 303 303 308 309 309 310 305 300 299 299 298 298 299 298 297 297 298 299 302 302 305 307 310 307 305 308 307 305 306 303 299 299 299 299 298 297 296 295 295 295 294 293 292 291 291 290 287 287 286 286 283 283
301 300 302 302 304 307 307 303 299 299 298 297 298 297 296 297 297 297 298 300 301 301 302 304 304 306 308 308 305 300 297 297 297 298 298 297 297 296 296 295 295 294 293 291 290 289 287 287 287 285 284 283 282 282
300 300 300 299 299 299 298 298 299 298 297 297 297 297 296 296 296 297 299 299 300 300 301 302 303 303 301 298 298 297 297 296 296 296 297 297 296 296 295 294 294 292 290 289 288 287 286 285 284 283 282 281 280 280
297 297 298 298 297 297 297 297 298 298 298 296 296 296 296 296 296 297 298 298 298 298 297 297 295 293 294 295 298 297 297 296 295 294 294 295 295 294 293 292 290 288 288 287 286 285 284 284 282 281 280 279 279 278
294 295 295 295 296 296 297 298 297 297 297 296 296 297 297 296 296 296 296 296 295 294 295 293 292 292 293 295 297 297 296 297 296 295 293 292 291 291 290 288 288 287 287 286 285 283 282 281 280 279 278 278 277 276
292 293 293 294 294 295 296 296 297 296 296 296 296 296 297 297 296 295 295 294 292 291 291 291 292 291 291 291 292 293 294 295 295 294 292 290 289 288 287 286 286 285 284 282 281 281 280 279 278 278 277 276 275 275
291 291 292 293 294 294 294 295 295 296 297 296 296 296 296 296 294 295 294 292 290 289 289 289 288 288 288 288 289 289 290 290 290 289 289 288 287 286 285 284 283 282 281 280 279 278 278 277 277 276 275 274 274 274
291 292 292 293 294 294 293 294 295 295 295 297 296 295 294 294 294 295 293 290 288 288 288 289 289 288 287 287 286 286 286 286 285 285 285 284 283 282 281 282 282 280 278 277 277 277 276 276 275 274 273 272 272 272
292 291 293 294 294 295 295 294 295 295 295 296 296 295 294 294 294 293 292 289 286 285 285 287 286 286 286 283 283 283 284 283 283 283 282 282 282 281 280 279 278 278 277 276 276 275 274 274 273 272 272 271 271 271
292 291 292 292 292 294 294 294 293 294 295 295 293 292 293 295 293 291 288 285 283 281 281 283 285 283 281 281 280 282 282 281 281 282 281 281 280 279 278 278 278 277 276 275 275 274 272 272 271 271 270 270 270 270
292 292 291 291 292 293 293 293 293 294 294 294 294 294 295 295 291 287 283 281 281 279 281 281 280 280 279 278 280 280 281 280 281 280 279 278 277 276 276 276 275 275 273 273 273 273 272 271 270 269 269 269 269 269
290 290 291 292 292 292 293 293 293 293 292 291 294 292 291 289 285 282 280 279 279 279 279 280 280 280 279 278 277 277 277 277 277 276 277 277 276 276 275 274 274 273 272 271 271 270 270 269 269 268 267 267 267 267
290 290 292 290 291 290 290 291 291 289 287 289 292 288 284 279 277 278 278 278 279 279 278 277 277 277 276 276 276 276 275 276 275 275 275 275 275 273 273 272 271 270 269 269 268 267 267 268 268 267 268 267 267 266
290 290 291 291 291 291 288 288 287 285 285 285 283 280 278 276 275 276 276 276 276 276 276 276 275 275 275 275 274 274 274 274 274 273 272 272 272 271 271 269 269 269 268 268 267 267 267 266 267 266 267 267 266 266
289 290 291 290 290 287 286 286 286 285 284 283 282 281 278 275 274 275 275 274 274 275 275 274 273 273 272 273 273 273 273 273 272 272 272 271 271 270 269 269 268 268 267 267 266 266 265 265 265 265 265 266 265 265
288 287 289 290 289 286 286 286 286 287 286 284 282 280 279 280 277 273 273 274 273 272 272 272 272 271 273 273 272 272 272 271 271 271 271 271 271 270 270 270 269 268 266 265 265 265 265 265 265 265 264 264 264 265
288 287 287 287 288 288 286 286 286 285 284 282 280 280 278 277 275 272 271 272 272 271 271 272 273 273 273 273 272 271 270 270 270 270 270 270 270 269 269 269 268 268 267 267 267 265 264 265 265 264 264 265 264 265

GFSWCAN_850_thetae_048.txt.gz
Theta_e
296 295 294 294 295 295 295 295 295 295 295 295 295 296 297 299 302 302 302 303 303 304 308 314 317 315 314 315 316 319 320 318 315 314 316 313 309 314 315 316 313 313 312 308 309 308 313 315 313 312 310 313 314 314
296 295 295 295 295 295 295 295 295 295 296 296 298 300 300 302 302 301 302 301 302 305 309 311 315 315 317 315 319 321 319 319 320 318 314 312 315 308 313 316 316 316 312 312 313 312 313 314 314 314 314 314 314 314
296 295 295 295 295 295 296 296 296 297 298 298 299 300 301 301 301 301 301 301 302 302 306 310 314 320 319 318 319 320 319 321 322 321 317 315 314 309 313 310 315 316 317 316 313 314 314 314 314 315 315 315 314 314
296 296 296 296 296 296 295 297 299 298 298 298 297 300 298 299 300 300 299 302 303 308 307 310 316 320 320 321 321 321 320 320 321 318 314 310 311 314 309 314 313 314 314 313 314 313 313 312 311 312 312 312 313 312
298 297 297 297 296 295 295 296 298 297 296 295 295 296 296 297 299 299 299 302 305 307 309 311 316 319 320 320 320 320 319 320 324 312 307 313 314 313 308 309 309 313 312 310 311 314 311 309 308 310 311 309 308 309
298 298 297 296 296 296 296 297 298 298 296 295 295 295 296 299 299 300 302 302 304 308 309 309 312 320 320 320 318 323 320 322 321 319 312 316 318 312 308 307 313 314 316 315 312 313 310 307 307 307 309 306 305 306
297 297 297 296 296 295 295 295 296 296 295 295 295 296 298 299 299 302 304 306 303 306 308 309 311 318 319 320 320 322 321 321 320 317 315 312 316 312 304 309 312 312 314 314 313 310 305 306 304 304 305 304 304 301
297 297 297 297 297 296 296 296 296 296 296 297 298 299 300 300 301 303 309 312 310 307 306 310 312 313 318 316 317 320 318 315 314 314 315 305 313 307 308 310 310 310 310 309 309 311 309 305 303 302 302 300 298 297
298 298 298 297 297 297 297 296 297 296 296 298 302 303 304 303 306 305 309 311 309 309 310 306 311 314 314 313 315 315 313 309 312 307 308 310 305 306 309 309 307 309 310 305 307 307 304 303 300 299 298 297 297 296
307 303 300 299 298 300 300 301 301 301 302 301 303 306 307 306 305 306 306 309 311 311 310 306 311 311 312 310 307 309 309 307 310 309 311 305 305 305 308 309 308 308 308 306 302 300 300 299 298 297 297 297 297 296
312 310 308 307 307 307 306 305 304 303 303 306 308 309 308 309 309 308 309 307 308 303 307 310 311 310 311 307 306 308 306 301 309 309 308 308 306 304 306 306 306 306 306 305 305 302 302 300 298 298 297 297 295 292
313 313 312 310 310 309 308 308 308 306 309 310 311 312 311 310 307 305 304 303 304 306 305 306 308 310 310 309 305 306 306 301 308 307 309 308 304 304 305 305 305 304 304 303 302 300 299 299 298 297 296 293 291 290
311 313 314 313 313 312 311 311 312 313 311 311 311 310 309 304 305 300 304 306 305 302 306 307 305 308 307 307 304 305 303 304 304 306 303 304 302 303 303 303 303 303 303 301 300 299 299 297 297 296 291 290 290 289
310 310 312 313 314 313 312 312 312 312 311 309 304 303 303 303 301 301 302 302 301 303 306 306 305 304 305 304 302 308 305 306 304 305 304 302 302 301 301 301 302 300 301 299 298 297 297 296 293 291 291 290 289 288
309 310 310 309 309 309 311 312 311 310 307 301 300 302 299 298 299 299 300 301 303 305 306 305 304 305 303 304 303 303 305 307 301 302 302 301 300 299 298 299 299 298 298 297 296 296 293 291 292 291 289 288 287 286
309 310 309 309 310 310 310 310 311 308 300 299 297 300 300 300 299 298 299 300 303 305 306 304 302 303 304 304 305 305 303 306 303 300 300 300 298 298 297 297 297 297 296 293 291 291 291 290 290 289 287 286 285 285
309 307 308 309 309 310 310 310 306 298 297 296 297 296 297 297 297 297 298 300 302 303 303 300 304 304 301 305 303 301 301 299 299 299 300 300 297 296 296 296 295 293 292 292 292 291 290 289 288 287 286 284 284 284
298 301 307 307 307 309 307 301 299 297 296 296 296 296 296 296 296 296 298 300 302 301 301 301 302 299 298 301 301 298 296 297 298 297 297 297 296 296 295 294 294 293 292 292 292 291 290 287 286 285 284 284 283 282
296 296 298 307 308 304 299 298 297 296 296 296 296 296 296 295 294 295 297 298 298 298 297 295 294 295 295 295 296 296 296 295 295 295 295 296 296 295 295 294 294 292 291 291 290 288 286 286 285 284 283 281 281 280
294 296 297 298 303 299 297 297 297 296 296 296 296 295 295 294 292 292 293 293 293 293 293 293 291 290 291 292 295 295 295 295 295 294 294 294 294 294 294 294 292 291 290 288 287 286 285 284 283 283 281 280 279 279
294 294 296 298 297 297 297 297 296 296 296 296 296 296 295 292 290 290 290 291 290 291 291 289 288 288 290 294 295 295 295 296 294 294 293 292 292 293 291 290 290 288 287 286 285 283 283 283 282 280 279 278 278 277
292 293 294 295 295 295 295 296 296 296 296 296 296 296 295 295 293 290 289 289 289 288 288 287 287 288 289 289 291 293 293 294 293 293 292 291 289 288 288 287 287 286 285 284 283 283 282 281 279 278 278 277 277 276
292 292 292 293 293 293 293 294 295 296 293 295 295 294 293 293 294 290 288 286 284 284 286 286 286 287 287 288 289 289 290 290 290 289 289 288 287 286 286 285 284 284 283 281 281 280 279 278 278 277 276 276 275 274
292 292 293 294 293 290 293 294 295 294 294 290 290 289 291 293 290 288 286 283 281 283 284 284 285 285 285 285 285 285 285 286 286 285 284 285 284 283 283 282 281 281 280 279 279 278 277 276 276 275 274 274 273 273
291 289 291 285 291 291 285 290 286 286 286 286 286 287 288 292 286 285 284 282 280 281 281 282 282 282 281 281 282 282 282 283 283 283 281 281 281 281 280 280 279 279 278 277 276 275 275 274 274 273 273 272 272 271
289 290 289 290 291 289 287 290 285 290 283 282 289 292 292 281 280 282 282 280 279 279 280 280 280 280 280 280 280 280 280 280 281 281 279 279 279 279 278 278 277 276 275 275 274 274 273 273 272 272 271 270 270 269
286 287 291 291 292 292 289 292 290 284 283 287 284 280 285 278 279 281 280 279 278 278 279 279 279 279 278 278 278 278 277 278 278 278 277 276 276 275 275 274 274 273 273 273 273 272 272 271 271 270 270 269 268 268
290 291 288 290 289 289 282 282 280 282 280 286 285 278 276 276 278 279 278 278 278 278 277 277 277 277 277 277 277 277 276 276 276 276 276 276 275 275 274 273 272 272 271 271 270 270 269 269 268 268 267 267 267 267
289 290 290 288 288 287 286 285 285 284 284 285 277 277 277 275 275 276 277 277 277 277 277 276 275 275 275 274 274 274 275 274 274 274 273 273 273 272 272 271 271 270 270 269 269 268 267 267 266 266 266 266 265 265
288 289 289 287 281 282 286 284 282 283 281 280 276 274 274 274 274 275 276 276 276 275 275 274 274 274 275 274 274 274 274 273 273 272 271 271 271 271 271 270 270 269 269 269 268 268 267 266 266 266 265 265 264 264
287 289 289 286 284 285 284 283 282 281 281 278 277 275 273 273 273 273 273 273 274 274 274 273 273 273 273 273 273 273 273 272 271 271 270 270 269 269 269 269 269 268 268 268 267 267 267 266 266 265 265 264 264 264
287 287 287 280 285 284 285 285 284 282 281 279 277 276 275 274 272 272 271 272 272 273 272 272 273 273 272 272 272 271 270 270 269 269 269 269 269 268 268 268 267 267 267 267 267 266 266 266 265 265 264 263 263 263
287 285 285 285 285 285 284 285 284 281 280 279 278 276 275 273 272 271 271 272 272 272 272 272 272 272 272 271 270 269 269 269 268 268 268 268 268 268 267 267 267 266 266 266 265 265 264 264 264 264 263 263 263 263

GFSWCAN_850_thetae_051.txt.gz
Theta_e
298 298 298 298 297 297 298 298 297 297 296 295 294 293 294 296 296 300 300 303 305 305 307 311 314 315 313 312 312 314 318 317 312 314 313 310 307 314 313 315 313 316 313 308 307 307 315 312 312 310 309 312 313 313
297 297 297 296 296 296 296 296 295 293 292 293 293 295 295 297 297 299 300 302 302 305 306 308 311 314 313 313 313 316 316 317 318 316 311 309 311 305 312 315 314 315 314 314 313 312 311 313 312 313 314 314 313 313
295 295 295 294 294 294 293 293 293 294 295 296 297 297 297 298 298 298 300 302 302 302 303 306 311 315 316 315 313 316 318 319 320 319 312 312 313 309 312 311 314 315 313 313 313 314 313 312 313 313 313 313 313 314
295 296 296 296 295 295 295 296 296 296 296 295 296 296 296 297 297 298 302 302 302 304 305 308 311 315 318 320 317 315 317 320 321 320 311 308 310 313 307 314 314 315 313 312 312 311 311 312 312 313 313 313 314 313
295 295 295 295 295 296 296 295 296 296 296 297 297 297 298 299 299 301 302 301 301 302 308 310 311 314 318 320 318 318 318 320 319 312 305 310 313 313 309 311 311 312 313 312 311 312 312 310 310 311 312 311 312 312
296 296 296 296 295 296 298 298 297 298 298 299 301 300 301 301 300 301 299 301 302 303 304 307 311 312 317 320 319 320 319 321 319 315 310 315 317 314 311 313 313 314 313 313 313 313 312 309 308 308 310 309 308 308
297 297 296 296 296 296 298 298 297 296 298 298 299 300 300 300 300 300 301 302 301 306 306 306 307 312 319 319 320 320 320 320 319 316 312 311 314 311 300 309 311 312 313 313 314 312 305 306 305 306 307 305 304 303
297 296 296 296 296 297 298 297 296 295 295 296 296 297 298 299 300 300 305 307 302 306 306 306 308 311 316 316 316 318 317 315 315 314 313 305 311 305 309 309 309 308 308 307 309 311 309 306 304 303 303 302 301 299
296 296 296 295 295 295 296 297 296 295 295 297 298 298 299 298 298 299 303 304 304 305 305 305 309 311 313 314 313 314 314 309 311 308 308 311 306 310 306 307 307 307 309 305 307 308 305 305 302 300 300 299 298 296
297 296 296 295 295 295 296 296 295 295 297 298 299 300 302 300 302 303 306 306 307 306 307 305 310 310 311 309 307 306 309 307 310 309 310 307 307 305 306 307 307 306 308 307 302 299 300 299 299 298 297 297 297 296
297 297 296 296 296 296 296 296 296 296 296 299 302 304 304 306 306 305 304 306 305 304 306 308 310 310 310 308 307 305 305 304 312 310 311 308 308 305 306 307 307 307 307 308 308 305 303 302 299 298 296 296 295 294
304 301 299 298 297 297 297 296 297 297 300 303 308 306 306 307 307 304 303 302 303 306 304 306 308 309 309 309 304 305 306 301 310 306 308 310 304 305 305 305 304 305 305 305 305 303 301 299 298 298 297 295 294 292
307 306 304 302 300 300 300 301 299 303 305 309 309 308 306 302 306 304 306 305 304 302 305 306 305 307 306 307 301 299 301 303 303 308 309 303 303 305 304 303 303 303 303 302 301 300 299 298 298 297 296 293 290 290
309 308 307 305 304 303 304 303 303 305 309 306 303 302 302 303 301 301 302 302 300 302 305 306 303 303 304 303 301 301 304 304 299 301 302 302 302 301 302 303 302 300 301 301 300 299 298 297 295 295 292 290 290 289
309 311 309 307 306 304 306 306 307 306 303 300 301 301 300 299 299 299 300 300 301 304 305 304 303 304 302 303 301 303 305 306 300 300 302 301 300 301 300 300 301 300 300 299 298 297 296 294 291 290 289 289 288 287
309 310 310 309 309 308 307 305 305 302 299 299 297 300 298 300 298 298 299 300 302 304 303 303 298 299 304 302 304 304 300 301 302 300 299 299 298 298 299 298 298 298 298 297 296 295 292 292 291 291 289 286 285 285
310 307 306 308 309 308 308 309 302 297 296 297 296 296 297 297 297 297 297 298 302 303 302 299 304 304 301 303 302 300 300 299 298 298 297 299 299 297 297 296 296 297 296 294 292 291 292 291 290 287 286 284 284 284
306 306 305 305 306 308 307 300 297 297 296 296 296 295 294 293 294 294 295 298 301 301 300 299 298 297 297 300 299 297 296 296 297 297 296 296 296 296 296 296 295 294 292 291 292 291 289 287 286 285 285 284 284 283
296 301 308 307 305 303 299 298 297 296 296 296 295 295 293 292 291 292 294 295 295 296 294 293 293 293 293 293 295 295 295 295 294 294 294 295 296 296 295 294 293 292 292 291 290 289 288 287 286 285 284 283 282 281
297 297 304 307 305 299 297 297 297 296 296 295 293 291 290 290 290 290 290 291 291 291 291 290 288 287 288 289 293 294 294 294 294 293 293 293 294 294 294 293 292 292 291 290 289 287 286 284 283 282 282 281 280 279
296 297 299 301 298 297 296 296 295 296 296 296 295 293 291 289 288 287 288 288 288 289 288 286 285 285 286 289 293 294 294 294 294 293 291 290 291 292 291 291 290 290 289 287 286 284 283 283 282 280 279 279 278 278
294 295 295 296 295 295 295 296 296 295 296 296 296 295 294 292 289 288 285 285 284 283 284 284 284 284 286 287 288 290 290 292 292 291 290 289 289 288 287 287 287 286 285 284 283 283 282 281 280 279 278 277 276 275
293 293 293 293 293 293 293 294 295 295 293 294 294 292 292 292 290 287 285 283 281 281 283 283 283 284 285 286 287 287 288 288 288 287 287 287 286 285 285 284 284 283 282 280 280 280 279 279 278 277 276 275 274 273
292 291 292 292 292 287 292 292 293 292 292 289 289 289 292 291 288 285 283 281 279 281 281 282 283 284 284 284 283 283 283 285 285 284 283 284 284 282 282 281 280 280 279 278 278 278 277 276 275 274 274 273 273 272
290 288 290 281 291 288 281 281 283 285 282 282 283 285 289 289 282 282 281 279 278 279 279 280 281 281 280 280 280 280 281 282 282 282 280 280 280 279 279 278 278 278 277 276 275 274 274 274 273 273 272 272 271 271
285 290 288 289 288 286 283 283 284 283 279 282 287 288 286 276 276 279 280 279 277 277 278 278 278 278 278 278 279 279 279 279 280 280 278 278 278 278 277 276 275 274 274 273 273 273 272 272 272 271 271 270 269 269
286 286 290 289 291 290 285 287 286 281 281 283 281 278 276 274 275 280 279 278 277 277 277 277 278 277 277 276 276 276 277 277 277 276 275 275 275 275 274 273 273 272 272 272 272 272 271 270 270 269 269 268 268 267
290 290 283 287 287 287 278 277 277 279 279 284 280 273 272 271 276 276 276 276 277 277 277 277 276 275 276 276 276 275 275 275 275 274 274 274 273 272 272 272 271 271 271 270 270 269 269 268 268 267 267 267 266 266
288 289 288 283 286 285 284 280 281 282 281 281 273 273 275 273 274 275 276 276 276 276 276 276 275 274 274 273 273 274 273 273 273 273 273 273 272 272 271 271 270 270 270 269 269 268 268 266 266 266 266 266 265 265
287 288 287 285 278 279 282 281 280 278 278 276 274 273 273 273 274 274 275 275 275 275 274 274 273 273 274 274 274 274 273 273 272 272 271 271 270 270 270 270 269 269 269 269 268 268 268 267 266 266 265 265 264 264
287 288 285 284 283 282 281 280 279 279 277 275 274 273 272 272 272 272 272 272 272 272 273 272 272 273 273 273 273 273 272 271 271 270 269 269 269 268 268 268 268 268 267 267 267 267 266 266 266 265 265 264 264 263
286 285 285 278 283 281 281 282 280 279 278 276 275 274 274 273 271 271 270 270 271 272 273 273 273 273 273 272 271 270 270 269 269 269 268 268 268 268 267 267 267 267 266 266 266 265 265 264 264 264 264 263 263 263
284 284 285 284 283 284 283 284 281 279 278 277 276 275 274 273 271 271 271 271 272 272 272 272 272 271 270 270 269 269 269 268 268 268 268 267 267 267 267 267 267 266 266 266 265 265 264 264 264 264 264 263 263 263

GFSWCAN_850_thetae_054.txt.gz
Theta_e
301 301 301 301 301 302 301 299 299 299 296 297 298 299 298 297 296 299 300 301 303 304 306 308 311 311 310 310 307 309 312 313 310 312 311 312 308 314 314 315 315 317 315 309 307 308 316 310 310 311 309 310 312 312
299 300 300 299 299 299 299 298 297 296 297 298 298 298 298 296 296 298 299 300 301 304 305 306 310 311 310 311 310 314 311 312 313 313 309 305 308 304 312 316 312 318 315 315 314 314 311 311 311 311 311 312 312 313
297 297 298 297 298 297 297 297 297 297 297 298 298 298 298 297 296 295 298 298 302 303 303 304 308 310 312 312 312 312 314 317 317 316 310 309 311 307 311 311 314 313 311 313 313 313 312 313 313 313 312 313 313 313
296 296 297 298 298 298 298 298 298 298 298 297 296 295 295 293 293 296 298 298 299 302 302 305 309 310 313 315 314 313 314 314 317 318 308 307 308 311 308 312 313 312 312 312 311 311 311 311 312 312 312 313 313 313
295 295 294 295 295 296 296 295 294 293 293 293 293 294 294 294 295 296 297 300 301 303 305 306 308 311 312 314 318 317 313 314 318 311 304 309 310 311 306 308 309 311 312 312 312 313 313 312 312 312 312 313 313 313
295 295 295 295 295 295 293 293 294 295 296 296 294 296 294 296 297 297 299 299 301 302 302 304 307 310 310 315 318 317 317 316 317 316 306 312 315 314 309 309 312 315 316 317 314 314 312 312 311 311 312 312 311 311
296 296 296 296 296 296 296 296 296 296 295 296 297 297 297 297 298 300 301 301 302 302 304 301 303 311 314 318 319 317 318 318 318 316 311 311 312 311 300 309 311 313 313 313 313 312 306 308 308 308 310 308 308 307
296 296 297 298 298 298 297 297 297 298 297 296 296 296 299 298 300 302 301 301 301 303 304 301 305 309 314 316 314 315 315 316 314 313 311 305 309 304 310 308 308 309 310 309 309 311 311 309 307 306 307 306 304 303
296 296 297 298 296 296 298 297 298 299 299 298 299 299 300 299 301 301 303 303 302 304 304 303 307 309 312 312 312 313 313 308 311 306 307 309 304 310 309 307 307 305 307 306 307 308 307 307 304 303 303 302 303 299
295 296 298 298 296 295 295 295 296 296 298 299 299 299 298 299 300 300 305 304 303 304 307 304 307 306 311 309 306 307 307 307 311 309 309 304 308 307 308 308 308 307 307 306 303 298 301 300 301 300 301 301 301 299
296 295 296 297 297 295 294 295 297 298 299 299 300 302 300 301 302 301 303 305 304 304 306 306 307 307 310 308 306 305 305 305 311 309 310 309 311 305 307 307 307 309 306 306 308 305 303 304 302 300 299 298 297 296
296 295 295 295 296 296 295 296 298 298 298 301 303 301 303 303 305 303 303 302 304 305 304 304 307 309 309 309 304 304 306 303 311 306 309 311 306 304 304 306 308 307 304 306 306 305 302 301 299 298 296 295 295 294
296 296 296 296 296 296 296 296 296 297 299 303 306 305 305 302 305 302 305 305 305 302 304 306 304 306 306 307 301 302 305 307 303 308 311 306 303 303 302 302 302 303 304 303 301 301 300 299 298 298 296 294 294 293
297 297 297 297 297 296 296 296 296 296 299 302 301 301 302 302 300 301 302 302 300 301 303 305 303 302 303 302 300 306 304 303 306 307 302 302 302 301 301 302 302 301 301 301 301 300 299 298 296 294 295 294 291 289
302 301 300 299 298 297 297 297 297 299 299 299 300 301 300 299 298 298 299 300 300 302 303 303 303 304 302 303 301 303 306 306 301 297 301 300 300 301 301 301 301 300 300 300 299 298 297 296 295 294 291 289 289 289
305 303 301 300 299 298 298 299 299 299 298 297 296 298 297 298 298 297 297 298 300 303 303 302 301 304 303 302 303 303 302 302 302 299 298 298 298 298 298 298 298 298 298 297 296 296 295 294 291 289 287 287 287 287
307 305 305 303 302 301 300 300 298 297 296 296 296 293 295 295 295 295 294 295 300 302 302 300 303 302 301 302 301 299 298 298 297 296 297 297 297 296 297 297 296 295 295 295 294 292 289 289 289 289 289 286 284 284
307 305 306 305 304 303 300 299 297 296 296 295 295 293 291 290 291 291 293 294 299 299 296 296 296 296 295 297 297 296 295 294 295 295 295 295 295 294 295 294 294 295 294 292 291 291 291 291 290 288 286 284 284 283
302 302 303 304 302 299 298 297 296 295 293 292 290 291 290 289 289 290 291 293 292 293 292 290 289 289 289 290 290 292 294 294 292 292 293 293 293 294 294 294 293 292 291 291 290 289 288 286 285 285 284 283 283 282
299 303 301 300 300 299 297 296 296 295 295 293 290 288 287 286 286 287 287 289 288 288 287 287 286 285 285 285 287 291 293 292 292 291 290 291 292 292 292 291 291 290 290 288 288 287 286 285 284 282 282 281 281 280
300 300 301 302 298 297 296 296 295 296 295 293 292 291 290 287 285 284 284 285 285 285 285 283 283 282 283 284 287 290 292 293 290 289 287 287 288 289 289 288 288 288 287 286 285 283 283 283 282 282 281 280 279 279
296 297 297 296 295 294 294 295 295 295 296 295 295 293 292 289 287 285 283 282 281 281 282 282 281 281 281 283 284 286 286 288 287 287 287 287 287 286 286 285 286 285 284 283 282 282 281 280 280 279 279 279 278 278
293 292 292 293 293 293 292 294 294 294 289 292 292 290 290 288 286 283 282 281 279 279 280 281 281 282 283 283 285 285 286 286 285 285 285 284 284 283 283 283 282 282 281 280 279 279 279 278 278 278 277 277 276 275
292 291 291 291 291 286 291 290 291 290 290 287 286 287 289 287 285 282 281 279 278 279 279 280 281 281 282 283 282 281 282 283 283 282 282 282 282 280 280 280 279 279 278 277 277 277 277 276 276 275 274 273 273 272
291 288 290 282 290 286 279 279 281 283 283 283 284 287 283 285 280 280 278 278 277 277 278 278 279 279 278 278 279 279 280 281 281 280 278 278 278 278 278 278 277 277 275 274 275 274 274 273 273 273 272 272 271 271
286 288 288 285 286 285 285 285 285 278 278 280 281 283 282 274 274 277 279 277 276 276 277 277 278 278 278 277 278 278 277 278 279 279 276 276 276 275 275 275 274 274 273 273 273 272 272 271 271 271 270 269 268 268
287 284 287 287 289 287 281 283 283 278 277 278 277 274 271 271 274 279 277 276 276 276 276 276 277 276 276 275 275 275 275 276 276 275 274 274 274 273 273 273 273 272 271 271 271 270 270 269 269 269 268 268 267 266
288 287 281 284 285 284 276 274 275 277 279 281 277 270 269 269 274 275 275 275 276 276 275 275 274 275 275 275 274 274 274 274 273 273 273 273 272 272 272 271 271 270 270 270 269 269 268 268 268 267 267 266 266 265
287 286 286 280 283 282 280 277 278 277 277 278 270 270 273 272 273 274 275 275 275 275 275 275 274 273 273 273 273 273 273 272 272 273 273 272 271 271 270 270 269 269 269 269 268 268 268 267 267 266 266 265 265 264
286 286 284 282 275 276 278 278 276 275 275 274 273 272 272 271 272 273 274 274 274 274 273 273 273 272 273 273 273 273 272 272 271 271 270 270 269 269 269 268 268 268 268 268 268 267 267 267 266 266 266 265 265 264
286 285 283 283 281 280 278 277 276 275 274 273 273 272 271 271 271 272 272 272 272 272 272 272 273 273 273 273 272 271 271 270 270 269 269 269 268 268 268 268 268 267 267 267 267 266 266 266 266 265 265 265 264 263
285 283 282 276 280 278 280 281 278 276 275 274 274 273 273 272 271 271 271 271 271 272 272 273 272 272 272 271 270 270 269 269 269 269 268 268 268 268 267 267 267 267 267 266 266 266 266 265 265 265 264 264 264 263
283 283 283 282 280 279 280 281 279 278 277 276 275 274 273 272 271 271 271 271 271 272 272 271 271 270 270 270 269 269 269 268 268 268 268 267 267 267 267 267 267 267 266 266 266 265 265 265 265 264 264 264 264 264

GFSWCAN_850_thetae_057.txt.gz
Theta_e
300 300 300 300 300 301 300 300 301 303 301 300 300 299 299 297 300 301 301 302 303 304 305 307 308 308 308 308 308 308 311 311 310 311 312 313 313 316 318 316 316 318 317 316 312 316 320 311 309 315 316 310 311 310
300 301 301 301 301 301 302 303 302 300 300 300 299 299 297 297 301 300 301 300 301 303 305 306 307 309 308 308 308 309 309 310 311 312 311 310 313 309 315 319 313 319 317 319 317 320 314 310 314 312 312 312 311 311
298 300 301 302 300 301 301 300 300 300 300 299 298 297 301 299 300 300 300 301 301 301 303 304 306 309 309 309 309 310 310 313 313 314 312 313 314 311 315 315 316 313 313 317 316 315 313 312 311 312 311 311 312 312
297 298 299 299 299 299 299 299 299 299 298 299 298 298 299 299 300 299 298 300 300 301 302 303 305 307 308 311 310 309 312 314 317 315 309 309 313 311 313 317 316 314 315 314 314 313 312 314 313 313 312 312 311 312
297 297 297 298 297 298 297 297 298 298 298 298 298 299 299 297 297 297 298 298 300 300 302 302 304 306 309 311 313 311 310 312 315 312 307 313 310 311 308 311 313 313 314 316 318 315 317 317 317 315 313 312 312 313
295 295 297 298 297 298 298 297 297 298 298 298 298 298 298 297 296 295 298 298 298 298 300 303 302 303 308 312 313 315 314 312 313 314 310 312 313 313 313 317 314 314 315 315 315 315 314 314 314 312 311 311 311 312
295 295 294 294 297 297 296 297 296 297 296 295 296 297 296 295 294 295 296 298 297 298 301 302 305 306 309 313 314 315 315 315 315 314 310 312 312 313 307 317 313 314 315 315 315 314 311 311 310 310 311 310 309 309
297 296 296 295 294 294 293 293 293 294 293 293 294 294 295 294 294 295 299 301 299 301 302 302 303 307 313 314 313 315 315 315 314 313 308 311 310 305 312 310 313 314 313 312 312 312 311 311 308 308 309 309 308 307
297 297 297 296 295 296 296 296 296 297 296 296 295 295 296 298 298 298 301 301 301 303 303 301 305 310 312 311 312 311 311 309 311 308 309 311 309 314 313 309 311 311 311 310 308 308 309 309 307 306 307 305 308 303
297 296 297 297 297 298 298 297 295 296 297 297 297 298 298 298 300 301 301 301 301 303 304 303 303 307 310 309 306 307 307 308 311 311 309 309 312 309 309 311 311 310 308 308 305 300 301 302 302 301 301 301 303 302
298 297 296 296 297 298 299 298 297 296 296 298 299 299 299 300 301 302 302 303 302 304 303 304 305 307 309 310 307 305 305 304 312 311 313 313 312 309 311 311 309 308 308 306 306 307 304 306 303 301 299 299 298 296
297 297 296 295 296 297 299 299 299 298 299 301 301 300 300 301 300 301 303 303 304 304 304 304 305 307 307 309 307 305 306 304 313 305 309 313 306 303 304 305 305 305 305 306 305 304 301 300 302 300 298 296 296 296
295 295 296 296 295 297 298 299 298 299 302 301 302 302 301 300 302 305 306 306 306 302 304 305 304 307 307 306 302 303 307 308 304 308 311 305 303 302 302 302 303 303 303 302 304 304 301 299 297 298 297 296 296 295
295 295 296 296 296 296 296 298 297 297 299 299 300 302 301 301 300 300 303 303 300 301 303 305 302 303 303 303 302 307 304 303 309 310 305 302 299 300 301 301 302 299 300 304 299 297 297 296 295 296 296 295 294 293
296 296 296 296 296 296 296 297 297 297 298 297 299 301 300 299 297 297 298 299 299 301 303 303 302 303 302 303 302 304 307 306 303 303 302 299 298 299 299 299 299 298 297 296 297 297 295 295 295 294 293 293 291 288
298 297 297 297 297 297 297 297 297 297 297 295 292 294 294 296 294 294 294 296 297 300 302 302 302 304 304 303 304 302 304 302 301 299 297 297 297 297 297 297 296 296 296 295 294 294 294 293 293 291 288 287 288 289
300 300 300 299 298 298 298 298 297 296 296 295 293 290 291 291 291 291 291 292 298 301 301 301 299 299 300 301 299 298 297 296 295 294 294 295 294 294 294 294 294 294 294 293 293 292 292 290 288 288 287 285 287 285
303 302 300 300 298 298 298 298 296 295 293 290 291 289 288 287 288 289 290 292 297 296 295 294 293 293 293 295 294 291 290 293 292 292 292 292 292 292 293 292 291 291 291 291 291 290 289 287 288 287 286 285 283 282
302 301 301 300 300 300 297 296 295 292 289 289 287 287 286 285 286 287 288 290 290 290 289 288 287 287 286 287 286 286 289 291 289 288 289 290 290 289 290 290 290 290 290 289 289 288 287 287 286 285 284 283 282 281
302 301 301 299 297 297 295 296 295 293 292 290 289 286 285 284 284 284 285 286 285 285 284 284 284 283 283 282 283 285 289 289 288 287 286 287 288 290 289 290 289 288 288 287 286 285 285 284 283 283 282 282 281 281
301 301 298 297 296 296 295 294 295 294 292 291 290 289 288 285 283 282 282 283 283 283 283 281 281 280 281 282 283 284 287 289 285 284 283 284 285 286 286 286 286 286 285 284 284 283 283 282 281 281 280 280 279 279
296 296 295 295 295 294 294 294 295 295 295 294 293 291 289 286 284 282 281 280 280 279 280 280 279 279 279 280 281 283 284 285 285 285 285 285 285 284 283 283 284 283 282 281 281 280 280 279 279 279 278 278 278 277
293 293 292 293 293 293 291 293 293 292 289 289 291 287 285 284 283 282 280 279 278 277 278 279 279 280 280 281 282 283 283 283 283 282 282 281 281 281 281 280 280 280 279 278 278 278 278 278 277 277 276 276 275 274
292 290 290 290 291 284 291 289 290 289 289 286 286 285 286 284 283 280 279 278 277 277 278 279 280 280 280 281 280 280 280 281 280 280 279 280 280 279 279 278 278 277 276 275 275 275 274 274 274 273 273 273 272 272
291 287 289 283 289 284 280 282 280 283 283 283 284 283 279 282 279 278 278 277 276 276 277 277 278 278 277 277 277 278 278 279 279 279 277 277 276 276 275 275 274 274 273 273 273 273 273 272 272 272 271 271 270 270
284 286 286 286 285 284 284 285 282 278 278 278 280 279 280 274 275 277 278 276 275 275 276 276 276 276 276 276 276 276 275 276 276 277 274 274 274 274 274 274 273 273 272 272 271 271 271 270 270 269 269 268 268 267
284 281 285 284 285 284 279 281 281 277 276 278 277 273 272 271 273 277 276 275 275 275 275 276 276 276 275 274 274 274 274 274 275 274 273 273 273 273 272 272 271 270 270 270 269 269 269 269 269 268 268 267 266 266
285 285 279 281 282 281 274 273 274 276 277 278 275 269 268 269 274 274 274 275 275 275 275 275 275 275 274 274 273 273 273 273 272 272 272 272 271 270 270 270 269 269 269 269 269 268 268 268 267 267 267 266 266 265
284 284 283 276 279 278 276 274 274 275 275 276 269 270 272 271 272 273 273 274 274 274 274 274 273 273 273 272 272 272 272 272 271 272 271 271 270 270 270 269 269 269 268 268 268 268 267 267 267 266 266 266 266 265
284 283 281 279 272 273 274 274 274 273 274 273 272 271 271 271 272 273 273 273 273 273 273 273 273 272 272 272 272 272 271 271 270 270 270 270 269 269 268 268 268 268 268 268 268 267 267 266 266 266 266 266 265 265
284 283 282 280 277 276 275 274 274 274 273 272 272 271 270 270 271 271 272 272 272 273 272 272 272 272 272 272 271 270 270 270 270 269 269 268 268 268 268 268 268 268 268 267 267 267 266 266 266 266 266 265 265 265
283 281 280 274 277 276 277 278 276 275 275 274 273 272 272 272 271 271 271 272 272 272 272 272 272 272 271 270 270 269 269 269 269 268 268 268 268 267 267 267 267 267 267 267 266 266 266 266 266 265 265 265 265 264
282 282 281 279 277 276 277 278 277 276 276 275 274 273 273 272 272 271 271 272 272 272 271 271 270 270 270 269 269 269 268 268 268 267 267 267 267 267 267 267 267 267 267 266 266 266 266 265 265 265 265 265 264 264

GFSWCAN_850_thetae_060.txt.gz
Theta_e
301 301 300 300 302 302 302 302 301 302 302 301 303 303 301 300 300 301 301 302 304 305 305 306 306 306 306 309 313 311 314 313 315 316 316 317 322 317 319 319 321 321 323 324 323 327 327 315 314 320 321 319 319 317
300 301 301 301 301 300 301 301 301 301 302 302 302 301 300 300 300 300 301 301 303 305 305 304 306 307 307 307 310 311 311 312 313 315 316 315 321 319 317 320 319 323 322 324 321 324 321 316 319 317 318 319 317 317
301 300 301 301 301 300 300 300 301 301 303 303 301 300 299 299 300 300 302 301 302 304 304 305 305 307 307 307 309 310 309 310 312 312 315 317 322 319 325 320 319 318 317 321 320 321 319 317 316 315 315 315 315 315
299 300 300 300 302 302 303 302 302 302 301 300 300 299 299 300 300 300 301 302 301 302 305 305 304 304 307 308 308 310 311 314 315 314 315 315 320 315 320 318 320 320 318 319 321 321 317 317 317 317 315 313 312 313
298 299 299 299 300 300 300 300 300 300 300 299 299 299 299 299 299 301 301 301 301 302 304 304 304 304 305 309 309 310 312 314 317 317 311 316 317 318 317 317 320 317 319 322 323 321 320 321 320 319 316 314 313 312
297 298 298 298 299 299 299 299 299 299 299 299 299 299 299 299 299 300 299 299 299 300 301 304 304 303 305 306 310 311 311 312 314 315 317 315 316 317 321 320 318 316 317 318 320 319 319 317 315 315 315 314 312 311
297 297 298 297 298 298 299 298 299 298 298 298 299 299 299 300 300 299 299 300 298 297 301 302 305 305 303 305 311 313 312 312 313 313 315 316 317 315 319 321 317 318 318 318 316 314 315 314 315 314 313 310 309 308
294 296 297 297 297 297 297 298 298 298 299 299 297 297 297 296 296 298 299 296 296 300 302 305 306 306 308 308 312 313 314 314 314 314 314 317 316 316 319 317 316 316 317 314 314 313 314 312 311 310 308 307 305 304
296 295 294 294 294 295 297 296 296 297 298 297 296 295 295 296 295 298 295 300 297 302 303 302 306 310 308 311 311 311 313 311 311 311 315 316 317 317 315 315 315 316 315 317 313 309 308 308 307 305 304 303 303 301
297 296 295 296 296 296 296 295 294 294 294 295 296 296 297 296 297 296 300 300 299 302 303 304 304 305 307 309 308 310 310 313 312 310 311 311 318 315 315 314 314 314 313 310 308 307 307 306 305 303 303 303 301 299
298 298 299 298 296 296 297 297 296 295 295 296 298 300 298 297 298 301 300 301 302 304 303 304 304 308 309 314 312 308 309 308 314 312 316 316 315 313 307 311 310 309 308 307 307 306 306 305 304 301 300 299 298 297
296 297 298 298 297 296 297 297 297 297 298 299 300 299 299 300 301 302 303 304 305 305 306 306 305 307 307 310 312 308 310 308 317 307 310 315 308 304 304 305 305 304 304 303 303 303 302 301 300 299 296 295 293 293
295 296 298 298 297 296 296 296 297 298 300 301 301 301 302 299 302 305 304 306 307 306 305 306 307 308 307 308 306 308 311 310 305 310 313 305 301 301 301 301 301 301 302 302 301 299 298 297 296 294 293 292 292 291
296 295 297 299 298 298 298 298 298 300 300 300 300 303 303 304 302 302 305 306 300 302 304 305 303 307 303 307 306 312 308 307 311 314 307 303 298 298 298 298 300 298 299 298 297 296 295 294 294 294 293 293 293 292
296 296 295 296 298 299 298 298 298 298 298 296 297 299 300 297 295 295 297 299 298 301 304 304 304 305 303 306 306 307 310 309 306 304 301 297 296 296 295 295 295 295 295 295 294 294 292 292 293 292 292 292 291 289
296 296 296 296 296 296 296 296 297 298 296 293 290 292 292 295 294 293 292 294 296 299 302 303 303 307 306 307 305 304 307 301 299 297 295 294 293 293 293 293 292 292 291 291 291 291 291 291 291 290 290 289 288 288
297 297 297 297 297 296 298 297 296 294 293 293 292 288 288 289 290 290 290 290 294 298 301 302 301 300 302 301 299 297 297 296 295 293 292 292 291 290 290 290 290 290 290 290 290 290 290 289 288 287 287 286 287 287
299 299 298 297 296 297 297 296 294 292 291 289 290 288 287 286 286 287 288 289 295 296 294 293 293 293 293 295 293 290 289 291 289 289 289 289 289 289 288 288 288 288 288 288 288 287 287 287 287 285 286 285 285 283
300 299 299 298 298 298 297 295 293 291 290 288 287 286 287 285 285 285 286 288 288 289 289 287 287 287 287 286 285 286 288 289 287 285 285 286 286 286 287 287 287 287 287 287 287 286 285 285 284 283 283 283 283 281
299 298 298 298 297 296 295 295 293 292 291 290 288 286 285 284 284 283 284 285 285 285 284 285 284 282 282 282 283 284 286 287 286 285 283 283 284 286 285 285 285 285 285 285 284 284 283 283 282 282 282 281 281 280
299 299 298 296 295 295 294 295 294 293 292 292 291 289 287 286 284 282 282 283 282 282 282 281 281 280 279 280 281 282 284 286 283 282 281 280 281 283 283 283 284 284 283 282 281 281 281 280 279 280 280 279 279 278
299 296 294 294 294 294 293 294 294 294 294 294 292 289 288 287 285 283 281 281 280 280 280 279 278 278 278 278 279 280 281 282 282 282 282 282 282 282 281 281 282 281 280 279 279 279 279 278 278 278 278 277 277 276
294 293 292 293 293 293 291 292 293 292 294 293 291 290 288 286 284 282 281 280 279 278 278 278 278 278 278 278 280 280 280 281 280 280 280 280 280 280 280 279 278 278 278 277 277 276 276 275 274 274 274 273 273 273
291 290 290 289 290 289 290 290 290 290 290 292 291 289 287 285 283 282 281 279 278 277 278 277 278 278 279 280 279 278 278 279 279 278 278 279 278 277 276 276 275 274 274 273 274 274 273 273 273 272 272 271 271 270
290 287 289 289 288 288 289 289 287 290 289 289 288 287 284 284 283 282 281 279 277 276 275 276 276 276 276 275 276 277 278 278 278 277 275 274 274 274 274 274 274 274 273 272 272 272 271 271 271 270 270 269 269 268
287 285 288 288 288 288 288 288 286 286 286 286 284 281 281 282 281 281 280 278 276 274 274 275 275 274 275 274 274 275 274 274 275 275 274 274 274 273 272 272 271 271 271 271 270 270 270 269 269 269 268 267 267 267
287 287 284 282 284 284 284 283 283 284 283 283 282 281 281 280 280 278 276 274 274 275 275 274 273 273 273 273 273 273 273 274 274 274 273 272 272 272 271 271 271 270 270 270 269 269 269 268 268 268 267 267 266 266
285 284 283 281 281 281 281 281 281 281 281 279 279 277 277 277 278 275 274 274 275 275 275 275 274 274 273 273 273 273 273 273 272 272 271 271 271 270 270 269 269 269 268 268 268 268 268 268 267 267 267 266 266 266
283 282 282 277 279 278 277 278 278 276 275 277 277 276 274 272 271 273 272 273 274 274 273 273 273 273 273 273 273 272 272 271 270 270 270 269 269 269 269 268 268 268 268 268 268 267 267 267 267 267 266 266 266 266
282 281 280 277 277 278 275 273 274 272 272 273 272 272 271 270 272 273 273 273 273 273 273 273 273 272 272 272 272 271 270 270 270 270 269 269 269 268 268 268 268 268 268 267 267 267 267 266 266 266 266 266 266 265
282 282 280 279 278 275 274 274 273 273 272 272 271 272 271 270 271 272 272 273 273 272 272 272 272 272 272 271 270 270 270 269 269 269 269 268 268 268 268 268 268 268 268 267 267 267 267 267 266 266 266 266 265 265
280 279 280 279 277 274 275 275 275 275 274 274 272 272 271 271 272 271 272 272 272 272 272 272 272 271 271 270 269 269 269 269 268 268 268 268 267 267 267 268 268 268 267 267 267 267 267 266 266 266 266 265 265 265
280 279 278 278 277 276 276 277 277 275 275 275 273 272 272 273 273 271 272 272 272 272 272 271 270 270 269 269 269 269 268 268 268 268 267 267 267 267 267 267 267 267 267 267 267 266 266 266 266 265 265 265 265 265

GFSWCAN_850_thetae_063.txt.gz
Theta_e
301 301 301 301 301 302 303 304 301 300 300 300 301 301 301 302 301 301 303 304 306 306 306 307 308 307 306 307 312 311 314 315 317 318 317 316 320 314 315 317 323 323 324 327 325 328 327 319 319 322 323 321 321 321
300 301 301 301 301 301 302 302 302 300 301 301 302 302 301 302 301 301 303 304 305 306 307 308 308 308 307 306 308 310 313 313 313 314 317 316 322 321 316 322 320 324 323 324 323 324 322 318 320 319 320 322 322 321
299 300 302 301 301 301 301 301 301 301 302 303 302 302 301 302 300 302 303 303 303 304 307 307 306 309 308 309 310 311 312 312 312 312 315 317 319 317 323 319 318 320 320 323 323 322 321 320 320 319 320 320 321 320
299 300 302 301 300 301 302 302 302 302 303 302 302 301 302 300 301 302 302 303 304 305 307 307 306 305 307 308 309 311 311 312 312 313 316 319 319 313 319 316 317 316 317 319 319 318 318 320 320 320 320 319 319 317
299 300 301 302 301 301 302 301 301 302 301 303 302 302 300 300 301 302 302 303 303 304 307 307 306 305 305 305 308 311 313 312 313 315 317 316 312 312 315 317 317 315 316 321 322 318 320 320 320 322 321 320 318 317
298 299 300 300 300 301 302 302 302 301 301 300 300 300 300 300 300 301 301 302 303 304 305 306 305 306 304 304 308 310 311 313 313 314 316 312 310 314 321 319 316 313 313 315 318 318 319 320 320 317 320 320 319 317
298 298 299 299 299 300 300 300 300 300 300 299 300 300 300 300 301 302 302 302 302 303 303 305 306 305 306 304 305 309 309 312 313 314 316 315 315 316 321 320 314 314 315 315 316 317 318 319 318 316 316 317 316 315
297 297 299 299 299 300 299 299 300 299 299 299 300 299 299 300 300 300 300 301 302 303 303 304 306 307 306 306 308 311 310 310 311 312 313 316 316 317 319 315 314 314 314 315 316 318 318 317 315 314 313 313 312 313
297 296 297 298 298 298 299 299 299 299 299 299 299 299 299 300 301 301 298 301 302 304 304 303 307 309 309 308 309 311 311 313 312 316 316 315 317 318 315 314 314 314 315 316 316 317 317 314 314 313 311 310 311 309
294 293 294 296 298 298 298 298 298 298 299 299 299 300 300 300 297 299 301 302 302 303 304 304 306 309 307 309 311 311 313 314 313 315 314 316 318 314 313 311 315 316 315 316 315 315 314 313 313 311 309 309 308 306
296 296 296 296 294 295 297 298 296 296 298 300 301 299 298 298 301 302 301 303 302 303 303 304 305 307 304 306 311 311 313 312 315 315 316 314 315 309 307 309 310 311 311 312 311 310 310 310 311 309 307 306 304 303
298 296 297 297 295 295 295 295 297 299 299 300 300 298 299 300 301 303 303 304 304 305 306 307 306 303 301 301 309 308 313 310 316 310 311 312 305 301 302 303 303 305 306 306 306 306 305 305 305 303 301 300 299 297
298 296 297 297 296 296 296 298 298 299 300 301 302 301 301 301 305 305 303 305 307 307 306 307 307 304 302 305 309 311 314 313 308 310 310 304 300 298 298 299 299 300 300 299 300 300 300 300 299 299 296 295 294 293
296 296 297 297 296 297 297 299 300 301 302 300 301 303 304 304 302 301 299 305 301 303 306 308 306 308 305 309 307 312 307 308 312 313 307 301 296 296 295 295 295 293 294 294 294 295 295 294 292 291 290 290 290 289
297 296 296 296 297 297 298 298 299 298 298 296 297 297 298 296 296 295 294 298 297 300 305 306 305 305 305 308 305 306 310 310 305 304 301 296 294 293 292 292 291 291 291 290 290 290 289 289 289 288 289 289 289 289
298 298 298 298 298 298 297 296 298 297 296 293 290 293 292 296 295 292 292 293 294 297 303 304 303 310 306 307 306 304 307 301 300 298 295 293 291 291 290 290 290 290 289 288 288 288 288 288 288 288 289 288 288 288
297 297 296 296 297 298 299 298 295 292 293 293 292 288 289 290 290 289 290 291 293 296 302 303 302 300 303 303 299 296 297 295 294 294 292 291 290 290 289 289 288 288 287 287 287 287 287 287 287 287 286 285 286 285
297 297 297 297 297 297 296 294 292 292 291 289 291 289 287 286 286 288 288 289 295 295 294 294 293 294 294 295 293 291 291 291 289 288 288 287 288 288 288 287 287 286 286 286 285 286 286 286 285 283 283 283 282 282
298 297 297 298 298 297 296 294 293 291 290 289 287 286 287 285 285 286 287 288 288 288 289 288 287 287 288 286 286 287 289 289 288 286 284 285 285 285 285 285 285 285 285 284 284 283 283 282 282 282 282 281 281 281
298 297 298 298 297 297 296 295 294 292 292 290 289 288 286 286 285 285 284 286 285 285 285 285 284 282 283 283 283 284 287 287 286 284 283 282 282 282 282 282 282 282 282 281 281 281 281 280 279 279 279 279 279 278
297 297 297 295 296 295 294 295 295 293 293 293 293 291 289 287 285 285 284 283 283 283 283 282 281 280 279 280 281 281 283 283 282 282 282 281 280 280 281 280 281 281 280 279 279 278 278 277 277 277 277 276 277 275
296 295 294 294 295 294 295 294 295 296 295 294 292 291 290 289 287 285 283 282 282 282 281 280 280 280 279 278 279 279 279 280 280 280 279 280 279 278 278 278 279 278 277 277 276 276 276 275 274 274 274 274 273 274
293 292 292 293 294 294 293 294 294 294 295 294 292 291 290 288 286 285 284 282 281 280 281 279 278 278 278 278 278 278 279 279 278 278 278 278 277 277 277 276 276 275 274 274 273 273 273 273 273 272 272 272 272 271
291 290 290 292 293 293 292 292 293 293 292 293 291 290 288 287 286 285 284 281 280 280 280 280 281 280 279 277 276 276 276 277 276 276 276 276 275 274 274 273 273 273 273 272 272 271 271 271 271 270 270 270 270 270
291 288 291 292 291 292 293 292 292 292 291 291 289 289 287 287 287 285 284 281 280 278 279 278 279 279 278 277 275 275 275 275 275 275 275 276 275 274 273 272 272 271 271 271 271 270 270 270 269 269 268 268 268 268
289 287 289 290 290 291 291 291 290 290 290 289 287 285 286 286 285 284 282 280 278 277 277 278 278 277 275 275 275 274 274 274 274 273 273 272 273 274 273 273 271 269 268 269 269 269 269 268 268 268 268 268 267 267
290 289 286 286 288 288 289 288 287 288 287 287 287 285 286 285 283 280 278 277 276 274 274 275 276 276 274 273 273 273 274 274 273 272 272 272 272 271 271 270 270 269 268 268 268 268 268 268 267 267 267 267 266 266
287 286 286 284 284 285 285 286 286 285 285 282 284 282 282 282 281 278 276 274 273 273 273 274 273 273 272 272 272 272 272 272 272 271 270 270 270 270 270 270 270 270 270 269 269 269 268 268 267 267 267 266 266 265
286 285 283 280 282 281 281 283 282 279 278 281 282 280 277 275 275 275 274 273 273 273 273 272 272 273 273 273 273 272 272 271 271 271 271 271 270 269 269 269 269 269 269 268 268 268 268 267 267 267 267 266 265 265
284 284 282 280 281 282 278 278 277 275 276 276 275 274 273 272 271 272 273 273 274 273 272 272 272 272 272 272 271 271 271 271 271 270 270 269 268 268 269 269 268 268 268 268 267 267 267 267 267 266 266 266 266 266
284 284 283 281 280 278 276 275 275 275 275 276 276 276 275 273 271 271 271 272 273 273 272 272 273 271 271 271 270 270 270 270 270 269 269 269 268 268 268 268 268 268 268 267 267 267 267 266 266 266 266 266 266 266
283 284 282 281 279 277 276 279 279 279 278 278 276 274 273 275 275 272 273 273 271 271 272 271 271 270 271 270 270 270 269 269 269 269 268 268 268 268 268 268 268 268 267 267 267 267 267 266 266 266 266 266 266 265
283 282 281 281 279 279 279 280 280 279 279 278 277 276 276 277 276 273 273 273 271 271 270 270 271 271 270 270 269 269 269 269 268 268 268 268 268 267 267 268 268 268 267 267 267 267 267 266 266 266 266 266 266 265

GFSWCAN_850_thetae_066.txt.gz
Theta_e
299 300 302 301 301 301 302 302 302 302 302 301 301 301 301 301 301 301 303 304 306 307 307 307 307 308 308 309 311 311 312 313 316 318 318 316 319 315 314 315 321 321 323 324 324 324 325 321 320 321 322 322 321 321
300 302 301 301 302 302 303 303 303 303 301 301 302 302 302 301 303 301 302 303 305 306 307 307 307 308 309 307 309 310 311 313 313 315 316 317 324 322 316 314 317 321 321 323 323 324 324 320 320 320 320 323 321 322
300 303 301 301 301 301 302 301 301 301 301 301 303 302 302 301 302 302 303 303 305 305 307 308 309 310 310 309 309 311 312 312 313 313 316 317 318 317 323 320 317 321 322 323 322 322 322 322 320 319 320 320 321 321
300 301 301 301 301 302 301 301 301 301 301 301 301 301 301 301 301 302 303 305 305 304 307 307 308 309 308 309 310 309 311 312 312 314 317 319 319 317 320 318 317 317 320 322 321 321 319 319 318 319 320 321 320 320
300 301 301 301 301 302 301 301 301 301 302 302 301 302 302 302 302 302 303 304 304 304 306 308 307 307 307 309 309 309 311 312 311 313 320 317 316 317 316 316 318 316 316 319 322 319 321 321 321 321 320 320 322 321
300 300 302 302 301 302 302 302 303 302 302 302 302 302 302 301 301 302 302 303 303 303 306 308 307 307 307 307 308 308 309 310 313 313 315 314 313 314 323 316 314 314 313 312 316 317 318 318 319 318 317 318 320 320
300 299 300 301 301 302 301 302 302 302 302 302 301 301 301 300 301 303 303 303 303 305 305 307 307 306 307 307 308 308 308 308 312 312 314 314 314 313 316 318 314 313 314 314 315 315 317 317 319 318 317 317 318 318
299 299 299 300 300 300 301 302 302 301 300 300 300 300 301 301 301 302 303 303 303 304 304 306 306 308 307 308 308 308 309 308 311 312 313 316 315 317 318 315 314 314 314 313 314 315 316 318 318 317 315 315 314 315
298 299 299 300 299 299 299 300 300 300 300 300 300 300 301 302 302 302 302 303 303 304 304 305 307 308 307 307 308 310 309 312 310 314 313 314 316 317 316 314 315 316 316 316 316 316 317 317 317 315 314 313 312 313
298 299 299 299 299 299 299 300 300 299 299 300 301 301 301 299 301 301 301 302 303 303 304 305 305 307 308 307 310 309 309 311 312 312 311 314 315 312 307 310 311 312 313 314 315 316 315 315 314 314 311 310 311 310
295 298 298 298 298 299 299 299 299 299 300 301 300 300 300 301 302 303 302 303 303 304 303 304 305 307 304 306 306 305 304 308 313 314 314 314 315 304 301 303 303 305 308 310 310 311 310 311 311 310 308 307 306 306
296 295 297 298 297 297 297 299 300 300 300 301 299 299 301 302 302 303 304 305 304 304 306 307 307 306 302 303 306 308 308 308 314 313 315 312 303 299 298 298 298 299 302 304 305 305 305 307 307 305 303 302 302 301
296 295 295 295 296 296 297 299 300 300 301 302 302 301 303 302 303 303 303 304 307 307 307 307 306 304 303 303 303 306 309 311 308 311 306 301 298 296 295 294 293 295 298 299 299 299 299 299 299 301 298 296 296 295
296 296 295 295 297 298 299 300 299 301 302 301 302 302 303 302 301 299 298 299 298 300 303 307 306 306 303 304 303 308 305 304 312 312 304 298 295 294 292 292 292 291 292 292 292 292 292 292 291 291 292 292 292 291
296 296 296 297 298 298 297 297 298 299 297 296 297 298 297 296 295 294 294 296 295 295 300 306 305 305 303 304 303 305 309 305 303 302 298 295 293 291 291 291 290 290 289 289 289 288 288 288 288 287 288 289 290 289
296 296 297 297 297 298 297 298 299 297 295 292 290 294 291 295 293 292 292 293 292 294 301 304 304 306 305 305 304 301 303 297 297 295 293 292 291 291 290 290 289 289 288 288 287 287 287 287 286 286 287 287 287 287
299 298 297 297 298 298 298 298 295 292 292 293 293 289 289 290 289 291 290 291 292 294 301 303 301 301 303 301 296 295 295 294 291 290 289 290 289 289 288 288 288 287 287 286 286 286 285 285 286 286 285 284 285 284
298 296 297 297 297 297 295 294 293 292 290 289 291 289 288 287 287 288 290 289 293 295 295 294 294 294 292 294 292 291 292 288 287 286 286 286 287 287 287 286 286 286 285 285 285 284 284 284 284 283 283 282 282 281
298 297 297 298 297 296 295 295 293 292 290 289 288 287 287 287 285 286 287 288 288 290 290 288 287 287 287 286 286 287 289 288 286 284 283 284 284 284 284 284 284 284 283 283 283 283 283 283 282 282 282 282 281 281
298 298 298 297 297 297 296 295 293 293 292 290 288 287 287 286 285 285 284 285 285 285 285 284 283 282 283 282 283 283 287 285 284 283 282 282 282 282 282 282 281 281 281 281 281 281 281 280 280 280 279 279 279 278
297 296 297 297 296 295 296 296 295 294 294 294 292 291 290 288 285 284 284 284 283 284 283 282 281 280 280 281 281 282 283 283 282 282 281 280 280 280 280 280 280 280 279 279 278 277 277 277 277 276 277 277 276 275
297 295 294 295 296 296 296 296 297 296 295 294 293 291 291 289 288 285 283 283 283 282 281 281 280 280 279 279 279 279 279 280 280 279 279 279 278 278 278 278 278 277 277 276 276 275 275 275 275 275 275 274 274 273
293 293 293 294 294 294 294 295 295 295 296 294 293 292 291 289 287 286 284 282 282 282 281 280 279 279 279 278 278 278 278 278 277 277 276 276 276 276 276 276 276 275 275 274 274 273 273 273 273 272 272 272 272 272
291 291 292 294 294 294 293 294 294 293 293 293 292 290 289 289 288 285 284 282 281 281 281 282 282 280 278 277 277 277 277 277 277 277 277 276 275 275 274 274 274 274 273 273 273 272 272 271 271 271 270 270 270 270
291 289 292 293 293 294 294 293 293 293 292 291 290 289 289 289 288 286 284 282 280 280 280 279 279 279 278 277 276 275 275 276 276 276 276 277 276 275 273 272 271 271 272 272 271 271 270 270 270 269 269 269 269 269
290 288 290 291 291 293 293 292 291 291 291 290 288 287 288 288 287 285 283 281 279 278 279 279 278 277 276 275 275 274 275 275 274 274 273 274 274 274 274 273 271 270 269 270 271 270 269 269 269 269 269 268 267 267
291 290 288 288 290 290 291 289 289 289 288 288 288 288 288 286 284 281 279 278 277 276 276 277 277 276 275 274 273 273 273 273 273 272 271 272 272 272 272 270 269 269 268 268 268 268 268 268 268 268 267 267 266 266
287 287 287 286 285 286 287 287 286 286 285 284 286 284 284 284 282 279 277 276 275 274 274 275 275 274 274 273 273 273 273 273 272 272 272 272 270 269 269 270 269 269 269 268 269 268 268 268 267 267 267 266 266 266
287 286 283 282 283 282 282 284 283 280 279 283 284 282 279 277 277 276 275 275 275 275 274 274 273 273 273 273 272 272 272 273 272 272 273 272 270 268 268 268 268 268 267 267 268 268 268 268 268 268 267 267 266 266
286 286 283 282 282 281 279 279 278 278 278 277 276 275 275 274 274 274 275 275 275 275 274 274 273 274 273 273 271 271 271 271 271 272 272 270 268 268 268 268 268 268 268 268 268 267 268 267 267 266 266 266 267 266
287 286 284 282 281 279 278 277 278 278 278 278 278 277 275 274 273 273 273 273 273 272 273 272 272 272 272 271 272 271 271 271 270 270 270 269 269 269 269 269 269 269 268 268 268 268 267 267 266 266 266 266 266 266
286 285 283 282 280 278 279 282 281 280 280 279 278 276 276 277 277 273 272 272 273 274 273 273 272 272 272 271 271 270 270 270 270 269 269 269 269 269 269 269 269 268 268 268 268 267 267 267 267 266 266 266 266 266
284 284 283 282 281 282 280 282 282 281 281 280 279 279 278 278 278 273 273 273 273 273 272 272 272 272 271 270 270 270 270 269 269 269 268 268 268 268 268 268 268 268 268 268 268 267 267 267 267 266 266 266 266 266

GFSWCAN_850_thetae_069.txt.gz
Theta_e
299 300 300 301 301 302 302 302 302 301 301 301 301 301 301 301 300 300 300 301 303 305 307 307 307 308 307 307 307 308 308 308 308 312 311 310 307 314 314 317 317 316 317 317 316 320 321 319 319 319 317 319 319 320
299 300 301 301 302 301 302 302 303 303 302 301 301 301 301 301 300 300 300 301 303 307 307 307 307 308 308 308 308 308 308 310 309 311 313 311 310 307 311 309 317 318 318 318 319 317 318 319 318 319 320 320 321 321
300 301 300 301 301 301 300 302 302 303 302 301 300 301 301 301 300 300 300 302 305 305 306 307 307 308 307 309 309 309 308 310 312 310 313 311 310 311 309 310 310 317 317 318 318 319 318 319 320 320 320 320 320 320
300 302 301 301 301 300 301 301 302 302 302 301 302 301 301 301 300 301 303 302 304 304 303 306 306 307 307 309 310 310 311 311 310 312 312 311 307 313 310 313 312 317 318 320 319 319 317 317 316 315 318 319 319 321
300 301 302 302 301 301 301 301 301 303 301 301 301 301 301 301 302 301 303 303 304 305 303 307 306 306 307 309 309 310 309 311 311 310 310 311 311 311 310 312 313 313 315 318 316 318 317 316 316 315 316 317 318 318
300 301 302 302 301 302 301 301 301 302 301 301 301 302 302 302 302 303 302 303 304 306 306 305 307 307 306 307 308 309 309 310 310 310 308 310 312 313 304 309 312 314 313 313 311 312 316 319 320 318 318 317 318 319
300 301 301 301 303 301 302 302 302 302 302 301 301 301 302 302 302 303 303 303 304 304 304 304 305 307 307 306 307 308 309 309 309 311 311 312 312 312 302 310 312 313 313 314 314 314 316 315 318 318 318 317 317 317
299 300 300 301 302 302 303 302 301 301 302 302 301 301 301 302 303 303 303 304 303 303 304 302 304 306 306 307 307 308 308 308 308 310 308 311 312 310 308 311 312 314 314 315 316 315 314 314 318 317 316 315 314 314
299 300 300 301 301 301 301 301 301 301 302 301 300 301 302 302 302 303 303 304 304 304 303 301 302 303 307 307 308 308 308 301 308 307 309 310 310 310 309 307 307 306 310 313 315 316 316 316 315 314 314 313 312 312
299 299 300 299 299 299 299 299 300 300 300 301 301 300 300 302 302 303 303 303 303 302 304 301 306 304 306 306 303 303 307 303 307 306 309 307 306 301 300 301 302 303 306 310 311 311 313 313 312 312 312 311 311 310
299 299 299 299 299 300 299 300 300 301 301 300 300 301 301 301 302 302 302 302 303 301 303 303 305 303 304 304 304 304 304 303 304 304 308 308 304 301 297 297 298 302 304 306 307 309 310 311 310 310 309 308 308 307
298 299 298 298 299 299 299 299 299 300 300 300 300 300 301 302 302 301 301 301 301 302 302 301 304 304 301 303 303 302 305 303 307 305 304 305 298 296 294 293 295 297 299 303 304 305 306 306 305 305 304 302 302 302
297 297 297 297 299 300 300 300 301 300 300 302 302 300 301 299 302 301 302 299 301 299 301 305 303 302 302 303 299 304 305 308 305 306 301 298 295 293 292 291 291 293 294 295 295 297 298 298 298 298 297 294 294 293
296 296 298 298 299 299 298 300 301 301 301 300 300 295 296 296 296 294 296 296 296 296 296 300 303 302 301 301 301 306 305 303 306 303 297 294 292 291 291 290 290 289 290 290 290 290 290 291 290 290 290 290 291 290
296 296 298 298 298 297 297 298 299 300 295 294 294 295 293 294 293 293 293 294 293 294 296 303 304 305 302 303 302 303 305 300 297 295 294 292 291 291 290 290 289 288 288 287 287 287 287 288 288 287 288 288 289 288
297 297 297 297 297 297 297 297 297 295 293 290 289 290 289 288 286 291 291 292 292 293 298 299 302 304 303 298 298 296 297 294 292 291 290 290 289 289 288 288 287 287 286 285 285 285 285 285 285 284 286 286 286 285
299 297 296 296 296 297 298 296 293 290 290 292 289 287 288 288 288 289 290 289 292 294 298 299 296 298 299 296 293 293 291 289 288 287 286 288 288 287 287 286 286 285 285 284 284 284 284 284 285 285 284 283 283 283
297 296 297 297 298 297 295 293 291 290 289 288 288 287 287 286 286 287 287 289 292 294 292 291 292 290 289 291 289 288 287 284 284 284 284 285 285 285 285 285 284 284 284 284 284 283 283 283 282 282 282 281 281 281
296 297 298 297 296 296 294 293 292 290 289 288 287 287 286 285 285 285 286 287 287 288 288 286 283 285 284 284 284 284 286 284 283 282 282 283 283 283 283 283 283 283 283 283 283 282 282 282 282 281 281 280 279 279
297 297 297 296 297 296 295 294 292 292 292 288 287 286 285 284 284 284 283 284 284 283 282 281 281 281 282 282 282 283 284 283 282 281 280 280 281 282 281 281 281 281 281 281 281 281 281 280 280 280 280 279 278 277
296 296 296 296 295 296 297 296 294 293 290 292 289 289 288 286 283 283 283 282 282 282 282 280 280 280 280 280 281 283 283 282 280 280 279 279 279 280 279 279 280 280 279 278 278 277 277 276 276 277 277 277 276 275
294 294 294 294 295 296 296 296 296 295 294 293 292 290 289 287 286 283 282 282 281 280 280 279 279 279 279 279 279 280 280 280 280 279 279 279 278 278 277 278 278 277 277 277 277 276 275 275 275 274 274 273 273 273
294 293 294 294 294 294 294 295 294 294 291 292 291 289 288 288 286 284 282 282 282 280 279 279 278 278 278 278 278 278 279 279 278 278 277 277 276 276 276 276 276 275 274 273 273 273 273 273 273 273 272 271 271 270
292 292 293 293 293 292 293 293 293 293 292 289 288 286 287 288 286 284 282 281 281 280 281 280 279 277 277 277 277 277 277 277 277 277 277 277 276 275 275 274 274 273 273 273 272 272 271 271 270 271 270 270 270 269
290 288 292 288 293 290 288 291 288 288 286 287 284 284 285 288 282 282 282 281 279 280 279 279 278 277 276 276 276 276 277 277 277 276 276 275 275 275 273 273 273 272 272 271 271 270 270 270 270 270 269 269 269 268
285 288 288 290 290 290 291 289 286 288 286 284 286 288 287 281 279 281 282 278 278 278 279 278 277 276 276 275 275 275 274 275 275 276 275 275 275 274 273 273 272 271 271 271 270 270 269 269 269 269 269 268 268 268
286 286 288 287 289 290 288 289 287 283 282 284 285 283 280 278 278 279 278 277 277 276 277 277 276 275 275 274 273 273 273 273 273 273 273 272 273 272 272 271 271 270 270 270 270 270 269 269 268 268 268 268 268 267
286 286 282 285 284 285 281 280 279 279 279 282 284 276 276 277 277 277 276 276 276 276 276 276 275 275 275 274 274 273 273 273 273 273 273 272 271 271 271 270 270 269 269 269 269 269 269 269 269 268 268 268 267 267
286 283 282 279 281 280 280 280 280 279 279 281 278 276 278 277 276 276 275 275 275 275 275 275 274 274 274 273 272 273 273 273 272 272 272 271 271 270 270 270 269 269 269 269 268 268 268 268 268 268 267 267 267 266
286 284 281 280 277 277 278 279 279 278 277 277 276 275 275 275 275 275 275 275 275 275 274 274 274 274 274 273 273 271 271 272 272 272 272 271 270 270 269 269 269 269 269 268 268 269 268 268 268 268 267 267 267 267
286 284 282 280 278 278 278 278 278 278 277 277 277 275 274 273 274 274 275 275 275 274 274 273 273 273 273 272 272 272 272 271 270 270 270 270 270 269 269 269 269 269 269 268 268 268 268 267 267 267 267 267 267 267
285 283 281 276 279 278 279 279 281 280 279 278 276 276 275 276 275 274 273 273 274 274 273 273 273 273 272 271 271 271 271 270 270 269 269 269 268 268 269 269 269 269 269 268 268 268 268 268 267 267 267 267 267 267
283 282 281 280 279 280 281 282 281 281 281 280 278 278 277 278 275 274 273 273 273 274 273 273 273 273 271 271 271 270 270 270 269 269 269 268 268 268 268 268 268 269 269 268 268 268 268 268 268 267 267 267 267 266

GFSWCAN_850_thetae_072.txt.gz
Theta_e
298 298 299 300 300 301 302 302 301 302 302 302 300 301 300 300 300 300 301 300 301 300 305 304 305 305 305 305 304 304 306 306 306 305 306 306 305 310 313 314 315 316 316 315 313 315 318 317 318 319 316 317 319 319
299 299 301 301 301 301 301 300 300 301 301 301 301 301 301 301 301 300 300 300 301 301 305 305 306 306 305 305 306 306 306 306 307 306 307 306 305 303 309 312 314 315 313 314 314 314 315 318 319 319 319 317 319 319
299 300 300 301 301 301 301 301 301 302 302 301 301 301 301 301 301 301 300 300 301 301 303 306 307 307 308 307 307 306 307 308 309 309 308 309 308 306 305 308 310 313 315 315 316 316 318 318 318 318 319 318 316 318
300 301 302 302 301 301 301 301 302 303 302 301 301 301 301 301 300 301 300 300 301 300 302 306 307 307 307 309 309 309 309 309 309 308 307 307 310 310 306 308 308 308 315 315 316 317 317 317 317 317 317 318 315 317
300 301 301 302 302 301 302 301 302 303 303 301 301 301 301 300 301 300 300 301 301 302 304 306 306 307 307 308 308 308 309 309 310 307 304 307 309 310 309 309 310 313 315 314 314 316 316 317 317 317 315 318 316 317
300 301 302 301 301 301 302 302 302 301 301 300 301 300 300 300 300 300 301 301 302 301 306 303 306 306 307 307 307 308 309 309 309 308 305 309 311 310 310 307 308 312 312 315 310 313 316 317 315 315 313 313 314 318
300 302 301 301 301 301 301 301 301 301 301 301 301 301 300 300 300 302 302 301 302 305 305 305 304 306 305 306 307 307 308 308 309 309 307 309 311 310 306 309 308 308 314 315 315 314 315 316 318 318 317 316 316 316
301 302 302 301 301 301 302 301 302 302 302 301 301 301 300 302 301 303 303 304 304 304 304 301 306 305 306 306 306 308 308 308 308 308 309 308 309 309 309 307 305 304 309 314 314 315 314 316 317 316 315 315 316 315
300 300 301 301 301 301 301 302 301 301 301 301 301 301 301 301 302 303 303 304 304 304 299 298 300 307 307 306 307 307 307 300 306 300 305 308 308 306 302 301 302 302 302 305 312 313 315 315 313 313 314 313 314 312
299 299 300 300 300 300 300 301 301 300 301 301 302 303 301 302 302 303 302 302 302 303 303 299 304 304 305 304 303 300 302 299 302 302 307 306 303 298 297 297 297 298 301 305 309 307 310 308 309 310 311 310 310 310
299 299 299 299 300 300 300 300 301 301 300 300 302 301 301 302 302 301 301 300 301 300 302 302 303 303 304 304 304 303 302 302 300 303 305 306 300 297 294 294 295 296 298 301 301 302 304 305 304 305 305 306 305 304
298 299 299 299 299 300 301 301 301 300 301 301 301 301 301 302 301 298 296 299 300 303 301 300 302 302 302 303 303 302 304 302 302 303 301 300 295 293 292 291 292 293 294 298 300 301 301 301 300 299 297 296 296 295
298 299 300 298 298 300 300 300 300 300 301 302 300 300 299 296 294 295 298 299 301 297 297 300 298 302 301 300 299 303 306 307 303 301 297 294 292 291 290 289 289 289 290 292 292 293 294 292 292 293 291 290 290 290
297 297 299 298 298 299 300 300 299 300 301 298 295 292 291 291 292 293 294 295 295 294 294 297 298 301 299 301 301 306 303 300 300 296 293 292 291 290 289 288 288 287 287 288 287 288 288 288 287 287 287 288 289 288
297 297 298 298 298 298 299 299 299 300 294 292 292 290 289 289 289 291 291 293 292 293 294 301 301 303 301 302 297 298 297 294 293 292 292 290 289 288 288 287 286 286 286 285 285 285 285 285 286 285 286 286 287 287
296 297 297 297 298 298 298 296 297 294 291 288 287 286 287 284 283 288 289 291 291 293 296 298 301 301 298 293 293 293 293 291 289 288 287 288 287 287 286 285 285 284 284 284 284 284 284 284 284 284 284 284 284 284
298 296 297 296 295 297 297 295 291 289 289 289 286 286 287 286 286 286 287 288 291 292 295 296 293 294 295 293 291 290 287 286 286 285 285 286 285 285 285 284 284 284 283 283 283 283 283 283 284 284 283 282 283 282
297 297 298 298 297 296 293 291 290 288 287 287 285 287 285 284 285 285 286 286 290 291 290 289 288 286 285 287 285 286 284 283 283 282 283 283 284 284 284 284 284 283 283 283 283 282 282 282 282 281 281 281 281 280
296 297 298 297 296 295 293 292 290 288 287 286 285 284 284 284 283 284 285 286 285 286 284 283 281 282 282 283 282 284 283 282 281 280 281 281 282 282 282 282 283 283 283 283 283 282 281 281 280 280 279 280 279 278
296 297 296 297 296 295 294 293 292 290 290 286 285 283 283 282 282 282 282 283 282 281 281 279 279 280 280 280 282 283 282 281 281 281 280 280 281 282 282 281 281 281 281 281 281 281 281 280 280 279 279 279 278 277
297 296 295 296 296 296 296 295 293 290 288 289 287 287 285 284 282 282 281 281 281 281 280 279 279 279 280 281 282 283 282 282 281 280 279 279 279 280 280 280 281 281 281 280 279 278 278 277 277 277 277 276 276 275
294 294 294 295 295 295 295 295 295 293 292 290 290 289 287 285 283 281 281 280 280 279 279 278 278 278 279 279 279 280 280 280 280 279 278 279 278 278 278 278 279 278 278 277 277 276 275 275 274 274 274 273 272 272
293 293 294 293 294 294 293 294 293 293 290 290 289 287 286 285 284 281 281 281 279 278 278 278 278 277 277 277 278 278 279 279 278 278 278 277 277 276 276 276 276 276 275 274 274 273 273 273 273 273 272 272 271 270
293 292 293 294 293 289 292 292 292 291 290 286 285 283 286 285 283 281 279 280 279 279 279 278 278 278 278 277 277 277 277 277 277 276 276 277 276 275 275 274 273 273 273 273 273 272 272 271 271 271 271 270 270 269
290 287 290 284 291 287 283 282 283 284 281 281 280 280 283 285 277 278 278 279 278 279 278 278 278 277 277 276 276 276 276 277 277 277 275 275 274 274 274 273 273 272 272 272 271 271 270 270 270 270 269 269 269 268
283 288 285 287 285 287 286 283 281 281 279 281 282 287 285 275 274 277 279 277 278 278 277 277 277 277 276 276 276 276 275 275 276 276 275 275 275 274 273 273 272 271 271 270 270 270 270 269 269 269 268 268 268 268
281 279 286 285 287 288 283 285 284 280 279 279 278 274 273 272 273 277 277 277 277 277 277 277 276 276 275 274 273 273 273 273 273 273 273 273 273 272 271 271 271 270 270 270 269 269 269 269 269 269 268 268 268 267
284 283 279 281 281 282 273 272 271 273 274 280 279 272 271 271 274 276 276 276 276 276 276 276 276 275 275 274 274 273 273 273 273 273 273 272 271 270 270 270 270 269 269 269 269 269 268 268 268 268 268 268 268 268
283 282 281 273 278 278 278 274 276 278 278 279 271 271 275 276 275 275 275 275 275 275 275 275 274 274 274 273 273 273 273 273 272 272 272 272 271 270 269 269 270 269 269 269 268 268 268 268 268 268 268 267 267 267
284 281 279 277 272 274 278 278 277 276 277 276 275 274 274 275 274 275 275 275 274 274 274 274 274 274 274 273 272 272 272 272 272 272 272 272 271 270 270 269 269 269 269 269 268 268 268 268 268 268 268 268 267 267
283 281 279 278 276 277 278 278 277 277 276 276 275 274 273 273 274 274 275 275 275 274 274 274 274 274 273 272 272 272 271 271 271 270 270 270 269 269 269 269 269 269 269 269 269 268 268 268 268 267 267 267 267 267
282 280 278 272 278 277 278 278 280 278 278 276 275 275 275 275 274 274 274 274 274 273 273 273 273 273 272 271 271 271 270 270 270 270 269 269 269 269 269 269 269 269 269 269 269 268 268 268 268 267 267 267 267 267
281 280 279 279 278 278 279 280 280 280 279 278 277 277 276 276 274 273 273 273 274 274 273 273 273 273 271 271 271 270 270 270 269 269 269 268 268 268 268 268 268 268 268 268 268 268 268 268 268 268 267 267 267 267

GFSWCAN_850_thetae_075.txt.gz
Theta_e
297 297 298 299 299 300 301 301 301 301 300 300 301 300 300 300 299 299 299 300 301 300 303 304 304 304 304 304 303 303 305 304 303 304 307 304 302 308 309 311 314 314 314 309 312 315 318 316 318 318 316 316 318 318
297 299 301 302 300 302 301 301 301 301 301 301 302 301 301 299 300 299 299 300 300 301 302 304 304 304 304 304 304 304 305 305 305 304 304 303 303 300 307 309 311 313 312 312 315 314 314 317 318 318 318 317 317 317
299 300 301 301 302 301 301 301 301 301 300 300 300 301 301 300 301 300 300 300 300 301 301 302 305 304 304 304 305 305 305 307 307 307 306 306 306 304 304 305 308 309 313 314 315 315 316 318 318 318 318 318 317 318
299 300 301 301 301 302 301 302 302 302 301 301 302 300 301 300 301 300 299 300 301 300 301 303 304 306 305 305 305 305 305 306 307 309 305 302 303 307 304 306 306 307 313 315 315 314 316 316 317 316 316 317 317 316
300 301 301 301 302 301 301 302 301 303 302 301 301 301 300 300 300 300 300 300 300 301 300 303 305 306 307 308 307 306 306 308 308 306 303 304 306 308 306 307 308 308 310 312 310 312 315 314 315 314 315 317 316 317
301 301 301 301 301 301 301 301 301 302 301 301 300 301 301 300 300 301 300 300 300 301 302 304 305 307 307 308 308 308 308 308 308 308 304 308 311 308 302 306 308 307 308 308 310 311 313 314 315 316 316 314 315 313
301 301 301 301 301 301 300 301 301 301 301 301 301 301 301 302 301 300 301 301 300 301 300 304 306 305 307 307 306 307 307 308 308 308 306 307 309 308 303 304 307 305 307 310 310 309 314 315 315 316 315 313 315 315
300 301 301 302 301 301 301 300 300 301 301 301 301 302 301 301 300 301 302 301 301 300 300 304 304 306 306 306 306 306 307 306 307 307 308 307 308 308 309 302 302 302 304 309 311 308 310 313 315 315 315 315 315 315
300 300 300 301 301 301 301 301 301 301 301 301 301 300 300 301 301 303 302 302 302 303 299 298 302 307 306 305 306 306 306 299 304 302 304 305 306 304 299 299 298 296 298 299 307 307 307 311 309 311 311 309 309 307
300 299 300 301 301 300 301 300 301 300 300 300 300 300 299 302 302 301 302 302 302 301 302 298 303 306 304 303 302 302 301 299 302 302 306 304 301 295 294 294 293 294 297 301 298 302 303 303 305 306 306 305 303 300
300 298 300 300 301 301 301 301 301 301 301 301 300 300 300 301 301 302 300 299 299 299 301 302 302 302 304 303 303 302 298 301 301 302 303 304 297 293 292 292 291 292 293 298 295 294 295 298 298 298 298 297 297 296
299 298 299 300 300 301 301 301 300 301 301 300 301 301 301 298 298 296 293 297 300 302 300 300 300 301 302 303 302 302 303 302 302 301 301 297 293 291 290 289 289 290 292 293 295 296 297 298 295 295 293 291 291 290
297 297 298 300 300 301 301 300 300 301 301 300 300 297 296 292 290 295 296 299 298 296 295 298 301 300 300 300 300 303 306 305 300 297 294 292 291 290 289 288 287 287 287 289 289 291 293 290 290 291 289 288 288 288
297 297 298 298 299 300 300 300 299 300 299 296 292 288 288 287 290 291 292 292 294 293 293 296 299 300 299 300 301 305 300 297 296 294 291 291 289 288 287 286 286 285 285 285 286 286 286 287 286 286 286 286 287 286
297 297 298 298 298 299 299 299 299 299 293 289 289 287 288 287 287 288 290 292 290 291 294 299 301 301 299 298 293 294 291 290 291 290 290 288 287 286 285 285 284 284 284 283 283 283 283 283 283 283 284 285 286 286
297 297 296 295 297 298 298 296 298 293 288 287 285 285 285 284 285 286 287 288 290 292 296 297 299 295 291 289 289 290 290 289 287 286 285 286 285 285 284 284 283 283 283 282 282 282 282 283 283 282 283 284 283 284
297 297 297 297 293 295 297 295 291 288 287 286 284 284 284 284 283 284 286 285 290 293 291 293 290 290 292 290 289 287 284 284 284 283 283 284 284 284 283 283 282 282 282 282 281 281 282 282 283 283 282 281 282 281
297 297 298 296 297 295 291 290 288 287 286 285 283 284 283 282 283 283 284 285 290 289 287 286 286 284 283 285 283 284 282 281 281 281 281 282 283 283 283 282 282 282 282 282 281 281 281 282 281 280 280 280 280 280
297 297 297 296 295 294 293 291 288 286 285 284 283 283 282 282 282 283 283 284 283 283 282 281 280 281 280 281 281 282 282 281 280 280 281 281 282 282 282 282 282 282 282 282 282 282 281 281 280 280 280 281 280 279
297 296 296 295 295 294 293 292 290 288 287 284 283 282 282 281 281 281 281 281 281 280 279 279 278 279 279 279 281 281 281 281 281 281 280 280 281 282 282 282 281 281 281 281 281 280 280 280 280 280 279 278 278 276
296 295 295 295 295 295 294 293 290 288 286 287 285 285 284 282 281 280 280 281 279 279 278 278 278 278 279 281 282 282 281 281 281 280 278 278 279 280 280 281 281 281 281 280 280 279 279 278 277 277 277 276 276 275
294 294 294 294 294 294 294 293 292 291 290 289 289 287 285 282 281 281 280 279 278 277 278 277 277 278 279 280 279 280 280 280 280 279 278 278 278 278 278 278 279 279 279 278 278 277 276 275 275 275 275 274 273 273
294 294 293 293 293 293 292 293 292 292 286 287 287 285 283 282 281 281 280 280 278 278 278 277 277 278 278 278 278 278 278 279 278 278 278 278 278 277 277 277 277 277 276 275 274 274 274 273 273 273 272 271 270 270
293 293 293 293 292 287 291 291 290 288 288 285 284 282 284 282 281 279 278 278 278 277 277 277 277 277 277 277 277 277 277 277 277 277 277 277 277 276 276 275 274 274 273 273 273 272 272 272 271 271 270 269 269 268
290 287 290 283 290 285 281 279 281 283 280 280 280 282 282 283 277 276 275 278 278 277 277 277 277 277 277 276 276 276 276 277 277 277 276 275 274 274 274 274 273 272 271 271 271 271 270 270 270 269 269 269 268 268
283 286 284 283 283 284 282 281 278 278 278 279 279 282 281 272 272 275 277 277 277 277 277 277 277 277 276 276 276 276 276 276 276 276 275 274 274 273 273 273 272 272 271 270 270 270 269 269 269 269 269 268 268 268
279 278 283 283 285 285 279 282 281 276 274 275 273 271 270 269 270 276 276 277 277 277 277 277 276 276 276 276 274 273 273 273 273 274 274 273 273 272 272 271 271 271 271 270 269 269 269 269 269 268 268 268 268 268
282 282 277 278 279 279 271 270 270 271 272 279 276 269 268 269 273 276 276 276 276 276 276 276 276 275 275 274 273 273 273 273 273 273 272 272 271 271 270 270 270 270 270 269 269 269 268 268 268 268 268 268 268 267
281 280 279 271 276 277 276 272 273 277 277 278 268 269 275 275 275 275 275 275 275 275 275 275 275 274 274 273 273 273 273 273 272 272 272 272 271 270 270 269 269 269 269 268 269 268 268 268 268 268 268 268 267 267
281 279 276 275 272 274 276 276 275 275 276 275 274 274 274 274 274 274 274 274 275 275 274 274 274 273 274 273 272 272 272 272 272 271 271 271 271 270 270 270 269 269 268 268 268 268 268 268 268 268 267 267 267 267
281 279 277 276 275 276 276 276 276 276 275 274 274 273 273 274 274 274 275 275 274 274 274 274 273 273 273 272 272 271 271 271 270 270 270 270 270 270 269 269 269 268 269 268 268 268 268 268 268 267 267 267 267 267
279 278 276 272 277 277 277 278 278 277 276 275 274 274 274 274 273 274 274 274 274 274 273 273 273 273 273 272 271 271 271 270 270 270 269 269 268 268 268 268 268 268 268 268 268 268 268 267 267 267 267 267 267 267
279 279 278 277 277 277 278 279 279 278 277 277 276 276 275 275 274 273 273 273 273 273 273 273 273 273 271 271 270 270 270 269 269 269 269 268 268 268 268 268 268 268 268 268 268 268 268 268 267 267 267 267 267 267

GFSWCAN_850_thetae_078.txt.gz
Theta_e
296 296 297 298 299 300 300 300 301 300 300 301 300 300 300 299 298 299 299 299 299 300 302 304 304 304 303 303 303 303 304 303 303 305 307 306 302 305 308 308 313 312 312 313 314 316 317 314 317 319 315 316 317 317
296 297 299 299 300 300 301 301 301 302 301 300 300 300 300 300 299 298 300 299 299 300 302 302 303 304 304 304 303 303 304 303 303 302 302 302 302 298 306 307 308 310 310 311 312 313 312 314 317 317 318 317 317 318
298 299 299 301 301 301 302 301 301 301 301 300 300 301 300 300 300 299 300 299 299 300 300 301 302 304 304 304 304 304 304 304 304 305 302 303 304 302 303 304 306 305 309 311 312 312 313 314 315 317 318 318 318 318
300 300 300 301 301 301 301 301 301 302 301 301 300 301 301 301 300 299 299 300 299 300 300 300 301 301 304 304 304 304 304 305 307 307 303 301 303 304 302 304 304 304 307 310 310 310 312 313 313 315 317 316 318 317
300 301 301 301 301 301 301 300 301 301 301 301 300 300 301 301 300 299 299 299 299 300 297 300 304 302 304 304 304 304 304 305 307 306 300 302 303 307 304 304 306 307 308 308 308 309 308 310 313 313 314 315 315 316
300 300 302 301 300 301 301 301 301 302 302 301 300 300 301 301 300 299 300 299 299 300 302 301 304 305 305 306 304 304 304 305 307 306 303 307 309 306 301 305 305 306 306 306 307 307 310 312 312 312 313 315 315 314
300 301 301 301 301 301 301 302 300 301 301 300 301 300 300 299 300 300 301 300 299 301 302 302 304 306 306 307 307 307 306 307 307 307 305 305 307 307 300 302 304 302 301 303 305 305 310 308 307 310 313 313 313 313
300 301 300 300 301 301 301 301 301 301 300 300 300 301 301 300 300 301 301 301 300 300 300 301 305 304 306 302 303 305 306 307 307 307 307 305 307 306 307 300 299 298 298 302 303 304 303 304 308 308 308 309 312 312
300 300 301 300 300 301 300 301 300 301 301 300 300 300 300 300 300 301 300 299 300 301 300 300 305 306 304 304 305 305 305 302 303 305 306 306 305 301 296 296 295 295 294 295 299 302 304 304 303 302 303 305 306 303
300 301 301 300 300 300 301 300 300 300 300 301 300 301 300 300 301 300 300 301 301 301 300 301 301 305 304 302 301 298 300 300 303 303 304 303 297 294 292 292 291 291 292 294 296 298 300 297 297 295 295 296 298 297
299 300 301 300 300 300 300 300 300 300 300 301 299 298 300 300 301 300 299 300 299 300 300 301 301 303 303 301 302 301 297 297 299 301 305 301 295 292 290 290 289 290 291 292 292 293 294 296 293 293 293 291 292 292
297 299 300 300 300 300 301 301 300 300 300 300 301 300 298 297 296 297 294 299 300 302 298 301 299 300 302 303 301 303 302 301 301 299 297 293 292 290 289 288 287 288 288 289 290 291 290 293 289 288 289 289 290 290
296 297 298 299 300 300 300 300 300 301 300 299 297 294 294 290 288 293 293 297 296 295 294 298 299 299 299 301 301 303 305 303 297 294 292 291 290 288 287 286 285 285 286 286 286 287 288 287 284 285 287 286 286 287
296 296 297 298 298 299 300 299 298 298 297 293 290 286 285 285 288 289 291 292 292 292 293 297 299 299 299 300 300 301 295 294 292 289 289 289 287 286 285 284 284 283 283 283 283 283 284 284 283 283 284 284 284 284
296 296 297 299 299 299 298 298 297 298 292 288 287 285 285 286 285 286 288 290 289 291 295 299 301 298 295 294 292 292 289 288 290 287 287 286 285 284 284 283 283 282 282 282 282 281 281 281 281 281 282 282 283 283
297 297 295 295 299 298 298 296 297 292 287 285 283 284 283 283 284 284 285 286 288 292 295 296 296 293 291 289 288 287 289 287 284 285 283 284 284 283 283 282 282 281 281 281 281 280 281 281 281 281 281 282 282 283
297 298 297 295 293 295 297 295 290 286 286 285 283 283 282 282 282 283 284 283 289 291 290 291 286 287 289 286 285 285 282 283 282 281 282 282 282 282 282 282 281 281 281 281 281 281 280 281 282 282 281 280 281 281
296 297 297 296 297 295 292 288 286 285 284 283 281 282 282 281 282 282 283 283 288 287 285 285 285 284 284 285 283 283 281 280 280 281 281 282 282 282 282 282 281 281 281 281 281 281 281 282 282 280 279 279 280 279
297 297 296 295 295 293 291 289 286 283 283 283 282 282 282 281 281 281 282 283 282 283 282 281 280 280 279 280 280 281 280 280 279 279 280 280 281 281 282 282 282 282 282 281 282 282 281 281 280 280 280 280 279 278
296 295 295 296 294 293 292 290 288 286 284 283 282 281 281 281 280 280 280 281 280 280 279 278 277 278 278 279 280 281 281 280 280 279 278 279 280 280 281 281 280 280 280 280 280 280 280 279 279 279 279 278 277 276
295 295 295 294 294 294 292 290 287 286 285 286 284 284 283 282 280 280 279 279 278 278 278 277 277 277 279 280 281 280 280 280 280 280 278 277 278 279 279 279 280 280 280 279 279 278 279 278 277 276 276 275 275 274
294 294 294 293 293 294 292 291 290 289 289 288 287 285 283 281 280 280 279 277 277 276 277 277 277 278 279 279 279 279 279 280 279 279 278 278 278 278 278 278 279 279 278 277 277 276 275 275 274 274 273 273 272 271
294 294 293 293 293 292 291 291 291 290 286 286 286 284 281 280 280 280 279 278 277 277 277 277 277 277 277 277 278 278 278 279 278 278 278 278 278 278 278 277 277 277 276 275 274 274 274 273 272 272 271 271 270 270
293 292 292 291 291 285 290 288 288 286 286 284 283 282 280 281 280 278 277 277 277 277 277 277 277 277 277 277 277 277 277 278 277 277 277 277 277 277 275 275 274 274 273 273 273 273 272 271 271 271 270 270 269 269
291 286 288 281 288 282 278 275 278 280 278 278 279 280 278 281 275 274 274 277 277 277 277 277 277 277 277 276 276 276 276 276 277 277 276 274 274 274 274 273 273 273 272 271 271 271 271 270 270 270 269 269 269 269
281 283 282 280 280 281 280 277 276 276 275 276 276 278 278 270 271 274 276 276 277 276 276 276 277 276 276 276 276 276 276 276 276 275 275 274 274 273 273 273 272 272 271 270 270 270 270 269 269 269 269 268 268 268
277 277 281 281 283 282 277 279 279 274 272 273 271 269 268 268 268 275 276 276 276 276 276 276 276 276 276 276 274 274 273 273 273 273 274 273 273 272 272 271 271 271 270 270 269 269 269 269 268 268 268 268 268 268
279 280 276 276 277 277 269 268 268 270 271 277 274 269 267 267 272 275 276 276 276 276 276 276 275 275 274 274 274 273 273 273 273 272 272 271 271 271 270 270 270 269 269 269 269 268 268 268 268 268 268 268 267 267
279 278 278 269 275 275 274 269 272 275 276 276 266 267 274 274 274 275 275 275 275 275 275 275 275 274 273 273 272 272 272 272 272 272 272 271 271 270 270 270 269 269 268 268 268 268 268 268 268 268 268 268 267 267
278 278 275 274 270 272 274 274 274 274 275 274 273 273 273 273 274 274 274 274 274 274 274 274 274 274 274 273 272 272 271 271 271 271 271 271 270 270 269 269 269 269 268 268 268 268 268 268 268 268 267 267 267 267
278 278 277 276 274 275 275 275 275 275 274 274 274 273 273 273 273 274 273 274 274 274 273 273 273 273 272 272 271 271 271 271 270 270 270 269 269 269 269 269 269 269 268 268 268 268 268 268 267 267 267 267 267 267
277 276 275 273 276 276 276 278 277 276 276 275 274 274 274 274 274 274 274 273 273 273 273 273 273 273 273 271 271 271 270 270 270 269 269 269 269 268 268 268 268 268 268 268 268 268 268 268 267 267 267 267 267 267
278 278 277 277 276 276 277 278 277 276 276 276 275 275 274 274 274 273 274 273 273 273 273 273 273 272 271 271 270 270 270 269 269 269 269 269 268 268 268 268 268 268 268 268 268 268 268 268 267 267 267 267 267 267

GFSWCAN_850_thetae_081.txt.gz
Theta_e
295 295 295 295 297 297 298 299 299 300 300 300 299 299 299 298 297 297 297 299 298 299 301 303 303 304 303 304 304 303 304 303 304 306 307 308 307 307 307 307 312 314 314 314 314 316 317 314 317 319 318 315 317 317
295 297 298 299 299 300 300 301 301 301 301 301 300 300 300 299 298 297 298 298 298 298 300 302 304 304 303 303 303 303 304 303 304 305 305 306 307 305 307 308 306 309 313 314 315 316 313 313 315 315 317 316 317 317
299 299 300 300 300 300 301 301 301 301 300 301 300 301 300 300 300 298 298 299 298 298 299 301 302 304 304 303 303 303 303 304 303 304 305 305 306 305 308 308 307 306 308 313 312 311 311 311 312 313 313 314 315 317
300 300 300 302 300 301 300 301 301 301 301 301 301 301 300 301 300 300 299 299 299 299 301 300 300 302 304 304 303 303 304 304 304 304 305 305 306 304 307 307 308 307 307 309 311 310 311 311 311 310 311 312 312 313
300 301 301 301 301 301 301 301 301 301 300 301 301 300 300 300 300 300 299 299 299 300 300 299 301 301 301 304 303 303 303 304 305 306 304 307 305 307 305 306 308 307 309 311 311 309 309 309 309 307 310 313 314 314
300 301 300 300 301 301 300 301 301 301 301 301 302 301 301 301 300 299 299 299 299 299 301 301 302 302 301 302 304 304 304 304 305 305 305 305 307 307 309 309 305 303 302 302 305 303 304 306 306 306 307 309 310 311
300 300 300 301 301 301 300 300 302 302 302 301 301 300 300 300 300 300 300 299 299 299 300 299 302 304 304 302 303 304 304 304 305 306 306 306 306 307 305 308 302 300 299 300 300 302 305 304 302 304 305 306 305 306
300 300 300 300 301 300 301 300 301 300 301 300 300 300 300 299 299 300 301 300 299 299 300 300 303 304 305 304 305 305 305 305 305 306 306 306 307 305 306 299 297 296 296 299 297 299 299 300 301 302 302 304 305 303
300 300 300 300 300 301 299 300 300 300 300 300 300 299 299 300 300 300 300 299 299 300 299 300 304 306 304 301 301 303 303 304 302 304 307 306 305 296 294 294 293 293 293 293 294 298 298 297 297 298 297 298 298 295
300 300 300 300 300 300 300 300 299 299 299 300 300 300 299 301 299 300 300 300 300 300 300 300 301 304 304 300 300 301 299 303 304 304 304 299 295 292 290 290 289 289 290 290 292 294 294 293 292 293 291 292 291 289
300 300 300 300 300 300 300 300 300 300 300 300 299 299 300 300 300 300 298 300 299 300 299 300 300 304 302 303 303 301 301 301 304 305 305 299 294 291 289 288 286 287 287 289 290 291 291 291 290 288 287 287 288 287
297 299 300 300 300 300 299 300 300 300 300 299 299 300 300 297 295 298 299 300 300 301 297 301 299 300 301 302 302 303 303 302 304 297 296 293 291 288 287 286 285 285 285 286 287 288 288 289 289 287 286 284 284 286
297 297 299 300 300 300 300 299 299 299 299 297 295 292 292 288 289 293 296 296 296 294 294 298 299 299 301 302 302 303 304 301 295 293 291 290 288 287 285 285 284 283 283 284 284 285 285 285 285 285 285 284 282 283
294 296 298 298 298 300 300 297 297 298 296 292 289 285 284 283 288 288 290 292 291 291 292 297 299 300 298 298 297 297 293 294 293 291 289 287 286 285 284 283 282 282 282 282 282 282 282 282 282 281 282 281 281 280
294 293 295 298 299 297 296 296 296 295 291 286 286 284 285 285 285 285 286 289 288 290 294 299 296 294 292 292 292 292 291 289 289 287 286 285 284 283 283 282 281 281 281 280 280 280 280 280 280 279 280 280 281 280
297 295 294 293 294 296 296 294 294 291 286 284 282 284 282 284 284 283 283 285 287 291 293 293 293 291 290 288 288 286 289 286 285 284 283 283 282 282 282 281 281 280 280 279 279 279 279 279 279 279 280 280 280 281
297 297 297 296 294 294 296 294 289 285 284 283 282 281 281 281 281 282 282 282 286 288 288 289 287 288 288 286 285 284 283 283 282 281 280 281 281 281 281 281 280 280 280 279 279 279 278 279 280 281 280 279 280 280
297 297 297 296 297 295 292 288 285 284 282 282 281 282 281 280 280 281 281 282 285 285 285 285 285 284 284 285 284 282 280 279 279 279 280 280 280 281 281 280 280 280 280 279 279 279 279 280 280 279 279 279 279 279
296 297 296 294 294 292 289 287 286 282 282 282 282 282 281 281 280 280 281 282 282 282 282 281 280 280 280 280 281 280 280 280 278 278 279 279 280 280 280 280 280 280 280 280 281 280 280 280 279 279 279 279 279 277
295 294 295 295 293 291 289 288 286 284 283 282 282 281 281 280 280 279 280 280 280 279 278 278 278 277 277 278 280 280 280 280 279 279 278 279 279 280 280 280 280 280 280 280 280 280 279 279 279 279 279 278 277 275
295 294 293 293 292 292 290 288 286 285 284 285 284 283 282 281 280 279 278 278 277 277 277 276 276 277 278 279 280 280 280 280 280 280 278 278 278 279 279 279 279 279 280 279 279 279 279 278 277 276 276 275 274 273
294 294 293 293 292 291 290 289 288 288 288 286 286 283 281 280 280 279 278 276 276 276 276 276 277 278 278 278 278 279 279 279 279 279 278 278 278 278 278 278 279 279 278 278 277 277 276 275 274 274 274 273 272 272
294 293 292 292 292 291 290 290 289 288 284 285 285 282 280 279 279 279 278 277 276 276 276 276 277 277 277 277 277 277 278 278 278 277 277 277 277 277 277 277 277 277 276 275 274 274 273 273 272 272 271 271 271 270
293 291 290 289 290 282 288 286 287 285 285 284 283 281 280 280 279 277 277 277 276 276 276 276 276 276 276 277 277 276 276 277 277 276 276 276 276 276 275 275 274 274 273 273 273 272 272 271 270 270 270 270 269 269
290 284 287 279 286 281 276 275 277 280 278 278 280 280 278 279 276 275 275 276 276 276 276 276 277 277 276 276 276 276 276 276 276 277 275 275 274 274 273 273 273 272 272 271 271 271 271 270 270 269 269 268 268 268
279 281 281 277 279 281 279 277 274 275 275 276 275 275 276 272 272 274 276 276 276 276 276 276 276 276 276 276 276 276 276 276 275 275 274 274 273 273 272 272 272 271 271 270 270 270 270 269 269 269 268 268 268 268
276 275 279 279 281 280 276 277 277 274 272 273 273 270 270 269 269 274 275 276 276 276 276 276 276 276 276 275 274 273 273 273 273 273 273 273 273 272 272 271 271 271 270 270 270 269 269 269 268 268 268 268 268 268
278 278 274 275 276 275 269 269 269 270 272 275 273 269 268 269 273 274 275 276 276 276 276 275 275 274 274 274 273 273 273 272 272 272 272 271 271 271 270 270 270 270 269 269 269 269 269 268 268 268 268 268 267 267
277 276 277 267 273 273 272 268 271 274 274 274 267 269 273 273 273 274 274 274 275 275 275 275 274 273 273 272 272 272 272 272 272 272 271 271 271 270 270 270 269 269 269 268 268 268 268 268 268 268 268 267 267 267
276 276 274 272 269 271 272 272 273 273 273 273 272 272 273 273 273 274 274 274 274 274 274 274 274 273 273 272 272 271 271 271 271 271 271 270 270 270 269 269 269 269 268 268 268 268 268 268 268 268 267 267 267 267
277 277 275 274 272 274 273 274 274 274 274 273 274 273 273 273 273 273 273 274 274 273 273 273 273 273 272 272 271 271 271 271 270 270 270 270 269 269 268 268 268 268 268 268 268 268 268 268 268 267 267 267 267 267
277 275 274 272 274 275 275 277 276 276 275 275 274 274 273 274 273 274 274 273 273 273 273 273 273 273 272 271 271 271 270 270 270 269 269 269 268 268 268 268 268 268 268 268 268 268 268 268 268 267 267 267 267 267
277 277 277 276 275 275 276 277 275 275 275 275 274 274 274 274 273 273 274 273 273 273 273 273 273 272 271 271 271 270 270 270 269 269 269 269 268 268 268 268 268 268 268 268 268 268 268 268 267 267 267 267 267 267

GFSWCAN_850_thetae_084.txt.gz
Theta_e
295 296 297 297 297 297 298 298 298 298 297 299 299 299 298 298 297 297 296 298 298 300 302 302 302 302 303 305 306 305 305 303 303 308 308 308 307 307 307 307 314 311 310 312 311 315 315 314 315 317 317 318 318 319
298 299 299 299 299 300 300 300 300 300 300 300 299 299 300 299 299 297 297 297 298 298 301 301 303 303 304 304 304 305 305 305 305 307 308 308 309 310 308 309 308 308 314 315 315 313 312 310 313 314 313 315 315 317
298 300 300 300 301 301 301 300 300 300 300 300 300 300 300 299 299 298 298 298 297 297 299 299 302 303 304 304 304 304 304 305 305 306 307 308 308 308 310 309 309 309 310 312 311 312 311 310 312 310 311 312 314 315
299 300 301 301 300 300 301 301 301 300 300 300 301 301 300 300 299 299 298 298 297 298 300 302 300 301 304 304 304 304 304 305 305 305 306 308 308 307 309 309 309 309 309 309 310 310 311 310 311 309 309 309 310 313
300 300 300 300 301 300 300 301 301 301 301 301 301 301 301 300 299 299 298 298 298 299 301 301 301 301 302 304 304 304 304 305 305 306 307 309 307 309 309 309 309 309 310 311 312 309 309 311 308 307 307 306 305 307
299 300 301 300 300 300 300 301 301 301 301 301 301 301 301 300 300 299 299 298 298 299 300 302 302 302 303 303 304 304 304 304 305 305 307 307 308 308 310 310 307 305 303 304 306 303 305 306 307 304 304 303 301 301
300 300 300 300 300 300 301 301 301 302 301 300 300 301 300 300 300 299 300 300 298 299 301 303 304 302 304 302 304 305 304 304 305 306 307 307 308 308 309 311 302 299 299 301 299 300 306 304 301 300 301 302 299 298
300 300 300 300 299 301 300 301 300 301 301 301 301 300 300 300 300 300 300 300 299 299 300 303 304 304 303 304 305 304 305 305 304 306 307 308 308 308 306 298 296 295 296 299 297 297 299 299 298 297 298 298 298 296
300 300 300 299 299 300 300 301 302 302 301 300 300 299 298 299 300 300 299 299 299 300 302 301 304 305 303 303 303 304 305 306 303 307 307 307 304 300 294 294 293 292 292 293 294 296 296 295 294 295 294 295 295 293
300 299 300 300 300 299 299 299 299 299 300 299 300 300 300 300 299 299 299 299 299 301 300 303 302 304 303 302 303 302 302 306 308 306 304 302 296 292 291 290 289 289 289 290 292 295 293 293 292 291 291 290 290 289
300 300 300 300 300 299 299 299 300 300 300 300 300 300 299 299 300 300 299 301 300 301 300 301 302 304 301 306 305 300 306 305 308 306 306 301 297 291 289 288 288 287 287 288 288 289 289 289 289 289 288 287 286 285
298 300 299 299 299 300 300 300 300 300 300 300 299 300 299 297 298 302 302 301 302 303 300 302 300 300 301 301 304 303 305 305 306 299 301 298 292 289 288 287 287 286 285 286 285 285 285 286 286 286 284 283 284 282
297 299 300 299 300 300 299 300 300 300 299 299 298 293 293 291 295 298 300 300 300 296 296 298 301 300 301 302 302 305 305 302 298 298 295 292 288 287 286 286 285 284 284 283 283 282 283 284 284 283 282 281 282 282
294 298 298 299 300 299 296 299 300 300 297 292 292 291 291 291 292 292 293 294 293 293 293 297 301 302 299 301 300 301 296 299 299 297 293 289 286 285 285 284 284 282 281 281 280 280 280 281 281 281 281 281 281 280
293 293 296 298 296 295 295 296 298 296 291 289 290 291 290 287 287 287 288 290 288 289 294 301 299 298 297 296 296 297 296 294 293 292 289 286 285 284 284 283 282 281 280 280 279 279 279 279 278 278 278 279 279 279
297 296 295 292 294 294 292 293 293 291 287 286 285 289 287 289 289 287 286 288 287 288 293 296 298 296 293 292 292 291 293 292 288 287 285 284 283 282 282 281 280 280 279 279 278 278 278 277 277 277 278 278 279 280
297 297 296 295 292 292 292 292 289 285 285 285 285 283 284 285 285 284 284 284 284 291 294 294 294 292 291 291 289 287 288 286 285 283 283 281 281 281 280 279 279 279 279 278 278 278 277 277 277 278 277 277 278 278
297 297 296 295 295 293 291 288 286 285 285 284 285 283 283 282 283 283 283 283 287 288 288 289 288 288 288 289 288 285 283 282 281 281 280 280 279 279 279 279 279 279 279 278 278 278 278 279 279 278 278 277 278 278
296 296 294 294 293 292 289 287 287 285 284 284 283 283 283 282 281 281 282 283 283 284 285 285 285 285 284 283 284 283 283 282 281 280 279 279 279 279 280 280 280 279 279 279 279 279 278 278 277 277 277 277 277 276
294 294 295 294 293 290 289 288 287 286 286 284 283 283 283 282 281 281 281 281 282 282 281 282 282 280 281 281 281 281 281 281 281 280 280 278 278 279 278 278 278 279 279 279 279 279 279 279 278 278 277 276 275 274
294 293 292 293 291 290 289 289 287 287 285 286 285 285 284 283 282 281 281 281 280 280 280 279 279 278 277 278 279 279 279 280 280 281 280 279 277 277 277 278 278 278 277 277 277 278 278 277 276 275 275 275 274 273
293 293 293 291 291 291 290 289 289 288 288 287 286 284 284 284 283 281 280 280 279 278 278 278 278 278 277 277 277 277 277 277 277 278 277 277 278 277 276 276 276 277 277 276 276 276 275 275 274 274 273 273 272 271
293 293 292 292 291 291 290 289 290 289 289 288 286 285 284 283 281 281 280 279 278 277 277 277 276 276 276 276 276 277 277 277 277 276 276 275 275 276 276 276 276 276 276 275 274 274 274 273 272 272 272 271 271 270
293 291 289 288 290 288 287 288 287 287 287 287 286 285 283 282 281 281 280 279 278 277 277 277 277 277 276 276 276 275 275 275 275 275 275 275 275 275 276 276 275 275 274 273 273 273 272 271 271 270 270 270 269 269
290 283 286 287 286 287 287 286 286 287 286 285 285 284 282 281 282 281 280 278 277 276 276 277 277 277 277 276 275 274 276 275 275 275 275 274 274 274 273 273 273 273 272 272 272 271 271 270 270 269 269 269 269 269
283 281 284 285 285 287 286 286 285 285 284 283 281 278 279 281 281 280 279 277 277 276 275 276 276 276 275 275 275 274 276 275 274 274 274 274 273 272 272 272 271 271 271 271 270 270 270 270 269 269 269 269 268 268
283 282 280 278 281 281 282 281 281 282 282 283 281 279 280 279 279 277 276 275 276 274 275 275 275 275 275 275 274 273 273 273 273 273 273 273 272 272 272 271 271 271 270 270 270 269 269 269 269 268 268 268 268 268
279 279 280 276 277 277 278 278 279 279 280 277 278 276 278 278 278 276 275 275 276 276 276 276 275 274 274 274 273 273 273 273 273 272 272 272 271 271 271 270 270 270 270 269 269 269 269 269 268 268 268 268 268 268
277 276 277 273 275 275 275 277 277 276 274 276 277 277 275 274 272 274 273 275 275 275 275 275 275 274 273 273 272 272 272 272 272 271 271 271 271 270 270 270 269 269 269 269 268 268 268 268 268 268 268 268 268 268
277 276 275 274 274 276 273 273 273 272 272 273 274 273 273 272 273 274 274 274 274 274 274 274 274 274 273 272 272 272 271 271 271 271 270 270 270 270 269 269 269 269 269 268 268 268 268 268 268 268 268 267 267 267
276 277 276 276 276 274 273 274 274 274 274 273 273 274 273 272 272 273 274 274 274 274 273 273 274 273 273 272 271 271 271 271 270 270 270 270 269 269 269 269 269 269 268 268 268 268 268 268 268 267 267 267 267 267
275 276 276 276 275 274 275 276 276 275 275 275 274 274 273 274 274 273 273 273 273 273 273 273 273 273 272 271 271 271 270 270 270 269 269 269 269 268 268 268 268 268 268 268 268 268 268 268 267 267 267 267 267 267
277 277 276 277 276 276 276 276 276 276 275 275 273 274 274 274 274 273 274 273 273 273 273 273 273 272 271 271 271 271 270 270 269 269 269 269 269 268 268 268 268 268 268 268 267 267 267 267 267 267 267 267 267 267

GFSWCAN_850_thetae_087.txt.gz
Theta_e
297 297 297 298 300 300 300 300 299 298 296 296 297 298 297 297 297 297 299 297 298 300 302 303 303 303 304 305 308 307 306 305 304 308 309 309 310 309 309 309 313 312 312 313 312 311 313 314 316 318 316 315 315 317
297 297 298 300 301 300 301 300 300 300 299 298 298 298 299 299 298 298 298 297 298 299 301 302 303 304 304 303 305 305 305 305 306 308 309 309 310 310 309 311 311 313 312 313 311 312 314 312 315 312 312 313 314 315
297 298 299 300 300 300 301 300 300 301 300 300 300 299 298 299 298 298 298 298 297 297 300 301 302 302 304 305 305 305 305 305 306 306 308 310 310 309 311 310 311 310 312 313 313 313 313 311 312 311 310 310 310 311
298 299 299 299 301 301 301 301 301 301 301 300 300 300 300 300 300 299 299 298 298 298 302 303 303 302 303 305 306 305 305 305 306 307 308 309 310 308 309 310 311 311 311 311 310 313 312 311 310 309 309 309 307 308
298 299 300 300 301 301 300 300 300 300 300 301 300 301 300 300 300 299 299 298 299 300 302 302 303 303 304 305 305 306 305 306 307 307 308 309 308 309 309 310 310 311 311 313 315 310 310 310 309 306 306 307 305 305
298 299 300 299 300 299 300 300 301 301 300 301 301 301 301 301 300 299 298 298 299 300 302 304 303 304 304 305 305 305 305 305 306 306 308 307 308 308 310 310 305 304 304 305 305 304 306 306 307 303 303 305 304 303
299 299 300 300 300 300 301 301 301 301 301 301 301 301 301 300 300 299 301 300 299 300 301 304 304 304 304 305 305 305 305 305 306 304 307 308 308 308 310 310 302 299 300 301 300 301 306 302 301 299 299 302 303 302
300 300 299 300 300 300 301 301 302 301 301 301 301 301 301 301 299 300 300 300 299 300 300 304 305 304 304 304 305 305 306 305 305 305 307 309 308 309 307 300 298 295 297 298 297 298 299 298 298 297 297 297 301 299
300 300 299 299 299 300 301 300 300 301 301 301 300 301 299 299 300 300 300 298 299 301 303 303 304 306 304 304 305 305 306 305 303 306 308 308 306 303 296 294 293 292 293 293 294 297 297 297 297 295 294 294 295 294
300 300 300 299 299 299 299 299 299 299 299 299 299 300 299 300 299 299 299 299 300 302 303 304 303 306 304 302 304 304 305 306 309 306 305 308 298 293 292 291 290 290 290 291 293 295 294 295 294 293 291 290 290 289
300 300 300 300 299 299 300 300 300 300 301 300 300 299 299 299 300 300 300 302 302 303 302 303 303 305 301 305 307 305 306 307 308 307 308 305 298 293 291 290 289 288 288 289 288 289 290 291 291 291 289 286 285 286
299 299 300 300 300 300 300 300 300 300 300 300 299 299 298 300 302 304 303 302 303 303 302 303 302 303 301 301 306 303 306 306 308 301 306 302 293 291 290 289 288 287 287 287 286 286 285 286 287 287 286 283 282 282
299 299 299 300 300 300 299 299 299 299 299 299 298 295 297 295 300 303 303 303 304 299 298 299 302 301 301 301 305 306 307 304 302 304 299 295 290 288 287 287 286 285 284 284 284 283 282 281 283 282 281 280 280 280
298 299 298 296 296 297 300 299 299 298 296 294 295 294 296 296 295 295 296 297 294 294 295 296 299 301 300 302 303 302 300 302 303 302 296 291 287 287 286 285 284 283 282 282 281 280 279 279 279 280 279 279 278 278
295 294 295 297 295 296 298 300 300 298 293 292 293 295 293 291 291 290 291 293 290 290 294 300 300 300 299 299 299 300 300 299 298 296 292 287 285 285 284 284 283 282 281 281 280 279 279 278 278 277 277 277 278 278
297 296 294 292 294 294 295 296 296 293 290 289 288 293 291 294 293 291 290 291 289 291 296 300 301 299 297 297 297 296 299 297 292 290 287 286 284 283 283 282 281 281 281 280 279 278 277 277 277 276 277 277 277 278
297 298 296 293 292 292 292 293 290 288 288 289 289 286 289 289 288 287 287 288 289 293 297 298 297 295 296 295 292 290 291 289 287 285 284 283 283 282 281 281 280 280 280 279 278 278 277 277 277 277 276 276 277 277
298 297 295 295 294 293 292 290 289 289 288 288 288 287 285 285 286 286 287 287 290 291 292 291 292 292 292 292 290 287 285 284 284 283 283 282 281 281 281 280 279 279 279 278 278 278 278 278 277 276 277 277 277 276
296 296 293 294 293 293 291 290 290 289 287 287 287 286 286 286 285 285 286 286 287 288 289 289 289 288 287 287 287 286 286 285 283 282 281 280 280 280 279 279 279 279 279 279 279 278 277 278 277 277 276 276 275 274
294 294 294 292 293 293 291 290 290 290 290 287 287 286 286 286 286 286 285 285 286 285 285 285 284 284 284 284 284 284 283 283 284 283 282 281 281 280 280 280 280 279 279 278 278 278 277 276 276 276 276 275 275 273
295 292 292 294 293 292 292 291 290 289 289 288 287 287 287 286 286 285 285 284 283 283 283 282 281 280 279 280 281 282 281 283 283 284 282 281 280 280 280 279 279 280 279 279 278 276 276 275 275 274 274 273 272 271
293 293 294 293 293 292 291 291 291 290 290 289 288 288 289 288 286 284 283 282 281 280 281 281 281 281 279 279 278 279 279 280 279 280 280 280 280 280 279 279 279 278 277 277 276 276 275 274 274 273 272 271 271 270
293 292 292 292 292 291 290 291 291 291 292 290 289 288 288 287 284 285 283 281 280 279 279 279 278 278 278 278 278 278 279 279 279 279 278 278 278 277 277 277 277 277 276 275 275 274 273 272 272 272 271 271 270 270
292 290 290 292 291 291 290 290 289 290 290 290 289 288 287 286 285 285 283 281 280 280 279 279 280 279 279 279 279 278 278 278 278 278 278 278 277 276 276 275 275 274 274 274 273 273 272 271 271 271 271 271 270 270
290 285 289 290 290 290 290 290 289 290 289 289 287 287 285 285 286 285 284 281 280 279 279 279 279 280 280 279 278 276 276 277 278 277 276 276 276 275 274 273 273 272 273 273 272 271 271 270 270 270 270 270 269 269
286 284 288 289 289 291 290 290 289 289 288 286 285 283 284 286 285 284 283 280 280 279 279 279 279 279 278 278 278 277 275 275 276 276 274 274 274 276 275 275 274 272 271 271 271 271 270 270 269 269 269 269 269 268
286 286 283 282 286 286 287 286 286 287 287 286 286 285 286 285 283 281 278 279 278 277 277 277 278 278 277 275 274 273 273 274 274 273 273 273 273 272 272 273 273 270 270 270 270 271 270 269 269 269 269 268 268 268
282 282 283 281 282 283 283 284 284 284 284 281 283 282 283 283 282 280 278 277 276 275 275 274 275 275 274 274 273 273 273 273 273 273 272 272 271 271 271 271 271 270 270 270 269 269 269 269 269 268 268 268 268 268
282 281 279 277 280 279 279 282 282 279 278 281 283 282 279 277 277 276 276 275 275 275 275 274 274 274 274 273 273 272 272 272 273 272 273 273 272 270 270 269 269 269 268 269 269 269 269 268 268 268 267 268 267 267
280 280 279 278 279 279 277 278 277 276 277 278 276 276 275 274 273 274 275 275 276 275 275 274 273 274 273 273 272 271 272 271 271 271 273 272 271 269 269 268 268 269 268 267 267 267 268 268 268 268 268 267 267 267
280 282 281 280 279 277 276 275 276 277 278 278 278 278 276 275 273 273 273 273 273 274 274 273 274 273 273 272 272 272 271 271 271 270 270 270 269 269 269 269 269 268 268 267 267 267 267 267 267 267 267 266 266 267
281 281 280 280 278 276 277 280 280 280 280 279 278 277 276 278 277 274 274 273 273 274 273 273 273 272 273 271 271 271 270 270 270 270 270 269 269 269 269 268 268 268 268 268 268 268 268 268 266 266 266 266 266 266
281 280 280 280 279 280 278 281 281 280 280 280 278 277 277 279 278 274 274 274 274 273 272 273 274 273 271 271 271 271 270 270 270 270 269 269 269 268 268 268 268 268 268 268 268 268 268 267 267 267 267 267 267 267

GFSWCAN_850_thetae_093.txt.gz
Theta_e
291 292 293 294 295 296 297 298 299 300 300 300 300 296 295 297 298 297 297 297 297 298 298 300 300 301 302 302 303 304 304 304 304 304 303 303 303 308 311 311 311 310 311 309 308 311 310 311 313 315 310 310 308 309
291 292 293 295 296 297 298 298 299 299 300 300 299 299 295 295 297 297 297 298 297 297 298 299 300 300 300 303 303 305 305 304 304 303 304 305 304 305 310 309 311 311 310 308 309 309 310 311 309 309 308 307 307 307
291 292 294 296 296 297 298 299 299 299 299 300 300 300 299 295 296 297 297 298 298 297 297 298 298 300 301 302 303 303 302 303 306 306 305 306 306 307 307 308 310 311 311 312 310 312 312 309 308 307 306 306 305 305
292 293 295 296 297 297 299 299 299 299 300 300 300 300 300 297 296 297 297 298 297 298 297 298 298 300 300 300 303 304 304 304 306 306 305 304 307 308 309 310 308 310 309 312 312 311 308 305 304 304 304 305 304 303
293 295 296 297 298 299 299 299 298 299 299 300 300 300 300 299 296 297 297 297 298 298 299 301 300 301 304 302 303 304 305 306 305 304 303 306 307 307 308 308 307 306 305 307 307 301 306 303 301 302 302 303 303 302
295 296 297 299 299 299 299 299 300 299 299 299 299 300 300 299 298 298 298 297 297 297 299 300 302 302 302 304 303 304 305 305 305 305 304 306 307 308 308 307 301 301 301 300 300 301 302 302 300 300 300 301 300 300
296 297 298 299 299 299 299 299 300 300 300 300 300 300 301 300 299 298 299 299 298 298 300 300 302 303 304 304 305 305 305 305 304 303 303 305 306 306 305 305 298 297 298 297 299 300 301 300 299 297 297 298 297 296
297 297 299 300 299 299 300 300 300 301 301 300 299 300 301 300 299 299 301 301 299 299 300 301 302 304 304 305 305 305 305 304 303 303 304 306 306 305 300 296 294 293 295 294 296 297 298 298 296 294 295 295 293 292
297 299 300 299 299 300 300 300 301 302 301 300 300 301 301 299 299 299 300 300 299 300 300 300 300 305 305 305 305 305 304 302 303 302 304 305 302 297 296 294 292 291 291 291 292 292 293 293 293 293 292 290 289 288
297 299 299 299 299 300 300 300 300 300 301 300 300 300 298 299 299 299 300 299 299 300 300 302 303 304 304 304 303 304 303 303 305 303 305 298 294 293 292 291 290 289 289 289 289 289 289 289 290 290 288 288 287 286
298 299 299 300 299 299 300 301 300 300 300 300 300 299 300 300 300 299 298 300 299 300 301 302 303 302 303 303 302 304 303 303 302 303 305 301 296 293 290 288 287 287 287 286 286 286 286 286 287 286 285 285 284 283
298 299 300 300 299 300 300 300 300 300 300 300 299 299 299 300 300 301 298 300 299 300 301 299 303 303 302 302 302 303 303 303 303 304 304 295 291 289 288 287 285 285 284 284 283 283 282 283 283 283 282 280 280 280
299 299 296 299 299 300 300 300 299 299 300 300 299 298 299 298 300 299 300 299 301 299 300 301 302 302 301 300 301 303 303 303 302 300 293 290 288 287 286 285 284 283 282 281 280 280 280 280 280 281 280 279 279 279
296 296 295 299 299 299 299 299 298 298 298 297 297 289 293 296 294 294 295 296 293 295 297 299 300 300 300 300 300 303 300 299 302 297 289 288 286 285 284 284 282 281 281 280 279 278 278 278 278 278 278 279 279 279
295 294 295 299 299 299 299 298 299 299 295 293 294 294 292 293 292 291 293 293 292 293 295 298 300 300 298 296 299 298 299 294 293 288 287 285 284 283 283 282 281 280 280 279 278 278 277 277 277 277 277 277 278 278
296 294 294 299 299 299 299 298 300 297 291 290 289 293 292 292 290 289 290 291 291 293 295 296 299 297 296 296 294 290 296 290 288 287 284 284 283 282 281 281 280 280 279 278 277 277 277 277 277 277 277 277 277 277
298 294 292 293 295 297 298 299 294 290 291 290 289 288 290 290 289 289 289 289 292 293 297 297 297 297 296 294 291 290 288 286 285 283 283 283 282 281 281 281 280 279 279 278 278 277 276 276 276 277 277 276 276 276
298 295 293 293 294 295 295 293 291 290 289 289 288 288 288 288 288 288 289 289 292 293 293 293 292 290 290 290 288 286 284 284 283 283 282 282 282 281 280 280 280 279 279 279 279 278 277 277 277 276 276 276 276 276
297 295 295 295 295 294 293 292 290 290 289 289 288 288 288 288 287 287 288 288 288 290 289 288 285 286 286 287 285 285 284 283 282 281 281 281 281 280 280 280 280 281 280 279 279 279 278 278 277 277 276 276 275 275
293 294 295 295 295 293 293 292 291 290 290 288 288 288 288 288 285 284 285 285 285 284 284 283 283 282 283 283 284 284 284 283 282 282 282 282 282 281 281 280 280 280 279 279 278 278 278 278 277 277 276 275 275 274
294 295 295 294 293 293 293 291 291 290 290 290 289 289 287 285 284 283 283 283 283 284 282 281 281 280 281 282 282 283 283 284 284 283 282 282 281 281 281 282 281 280 280 279 279 278 277 276 276 276 276 275 274 273
295 296 293 293 292 292 292 292 291 291 291 291 291 290 289 288 286 284 282 281 281 280 281 281 280 280 280 280 281 281 281 282 281 281 281 281 281 280 280 280 280 279 279 278 277 277 276 275 275 274 274 273 272 272
294 294 293 293 292 292 292 293 293 293 291 291 291 290 288 287 286 284 283 281 280 280 280 279 279 279 279 279 280 280 280 280 280 279 279 279 279 279 279 279 278 278 277 276 276 276 275 275 274 273 273 272 271 271
291 291 292 292 291 291 291 291 292 292 291 290 288 286 285 288 286 284 281 282 281 281 281 281 280 280 279 279 279 280 280 279 279 279 279 278 277 277 277 277 277 276 275 275 275 274 274 273 273 272 272 272 271 271
291 287 291 287 292 288 286 287 289 289 286 287 284 284 284 288 282 280 280 282 281 281 281 281 281 280 279 278 278 278 278 278 277 277 277 277 276 276 276 275 275 275 275 274 274 273 272 272 272 272 271 271 271 271
282 285 287 288 289 288 289 287 287 286 283 281 282 287 288 281 279 281 283 281 280 281 281 281 280 280 279 279 277 277 277 277 277 277 276 276 277 277 276 276 275 274 273 273 273 272 272 271 271 271 271 270 270 270
282 282 286 287 290 290 287 289 288 285 283 282 282 282 280 277 277 281 281 281 280 279 279 279 279 278 278 277 276 275 274 276 277 276 274 273 273 274 275 275 274 274 272 272 272 272 271 271 270 270 270 270 269 269
284 286 281 285 285 286 281 281 281 281 281 285 284 278 277 277 279 281 279 279 279 278 278 278 277 277 276 275 275 274 274 274 274 274 274 274 274 273 272 271 271 271 271 270 271 271 271 270 270 270 269 269 269 269
284 282 282 276 282 281 281 279 280 281 282 284 277 276 280 279 278 278 278 278 277 277 276 276 276 276 275 275 274 273 273 274 274 273 274 274 272 272 271 270 270 270 270 270 269 269 270 270 270 269 269 269 269 269
283 283 281 280 275 278 282 281 280 280 281 280 277 277 278 277 277 277 277 277 277 277 276 276 276 275 275 275 275 273 272 272 272 273 273 273 272 271 270 270 270 269 269 268 268 269 269 268 268 268 268 268 268 268
285 283 281 280 279 280 280 280 280 279 279 278 278 276 276 276 276 277 277 277 277 276 276 275 274 275 274 274 274 274 274 273 271 271 271 271 271 270 270 269 269 268 269 268 268 268 268 268 268 268 267 267 267 267
284 282 280 276 279 280 281 283 283 282 282 280 279 278 278 278 276 276 276 275 276 276 276 275 275 275 274 273 272 272 272 271 271 271 270 270 270 270 269 269 269 269 269 268 268 268 268 268 267 268 267 267 267 267
281 280 280 280 279 280 282 283 283 283 282 281 281 281 280 280 277 275 275 275 276 276 276 275 275 275 274 273 272 272 271 271 271 271 270 270 269 269 269 269 269 269 269 268 268 268 268 267 267 267 267 267 267 267